Wetterdaten: Montag, 07.11.2016
Datum Zeit Temp. A. Temp. A. max Feuchte A. Luftdruck Regen Wind Richtung Richtung Sonnenschein ET UV Solar Taupunkt Windböen
07.11.2016 00:00 0,6 °C 0,6 °C 94 % 1004,4 hPa 0,0 mm 0,0 km/h (0 Bft) N 0 ° 0 min 0,000 mm 0,0 UV-I 0 W/m² -0,3 °C 0,0 km/h (0 Bft)
07.11.2016 00:01 0,6 °C 0,6 °C 94 % 1004,3 hPa 0,0 mm 0,0 km/h (0 Bft) S-SW 202 ° 0 min 0,000 mm 0,0 UV-I 0 W/m² -0,3 °C 1,6 km/h (1 Bft)
07.11.2016 00:02 0,6 °C 0,6 °C 94 % 1004,4 hPa 0,0 mm 1,6 km/h (1 Bft) SW 225 ° 0 min 0,000 mm 0,0 UV-I 0 W/m² -0,3 °C 3,2 km/h (1 Bft)
07.11.2016 00:03 0,6 °C 0,6 °C 94 % 1004,4 hPa 0,0 mm 1,6 km/h (1 Bft) S-SW 202 ° 0 min 0,000 mm 0,0 UV-I 0 W/m² -0,3 °C 3,2 km/h (1 Bft)
07.11.2016 00:04 0,6 °C 0,6 °C 94 % 1004,4 hPa 0,0 mm 1,6 km/h (1 Bft) S-SW 202 ° 0 min 0,000 mm 0,0 UV-I 0 W/m² -0,3 °C 3,2 km/h (1 Bft)
07.11.2016 00:05 0,6 °C 0,6 °C 94 % 1004,4 hPa 0,0 mm 0,0 km/h (0 Bft) S-SW 202 ° 0 min 0,000 mm 0,0 UV-I 0 W/m² -0,3 °C 1,6 km/h (1 Bft)
07.11.2016 00:06 0,6 °C 0,6 °C 94 % 1004,4 hPa 0,0 mm 1,6 km/h (1 Bft) S-SW 202 ° 0 min 0,000 mm 0,0 UV-I 0 W/m² -0,3 °C 3,2 km/h (1 Bft)
07.11.2016 00:07 0,6 °C 0,6 °C 94 % 1004,4 hPa 0,0 mm 1,6 km/h (1 Bft) S-SW 202 ° 0 min 0,000 mm 0,0 UV-I 0 W/m² -0,3 °C 3,2 km/h (1 Bft)
07.11.2016 00:08 0,6 °C 0,6 °C 94 % 1004,5 hPa 0,0 mm 0,0 km/h (0 Bft) S-SW 202 ° 0 min 0,000 mm 0,0 UV-I 0 W/m² -0,3 °C 1,6 km/h (1 Bft)
07.11.2016 00:09 0,6 °C 0,6 °C 94 % 1004,4 hPa 0,0 mm 1,6 km/h (1 Bft) S-SW 202 ° 0 min 0,000 mm 0,0 UV-I 0 W/m² -0,3 °C 1,6 km/h (1 Bft)
07.11.2016 00:10 0,6 °C 0,6 °C 94 % 1004,4 hPa 0,0 mm 1,6 km/h (1 Bft) S-SW 202 ° 0 min 0,000 mm 0,0 UV-I 0 W/m² -0,3 °C 3,2 km/h (1 Bft)
07.11.2016 00:11 0,6 °C 0,6 °C 94 % 1004,4 hPa 0,0 mm 1,6 km/h (1 Bft) S-SW 202 ° 0 min 0,000 mm 0,0 UV-I 0 W/m² -0,3 °C 1,6 km/h (1 Bft)
07.11.2016 00:12 0,6 °C 0,6 °C 94 % 1004,5 hPa 0,0 mm 1,6 km/h (1 Bft) S-SW 202 ° 0 min 0,000 mm 0,0 UV-I 0 W/m² -0,3 °C 3,2 km/h (1 Bft)
07.11.2016 00:13 0,6 °C 0,6 °C 94 % 1004,5 hPa 0,0 mm 0,0 km/h (0 Bft) S-SW 202 ° 0 min 0,000 mm 0,0 UV-I 0 W/m² -0,3 °C 1,6 km/h (1 Bft)
07.11.2016 00:14 0,6 °C 0,6 °C 94 % 1004,5 hPa 0,0 mm 3,2 km/h (1 Bft) S-SW 202 ° 0 min 0,000 mm 0,0 UV-I 0 W/m² -0,3 °C 4,8 km/h (1 Bft)
07.11.2016 00:15 0,6 °C 0,6 °C 94 % 1004,5 hPa 0,0 mm 3,2 km/h (1 Bft) S-SW 202 ° 0 min 0,000 mm 0,0 UV-I 0 W/m² -0,3 °C 4,8 km/h (1 Bft)
07.11.2016 00:16 0,6 °C 0,6 °C 94 % 1004,5 hPa 0,0 mm 3,2 km/h (1 Bft) S-SW 202 ° 0 min 0,000 mm 0,0 UV-I 0 W/m² -0,3 °C 4,8 km/h (1 Bft)
07.11.2016 00:17 0,6 °C 0,6 °C 94 % 1004,5 hPa 0,0 mm 3,2 km/h (1 Bft) S-SW 202 ° 0 min 0,000 mm 0,0 UV-I 0 W/m² -0,3 °C 4,8 km/h (1 Bft)
07.11.2016 00:18 0,6 °C 0,6 °C 94 % 1004,5 hPa 0,0 mm 3,2 km/h (1 Bft) S-SW 202 ° 0 min 0,000 mm 0,0 UV-I 0 W/m² -0,3 °C 4,8 km/h (1 Bft)
07.11.2016 00:19 0,6 °C 0,6 °C 94 % 1004,5 hPa 0,0 mm 3,2 km/h (1 Bft) S-SW 202 ° 0 min 0,000 mm 0,0 UV-I 0 W/m² -0,3 °C 4,8 km/h (1 Bft)
07.11.2016 00:20 0,6 °C 0,6 °C 94 % 1004,5 hPa 0,0 mm 1,6 km/h (1 Bft) S-SW 202 ° 0 min 0,000 mm 0,0 UV-I 0 W/m² -0,3 °C 3,2 km/h (1 Bft)
07.11.2016 00:21 0,6 °C 0,6 °C 94 % 1004,5 hPa 0,0 mm 1,6 km/h (1 Bft) S-SW 202 ° 0 min 0,000 mm 0,0 UV-I 0 W/m² -0,3 °C 3,2 km/h (1 Bft)
07.11.2016 00:22 0,6 °C 0,6 °C 94 % 1004,5 hPa 0,0 mm 3,2 km/h (1 Bft) S-SW 202 ° 0 min 0,000 mm 0,0 UV-I 0 W/m² -0,3 °C 4,8 km/h (1 Bft)
07.11.2016 00:23 0,6 °C 0,6 °C 94 % 1004,5 hPa 0,0 mm 1,6 km/h (1 Bft) W-SW 247 ° 0 min 0,000 mm 0,0 UV-I 0 W/m² -0,3 °C 3,2 km/h (1 Bft)
07.11.2016 00:24 0,6 °C 0,6 °C 94 % 1004,5 hPa 0,0 mm 1,6 km/h (1 Bft) W-SW 247 ° 0 min 0,000 mm 0,0 UV-I 0 W/m² -0,3 °C 3,2 km/h (1 Bft)
07.11.2016 00:25 0,6 °C 0,6 °C 94 % 1004,6 hPa 0,0 mm 1,6 km/h (1 Bft) W-SW 247 ° 0 min 0,000 mm 0,0 UV-I 0 W/m² -0,3 °C 3,2 km/h (1 Bft)
07.11.2016 00:26 0,6 °C 0,6 °C 94 % 1004,5 hPa 0,0 mm 3,2 km/h (1 Bft) W-SW 247 ° 0 min 0,000 mm 0,0 UV-I 0 W/m² -0,3 °C 4,8 km/h (1 Bft)
07.11.2016 00:27 0,6 °C 0,6 °C 94 % 1004,6 hPa 0,0 mm 3,2 km/h (1 Bft) W-SW 247 ° 0 min 0,000 mm 0,0 UV-I 0 W/m² -0,3 °C 4,8 km/h (1 Bft)
07.11.2016 00:28 0,6 °C 0,6 °C 94 % 1004,6 hPa 0,0 mm 3,2 km/h (1 Bft) W-SW 247 ° 0 min 0,000 mm 0,0 UV-I 0 W/m² -0,3 °C 6,4 km/h (2 Bft)
07.11.2016 00:29 0,6 °C 0,6 °C 94 % 1004,6 hPa 0,0 mm 3,2 km/h (1 Bft) W-SW 247 ° 0 min 0,000 mm 0,0 UV-I 0 W/m² -0,3 °C 4,8 km/h (1 Bft)
07.11.2016 00:30 0,6 °C 0,6 °C 94 % 1004,6 hPa 0,0 mm 3,2 km/h (1 Bft) W-SW 247 ° 0 min 0,000 mm 0,0 UV-I 0 W/m² -0,3 °C 6,4 km/h (2 Bft)
07.11.2016 00:31 0,6 °C 0,6 °C 94 % 1004,6 hPa 0,0 mm 1,6 km/h (1 Bft) W-SW 247 ° 0 min 0,000 mm 0,0 UV-I 0 W/m² -0,3 °C 3,2 km/h (1 Bft)
07.11.2016 00:32 0,6 °C 0,6 °C 94 % 1004,6 hPa 0,0 mm 3,2 km/h (1 Bft) W-SW 247 ° 0 min 0,000 mm 0,0 UV-I 0 W/m² -0,3 °C 4,8 km/h (1 Bft)
07.11.2016 00:33 0,6 °C 0,7 °C 94 % 1004,6 hPa 0,0 mm 3,2 km/h (1 Bft) W-SW 247 ° 0 min 0,000 mm 0,0 UV-I 0 W/m² -0,3 °C 4,8 km/h (1 Bft)
07.11.2016 00:34 0,6 °C 0,6 °C 94 % 1004,7 hPa 0,0 mm 3,2 km/h (1 Bft) SW 225 ° 0 min 0,000 mm 0,0 UV-I 0 W/m² -0,3 °C 6,4 km/h (2 Bft)
07.11.2016 00:35 0,6 °C 0,6 °C 94 % 1004,6 hPa 0,0 mm 3,2 km/h (1 Bft) SW 225 ° 0 min 0,000 mm 0,0 UV-I 0 W/m² -0,3 °C 6,4 km/h (2 Bft)
07.11.2016 00:36 0,7 °C 0,7 °C 94 % 1004,6 hPa 0,0 mm 1,6 km/h (1 Bft) W-SW 247 ° 0 min 0,000 mm 0,0 UV-I 0 W/m² -0,2 °C 4,8 km/h (1 Bft)
07.11.2016 00:37 0,7 °C 0,7 °C 94 % 1004,6 hPa 0,0 mm 4,8 km/h (1 Bft) SW 225 ° 0 min 0,000 mm 0,0 UV-I 0 W/m² -0,2 °C 6,4 km/h (2 Bft)
07.11.2016 00:38 0,7 °C 0,7 °C 94 % 1004,6 hPa 0,0 mm 4,8 km/h (1 Bft) S-SW 202 ° 0 min 0,000 mm 0,0 UV-I 0 W/m² -0,2 °C 6,4 km/h (2 Bft)
07.11.2016 00:39 0,6 °C 0,7 °C 94 % 1004,6 hPa 0,0 mm 3,2 km/h (1 Bft) S-SW 202 ° 0 min 0,000 mm 0,0 UV-I 0 W/m² -0,3 °C 4,8 km/h (1 Bft)
07.11.2016 00:40 0,6 °C 0,7 °C 94 % 1004,6 hPa 0,0 mm 1,6 km/h (1 Bft) S-SW 202 ° 0 min 0,000 mm 0,0 UV-I 0 W/m² -0,3 °C 3,2 km/h (1 Bft)
07.11.2016 00:41 0,6 °C 0,7 °C 94 % 1004,6 hPa 0,0 mm 3,2 km/h (1 Bft) S-SW 202 ° 0 min 0,000 mm 0,0 UV-I 0 W/m² -0,3 °C 4,8 km/h (1 Bft)
07.11.2016 00:42 0,6 °C 0,7 °C 94 % 1004,6 hPa 0,0 mm 3,2 km/h (1 Bft) S-SW 202 ° 0 min 0,000 mm 0,0 UV-I 0 W/m² -0,3 °C 4,8 km/h (1 Bft)
07.11.2016 00:43 0,6 °C 0,7 °C 94 % 1004,6 hPa 0,0 mm 1,6 km/h (1 Bft) W-SW 247 ° 0 min 0,000 mm 0,0 UV-I 0 W/m² -0,3 °C 3,2 km/h (1 Bft)
07.11.2016 00:44 0,7 °C 0,7 °C 94 % 1004,6 hPa 0,0 mm 3,2 km/h (1 Bft) W-SW 247 ° 0 min 0,000 mm 0,0 UV-I 0 W/m² -0,2 °C 4,8 km/h (1 Bft)
07.11.2016 00:45 0,7 °C 0,7 °C 94 % 1004,6 hPa 0,0 mm 1,6 km/h (1 Bft) SW 225 ° 0 min 0,000 mm 0,0 UV-I 0 W/m² -0,2 °C 4,8 km/h (1 Bft)
07.11.2016 00:46 0,7 °C 0,7 °C 94 % 1004,6 hPa 0,0 mm 3,2 km/h (1 Bft) SW 225 ° 0 min 0,000 mm 0,0 UV-I 0 W/m² -0,2 °C 4,8 km/h (1 Bft)
07.11.2016 00:47 0,7 °C 0,7 °C 94 % 1004,6 hPa 0,0 mm 3,2 km/h (1 Bft) SW 225 ° 0 min 0,000 mm 0,0 UV-I 0 W/m² -0,2 °C 4,8 km/h (1 Bft)
07.11.2016 00:48 0,7 °C 0,7 °C 94 % 1004,6 hPa 0,0 mm 4,8 km/h (1 Bft) SW 225 ° 0 min 0,000 mm 0,0 UV-I 0 W/m² -0,2 °C 9,7 km/h (2 Bft)
07.11.2016 00:49 0,7 °C 0,7 °C 94 % 1004,6 hPa 0,0 mm 3,2 km/h (1 Bft) SW 225 ° 0 min 0,000 mm 0,0 UV-I 0 W/m² -0,2 °C 11,3 km/h (2 Bft)
07.11.2016 00:50 0,7 °C 0,7 °C 94 % 1004,7 hPa 0,0 mm 3,2 km/h (1 Bft) SW 225 ° 0 min 0,000 mm 0,0 UV-I 0 W/m² -0,2 °C 4,8 km/h (1 Bft)
07.11.2016 00:51 0,7 °C 0,7 °C 94 % 1004,6 hPa 0,0 mm 3,2 km/h (1 Bft) SW 225 ° 0 min 0,000 mm 0,0 UV-I 0 W/m² -0,2 °C 4,8 km/h (1 Bft)
07.11.2016 00:52 0,7 °C 0,7 °C 94 % 1004,6 hPa 0,0 mm 1,6 km/h (1 Bft) SW 225 ° 0 min 0,000 mm 0,0 UV-I 0 W/m² -0,2 °C 3,2 km/h (1 Bft)
07.11.2016 00:53 0,7 °C 0,7 °C 94 % 1004,6 hPa 0,0 mm 3,2 km/h (1 Bft) SW 225 ° 0 min 0,000 mm 0,0 UV-I 0 W/m² -0,2 °C 6,4 km/h (2 Bft)
07.11.2016 00:54 0,7 °C 0,7 °C 94 % 1004,6 hPa 0,0 mm 3,2 km/h (1 Bft) SW 225 ° 0 min 0,000 mm 0,0 UV-I 0 W/m² -0,2 °C 4,8 km/h (1 Bft)
07.11.2016 00:55 0,7 °C 0,7 °C 94 % 1004,7 hPa 0,0 mm 3,2 km/h (1 Bft) SW 225 ° 0 min 0,000 mm 0,0 UV-I 0 W/m² -0,2 °C 6,4 km/h (2 Bft)
07.11.2016 00:56 0,7 °C 0,7 °C 94 % 1004,6 hPa 0,0 mm 1,6 km/h (1 Bft) SW 225 ° 0 min 0,000 mm 0,0 UV-I 0 W/m² -0,2 °C 3,2 km/h (1 Bft)
07.11.2016 00:57 0,7 °C 0,7 °C 94 % 1004,6 hPa 0,0 mm 1,6 km/h (1 Bft) SW 225 ° 0 min 0,000 mm 0,0 UV-I 0 W/m² -0,2 °C 3,2 km/h (1 Bft)
07.11.2016 00:58 0,7 °C 0,7 °C 94 % 1004,7 hPa 0,0 mm 3,2 km/h (1 Bft) SW 225 ° 0 min 0,000 mm 0,0 UV-I 0 W/m² -0,2 °C 3,2 km/h (1 Bft)
07.11.2016 00:59 0,7 °C 0,7 °C 94 % 1004,6 hPa 0,0 mm 1,6 km/h (1 Bft) SW 225 ° 0 min 0,000 mm 0,0 UV-I 0 W/m² -0,2 °C 1,6 km/h (1 Bft)
07.11.2016 01:00 0,7 °C 0,7 °C 94 % 1004,6 hPa 0,0 mm 3,2 km/h (1 Bft) SW 225 ° 0 min 0,000 mm 0,0 UV-I 0 W/m² -0,2 °C 4,8 km/h (1 Bft)
07.11.2016 01:01 0,7 °C 0,7 °C 94 % 1004,6 hPa 0,0 mm 3,2 km/h (1 Bft) S 180 ° 0 min 0,000 mm 0,0 UV-I 0 W/m² -0,2 °C 6,4 km/h (2 Bft)
07.11.2016 01:02 0,7 °C 0,7 °C 94 % 1004,6 hPa 0,0 mm 1,6 km/h (1 Bft) S 180 ° 0 min 0,000 mm 0,0 UV-I 0 W/m² -0,2 °C 3,2 km/h (1 Bft)
07.11.2016 01:03 0,7 °C 0,7 °C 94 % 1004,6 hPa 0,0 mm 1,6 km/h (1 Bft) S-SW 202 ° 0 min 0,000 mm 0,0 UV-I 0 W/m² -0,2 °C 3,2 km/h (1 Bft)
07.11.2016 01:04 0,7 °C 0,7 °C 94 % 1004,7 hPa 0,0 mm 0,0 km/h (0 Bft) S-SW 202 ° 0 min 0,000 mm 0,0 UV-I 0 W/m² -0,2 °C 1,6 km/h (1 Bft)
07.11.2016 01:05 0,7 °C 0,7 °C 94 % 1004,8 hPa 0,0 mm 0,0 km/h (0 Bft) N 0 ° 0 min 0,000 mm 0,0 UV-I 0 W/m² -0,2 °C 0,0 km/h (0 Bft)
07.11.2016 01:06 0,7 °C 0,7 °C 94 % 1004,7 hPa 0,0 mm 0,0 km/h (0 Bft) S-SW 202 ° 0 min 0,000 mm 0,0 UV-I 0 W/m² -0,2 °C 1,6 km/h (1 Bft)
07.11.2016 01:07 0,7 °C 0,7 °C 94 % 1004,7 hPa 0,0 mm 0,0 km/h (0 Bft) S-SW 202 ° 0 min 0,000 mm 0,0 UV-I 0 W/m² -0,2 °C 1,6 km/h (1 Bft)
07.11.2016 01:08 0,7 °C 0,7 °C 94 % 1004,7 hPa 0,0 mm 0,0 km/h (0 Bft) S-SW 202 ° 0 min 0,000 mm 0,0 UV-I 0 W/m² -0,2 °C 1,6 km/h (1 Bft)
07.11.2016 01:09 0,7 °C 0,7 °C 94 % 1004,7 hPa 0,0 mm 0,0 km/h (0 Bft) S-SW 202 ° 0 min 0,000 mm 0,0 UV-I 0 W/m² -0,2 °C 1,6 km/h (1 Bft)
07.11.2016 01:10 0,7 °C 0,7 °C 94 % 1004,7 hPa 0,0 mm 1,6 km/h (1 Bft) S-SW 202 ° 0 min 0,000 mm 0,0 UV-I 0 W/m² -0,2 °C 1,6 km/h (1 Bft)
07.11.2016 01:11 0,7 °C 0,7 °C 94 % 1004,7 hPa 0,0 mm 0,0 km/h (0 Bft) S-SW 202 ° 0 min 0,000 mm 0,0 UV-I 0 W/m² -0,2 °C 1,6 km/h (1 Bft)
07.11.2016 01:12 0,7 °C 0,7 °C 94 % 1004,7 hPa 0,0 mm 0,0 km/h (0 Bft) S-SW 202 ° 0 min 0,000 mm 0,0 UV-I 0 W/m² -0,2 °C 1,6 km/h (1 Bft)
07.11.2016 01:13 0,7 °C 0,7 °C 94 % 1004,6 hPa 0,0 mm 0,0 km/h (0 Bft) S-SW 202 ° 0 min 0,000 mm 0,0 UV-I 0 W/m² -0,2 °C 1,6 km/h (1 Bft)
07.11.2016 01:14 0,7 °C 0,7 °C 94 % 1004,7 hPa 0,0 mm 0,0 km/h (0 Bft) S-SW 202 ° 0 min 0,000 mm 0,0 UV-I 0 W/m² -0,2 °C 4,8 km/h (1 Bft)
07.11.2016 01:15 0,7 °C 0,7 °C 94 % 1004,7 hPa 0,0 mm 3,2 km/h (1 Bft) S-SW 202 ° 0 min 0,000 mm 0,0 UV-I 0 W/m² -0,2 °C 3,2 km/h (1 Bft)
07.11.2016 01:16 0,7 °C 0,7 °C 94 % 1004,6 hPa 0,0 mm 1,6 km/h (1 Bft) S-SW 202 ° 0 min 0,000 mm 0,0 UV-I 0 W/m² -0,2 °C 3,2 km/h (1 Bft)
07.11.2016 01:17 0,7 °C 0,7 °C 94 % 1004,7 hPa 0,0 mm 1,6 km/h (1 Bft) S 180 ° 0 min 0,000 mm 0,0 UV-I 0 W/m² -0,2 °C 3,2 km/h (1 Bft)
07.11.2016 01:18 0,7 °C 0,7 °C 94 % 1004,7 hPa 0,0 mm 1,6 km/h (1 Bft) S 180 ° 0 min 0,000 mm 0,0 UV-I 0 W/m² -0,2 °C 1,6 km/h (1 Bft)
07.11.2016 01:19 0,7 °C 0,7 °C 94 % 1004,7 hPa 0,0 mm 1,6 km/h (1 Bft) S 180 ° 0 min 0,000 mm 0,0 UV-I 0 W/m² -0,2 °C 1,6 km/h (1 Bft)
07.11.2016 01:20 0,7 °C 0,7 °C 94 % 1004,7 hPa 0,0 mm 1,6 km/h (1 Bft) S-SW 202 ° 0 min 0,000 mm 0,0 UV-I 0 W/m² -0,2 °C 3,2 km/h (1 Bft)
07.11.2016 01:21 0,7 °C 0,7 °C 94 % 1004,7 hPa 0,0 mm 0,0 km/h (0 Bft) S-SW 202 ° 0 min 0,000 mm 0,0 UV-I 0 W/m² -0,2 °C 3,2 km/h (1 Bft)
07.11.2016 01:22 0,7 °C 0,7 °C 94 % 1004,7 hPa 0,0 mm 0,0 km/h (0 Bft) S-SW 202 ° 0 min 0,000 mm 0,0 UV-I 0 W/m² -0,2 °C 1,6 km/h (1 Bft)
07.11.2016 01:23 0,7 °C 0,7 °C 94 % 1004,8 hPa 0,0 mm 1,6 km/h (1 Bft) S-SW 202 ° 0 min 0,000 mm 0,0 UV-I 0 W/m² -0,2 °C 3,2 km/h (1 Bft)
07.11.2016 01:24 0,7 °C 0,7 °C 94 % 1004,8 hPa 0,0 mm 3,2 km/h (1 Bft) S-SW 202 ° 0 min 0,000 mm 0,0 UV-I 0 W/m² -0,2 °C 6,4 km/h (2 Bft)
07.11.2016 01:25 0,7 °C 0,7 °C 94 % 1004,8 hPa 0,0 mm 1,6 km/h (1 Bft) S-SW 202 ° 0 min 0,000 mm 0,0 UV-I 0 W/m² -0,2 °C 3,2 km/h (1 Bft)
07.11.2016 01:26 0,7 °C 0,7 °C 94 % 1004,8 hPa 0,0 mm 1,6 km/h (1 Bft) S-SW 202 ° 0 min 0,000 mm 0,0 UV-I 0 W/m² -0,2 °C 3,2 km/h (1 Bft)
07.11.2016 01:27 0,7 °C 0,7 °C 94 % 1004,9 hPa 0,0 mm 1,6 km/h (1 Bft) S-SW 202 ° 0 min 0,000 mm 0,0 UV-I 0 W/m² -0,2 °C 1,6 km/h (1 Bft)
07.11.2016 01:28 0,6 °C 0,7 °C 94 % 1004,8 hPa 0,0 mm 0,0 km/h (0 Bft) S-SW 202 ° 0 min 0,000 mm 0,0 UV-I 0 W/m² -0,3 °C 1,6 km/h (1 Bft)
07.11.2016 01:29 0,7 °C 0,7 °C 94 % 1004,9 hPa 0,0 mm 1,6 km/h (1 Bft) S-SW 202 ° 0 min 0,000 mm 0,0 UV-I 0 W/m² -0,2 °C 3,2 km/h (1 Bft)
07.11.2016 01:30 0,6 °C 0,7 °C 94 % 1004,9 hPa 0,0 mm 1,6 km/h (1 Bft) S-SW 202 ° 0 min 0,000 mm 0,0 UV-I 0 W/m² -0,3 °C 3,2 km/h (1 Bft)
07.11.2016 01:31 0,7 °C 0,7 °C 94 % 1004,8 hPa 0,0 mm 3,2 km/h (1 Bft) S-SW 202 ° 0 min 0,000 mm 0,0 UV-I 0 W/m² -0,2 °C 4,8 km/h (1 Bft)
07.11.2016 01:32 0,6 °C 0,7 °C 94 % 1004,8 hPa 0,0 mm 1,6 km/h (1 Bft) S-SW 202 ° 0 min 0,000 mm 0,0 UV-I 0 W/m² -0,3 °C 3,2 km/h (1 Bft)
07.11.2016 01:33 0,6 °C 0,7 °C 94 % 1004,8 hPa 0,0 mm 1,6 km/h (1 Bft) S-SW 202 ° 0 min 0,000 mm 0,0 UV-I 0 W/m² -0,3 °C 1,6 km/h (1 Bft)
07.11.2016 01:34 0,6 °C 0,7 °C 94 % 1004,8 hPa 0,0 mm 1,6 km/h (1 Bft) S-SW 202 ° 0 min 0,000 mm 0,0 UV-I 0 W/m² -0,3 °C 3,2 km/h (1 Bft)
07.11.2016 01:35 0,6 °C 0,7 °C 94 % 1004,8 hPa 0,0 mm 3,2 km/h (1 Bft) S-SW 202 ° 0 min 0,000 mm 0,0 UV-I 0 W/m² -0,3 °C 4,8 km/h (1 Bft)
07.11.2016 01:36 0,6 °C 0,7 °C 94 % 1004,9 hPa 0,0 mm 3,2 km/h (1 Bft) S-SW 202 ° 0 min 0,000 mm 0,0 UV-I 0 W/m² -0,3 °C 3,2 km/h (1 Bft)
07.11.2016 01:37 0,6 °C 0,7 °C 94 % 1004,9 hPa 0,0 mm 3,2 km/h (1 Bft) S-SW 202 ° 0 min 0,000 mm 0,0 UV-I 0 W/m² -0,3 °C 4,8 km/h (1 Bft)
07.11.2016 01:38 0,6 °C 0,7 °C 94 % 1004,9 hPa 0,0 mm 4,8 km/h (1 Bft) S-SW 202 ° 0 min 0,000 mm 0,0 UV-I 0 W/m² -0,3 °C 4,8 km/h (1 Bft)
07.11.2016 01:39 0,7 °C 0,7 °C 94 % 1004,9 hPa 0,2 mm 1,6 km/h (1 Bft) S 180 ° 0 min 0,000 mm 0,0 UV-I 0 W/m² -0,2 °C 4,8 km/h (1 Bft)
07.11.2016 01:40 0,6 °C 0,7 °C 94 % 1004,9 hPa 0,0 mm 3,2 km/h (1 Bft) S 180 ° 0 min 0,000 mm 0,0 UV-I 0 W/m² -0,3 °C 4,8 km/h (1 Bft)
07.11.2016 01:41 0,6 °C 0,7 °C 94 % 1004,9 hPa 0,0 mm 3,2 km/h (1 Bft) S 180 ° 0 min 0,000 mm 0,0 UV-I 0 W/m² -0,3 °C 4,8 km/h (1 Bft)
07.11.2016 01:42 0,7 °C 0,7 °C 94 % 1004,9 hPa 0,0 mm 3,2 km/h (1 Bft) S 180 ° 0 min 0,000 mm 0,0 UV-I 0 W/m² -0,2 °C 3,2 km/h (1 Bft)
07.11.2016 01:43 0,6 °C 0,7 °C 94 % 1004,9 hPa 0,0 mm 3,2 km/h (1 Bft) S 180 ° 0 min 0,000 mm 0,0 UV-I 0 W/m² -0,3 °C 3,2 km/h (1 Bft)
07.11.2016 01:44 0,7 °C 0,7 °C 94 % 1004,9 hPa 0,0 mm 3,2 km/h (1 Bft) S 180 ° 0 min 0,000 mm 0,0 UV-I 0 W/m² -0,2 °C 4,8 km/h (1 Bft)
07.11.2016 01:45 0,7 °C 0,7 °C 94 % 1004,9 hPa 0,0 mm 1,6 km/h (1 Bft) S 180 ° 0 min 0,000 mm 0,0 UV-I 0 W/m² -0,2 °C 4,8 km/h (1 Bft)
07.11.2016 01:46 0,7 °C 0,7 °C 94 % 1004,9 hPa 0,0 mm 1,6 km/h (1 Bft) S 180 ° 0 min 0,000 mm 0,0 UV-I 0 W/m² -0,2 °C 3,2 km/h (1 Bft)
07.11.2016 01:47 0,6 °C 0,7 °C 94 % 1004,9 hPa 0,0 mm 1,6 km/h (1 Bft) S 180 ° 0 min 0,000 mm 0,0 UV-I 0 W/m² -0,3 °C 1,6 km/h (1 Bft)
07.11.2016 01:48 0,6 °C 0,7 °C 94 % 1004,9 hPa 0,0 mm 1,6 km/h (1 Bft) S 180 ° 0 min 0,000 mm 0,0 UV-I 0 W/m² -0,3 °C 3,2 km/h (1 Bft)
07.11.2016 01:51 0,7 °C 0,7 °C 94 % 1004,9 hPa 0,0 mm 0,5 km/h (0 Bft) S 184 ° 0 min 0,000 mm 0,0 UV-I 0 W/m² -0,2 °C 1,6 km/h (1 Bft)
07.11.2016 01:52 0,7 °C 0,7 °C 94 % 1004,9 hPa 0,0 mm 0,0 km/h (0 Bft) S 184 ° 0 min 0,000 mm 0,0 UV-I 0 W/m² -0,2 °C 0,0 km/h (0 Bft)
07.11.2016 01:53 0,7 °C 0,7 °C 94 % 1004,9 hPa 0,0 mm 0,0 km/h (0 Bft) S 184 ° 0 min 0,000 mm 0,0 UV-I 0 W/m² -0,2 °C 0,0 km/h (0 Bft)
07.11.2016 01:54 0,6 °C 0,7 °C 94 % 1004,9 hPa 0,0 mm 0,0 km/h (0 Bft) S 184 ° 0 min 0,000 mm 0,0 UV-I 0 W/m² -0,3 °C 0,0 km/h (0 Bft)
07.11.2016 01:55 0,7 °C 0,7 °C 94 % 1004,9 hPa 0,0 mm 0,0 km/h (0 Bft) S 184 ° 0 min 0,000 mm 0,0 UV-I 0 W/m² -0,2 °C 0,0 km/h (0 Bft)
07.11.2016 01:56 0,7 °C 0,7 °C 94 % 1004,9 hPa 0,0 mm 0,3 km/h (0 Bft) S 184 ° 0 min 0,000 mm 0,0 UV-I 0 W/m² -0,2 °C 1,6 km/h (1 Bft)
07.11.2016 01:57 0,6 °C 0,7 °C 94 % 1004,9 hPa 0,0 mm 0,5 km/h (0 Bft) S 184 ° 0 min 0,000 mm 0,0 UV-I 0 W/m² -0,3 °C 1,6 km/h (1 Bft)
07.11.2016 01:58 0,7 °C 0,7 °C 94 % 1004,9 hPa 0,0 mm 0,8 km/h (0 Bft) S 184 ° 0 min 0,000 mm 0,0 UV-I 0 W/m² -0,2 °C 1,6 km/h (1 Bft)
07.11.2016 01:59 0,7 °C 0,7 °C 94 % 1004,9 hPa 0,0 mm 0,1 km/h (0 Bft) S 184 ° 0 min 0,000 mm 0,0 UV-I 0 W/m² -0,2 °C 1,6 km/h (1 Bft)
07.11.2016 02:00 0,6 °C 0,7 °C 94 % 1004,8 hPa 0,0 mm 0,7 km/h (0 Bft) S 184 ° 0 min 0,000 mm 0,0 UV-I 0 W/m² -0,3 °C 1,6 km/h (1 Bft)
07.11.2016 02:01 0,6 °C 0,7 °C 94 % 1004,9 hPa 0,0 mm 1,4 km/h (1 Bft) S 184 ° 0 min 0,000 mm 0,0 UV-I 0 W/m² -0,3 °C 3,2 km/h (1 Bft)
07.11.2016 02:02 0,6 °C 0,7 °C 94 % 1004,9 hPa 0,0 mm 1,3 km/h (1 Bft) S 184 ° 0 min 0,000 mm 0,0 UV-I 0 W/m² -0,3 °C 1,6 km/h (1 Bft)
07.11.2016 02:03 0,6 °C 0,7 °C 94 % 1004,9 hPa 0,0 mm 0,2 km/h (0 Bft) S 184 ° 0 min 0,000 mm 0,0 UV-I 0 W/m² -0,3 °C 1,6 km/h (1 Bft)
07.11.2016 02:04 0,6 °C 0,7 °C 94 % 1004,9 hPa 0,0 mm 1,4 km/h (1 Bft) S 184 ° 0 min 0,000 mm 0,0 UV-I 0 W/m² -0,3 °C 3,2 km/h (1 Bft)
07.11.2016 02:05 0,6 °C 0,6 °C 94 % 1004,9 hPa 0,0 mm 0,2 km/h (0 Bft) S 184 ° 0 min 0,000 mm 0,0 UV-I 0 W/m² -0,3 °C 1,6 km/h (1 Bft)
07.11.2016 02:06 0,6 °C 0,7 °C 94 % 1004,9 hPa 0,0 mm 0,1 km/h (0 Bft) S 184 ° 0 min 0,000 mm 0,0 UV-I 0 W/m² -0,3 °C 1,6 km/h (1 Bft)
07.11.2016 02:07 0,6 °C 0,6 °C 94 % 1004,9 hPa 0,0 mm 0,1 km/h (0 Bft) S 184 ° 0 min 0,000 mm 0,0 UV-I 0 W/m² -0,3 °C 1,6 km/h (1 Bft)
07.11.2016 02:08 0,6 °C 0,6 °C 94 % 1004,8 hPa 0,0 mm 0,4 km/h (0 Bft) S 184 ° 0 min 0,000 mm 0,0 UV-I 0 W/m² -0,3 °C 1,6 km/h (1 Bft)
07.11.2016 02:09 0,6 °C 0,6 °C 94 % 1004,9 hPa 0,0 mm 0,1 km/h (0 Bft) S 184 ° 0 min 0,000 mm 0,0 UV-I 0 W/m² -0,3 °C 1,6 km/h (1 Bft)
07.11.2016 02:10 0,6 °C 0,6 °C 94 % 1004,9 hPa 0,0 mm 0,1 km/h (0 Bft) S 184 ° 0 min 0,000 mm 0,0 UV-I 0 W/m² -0,3 °C 1,6 km/h (1 Bft)
07.11.2016 02:11 0,6 °C 0,6 °C 94 % 1004,8 hPa 0,0 mm 0,4 km/h (0 Bft) S 184 ° 0 min 0,000 mm 0,0 UV-I 0 W/m² -0,3 °C 1,6 km/h (1 Bft)
07.11.2016 02:12 0,6 °C 0,6 °C 94 % 1004,8 hPa 0,0 mm 0,3 km/h (0 Bft) S 184 ° 0 min 0,000 mm 0,0 UV-I 0 W/m² -0,3 °C 1,6 km/h (1 Bft)
07.11.2016 02:13 0,6 °C 0,6 °C 94 % 1004,9 hPa 0,0 mm 0,0 km/h (0 Bft) S 184 ° 0 min 0,000 mm 0,0 UV-I 0 W/m² -0,3 °C 0,0 km/h (0 Bft)
07.11.2016 02:14 0,6 °C 0,6 °C 94 % 1004,9 hPa 0,0 mm 0,0 km/h (0 Bft) S 184 ° 0 min 0,000 mm 0,0 UV-I 0 W/m² -0,3 °C 0,0 km/h (0 Bft)
07.11.2016 02:15 0,6 °C 0,6 °C 94 % 1004,9 hPa 0,0 mm 0,1 km/h (0 Bft) S 184 ° 0 min 0,000 mm 0,0 UV-I 0 W/m² -0,3 °C 1,6 km/h (1 Bft)
07.11.2016 02:16 0,6 °C 0,6 °C 94 % 1004,9 hPa 0,0 mm 0,1 km/h (0 Bft) S 184 ° 0 min 0,000 mm 0,0 UV-I 0 W/m² -0,3 °C 1,6 km/h (1 Bft)
07.11.2016 02:17 0,6 °C 0,6 °C 94 % 1004,9 hPa 0,0 mm 0,2 km/h (0 Bft) S 184 ° 0 min 0,000 mm 0,0 UV-I 0 W/m² -0,3 °C 1,6 km/h (1 Bft)
07.11.2016 02:18 0,6 °C 0,6 °C 94 % 1004,9 hPa 0,0 mm 0,0 km/h (0 Bft) S 184 ° 0 min 0,000 mm 0,0 UV-I 0 W/m² -0,3 °C 0,0 km/h (0 Bft)
07.11.2016 02:19 0,6 °C 0,6 °C 94 % 1004,9 hPa 0,0 mm 0,0 km/h (0 Bft) S 184 ° 0 min 0,000 mm 0,0 UV-I 0 W/m² -0,3 °C 0,0 km/h (0 Bft)
07.11.2016 02:20 0,6 °C 0,6 °C 94 % 1004,9 hPa 0,0 mm 0,3 km/h (0 Bft) S 184 ° 0 min 0,000 mm 0,0 UV-I 0 W/m² -0,3 °C 1,6 km/h (1 Bft)
07.11.2016 02:21 0,6 °C 0,6 °C 94 % 1004,9 hPa 0,0 mm 0,8 km/h (0 Bft) S 184 ° 0 min 0,000 mm 0,0 UV-I 0 W/m² -0,3 °C 1,6 km/h (1 Bft)
07.11.2016 02:22 0,6 °C 0,6 °C 94 % 1004,9 hPa 0,0 mm 1,4 km/h (1 Bft) S 184 ° 0 min 0,000 mm 0,0 UV-I 0 W/m² -0,3 °C 1,6 km/h (1 Bft)
07.11.2016 02:23 0,6 °C 0,6 °C 94 % 1004,9 hPa 0,0 mm 0,9 km/h (0 Bft) S 184 ° 0 min 0,000 mm 0,0 UV-I 0 W/m² -0,3 °C 1,6 km/h (1 Bft)
07.11.2016 02:24 0,6 °C 0,6 °C 94 % 1004,9 hPa 0,0 mm 0,3 km/h (0 Bft) S 184 ° 0 min 0,000 mm 0,0 UV-I 0 W/m² -0,3 °C 1,6 km/h (1 Bft)
07.11.2016 02:25 0,6 °C 0,6 °C 94 % 1004,9 hPa 0,0 mm 0,9 km/h (0 Bft) S 184 ° 0 min 0,000 mm 0,0 UV-I 0 W/m² -0,3 °C 1,6 km/h (1 Bft)
07.11.2016 02:26 0,5 °C 0,6 °C 94 % 1004,8 hPa 0,0 mm 0,7 km/h (0 Bft) S 184 ° 0 min 0,000 mm 0,0 UV-I 0 W/m² -0,4 °C 1,6 km/h (1 Bft)
07.11.2016 02:27 0,5 °C 0,6 °C 94 % 1004,9 hPa 0,0 mm 0,1 km/h (0 Bft) S 184 ° 0 min 0,000 mm 0,0 UV-I 0 W/m² -0,4 °C 1,6 km/h (1 Bft)
07.11.2016 02:28 0,5 °C 0,6 °C 94 % 1004,9 hPa 0,0 mm 0,0 km/h (0 Bft) S 184 ° 0 min 0,000 mm 0,0 UV-I 0 W/m² -0,4 °C 0,0 km/h (0 Bft)
07.11.2016 02:29 0,5 °C 0,5 °C 94 % 1004,9 hPa 0,0 mm 0,0 km/h (0 Bft) S 184 ° 0 min 0,000 mm 0,0 UV-I 0 W/m² -0,4 °C 0,0 km/h (0 Bft)
07.11.2016 02:30 0,5 °C 0,5 °C 94 % 1004,9 hPa 0,0 mm 0,0 km/h (0 Bft) S 184 ° 0 min 0,000 mm 0,0 UV-I 0 W/m² -0,4 °C 0,0 km/h (0 Bft)
07.11.2016 02:31 0,5 °C 0,5 °C 94 % 1004,9 hPa 0,0 mm 0,0 km/h (0 Bft) S 184 ° 0 min 0,000 mm 0,0 UV-I 0 W/m² -0,4 °C 0,0 km/h (0 Bft)
07.11.2016 02:32 0,5 °C 0,5 °C 94 % 1004,9 hPa 0,0 mm 0,0 km/h (0 Bft) S 184 ° 0 min 0,000 mm 0,0 UV-I 0 W/m² -0,4 °C 0,0 km/h (0 Bft)
07.11.2016 02:33 0,5 °C 0,5 °C 94 % 1004,9 hPa 0,0 mm 0,0 km/h (0 Bft) S 184 ° 0 min 0,000 mm 0,0 UV-I 0 W/m² -0,4 °C 0,0 km/h (0 Bft)
07.11.2016 02:34 0,5 °C 0,5 °C 94 % 1004,9 hPa 0,0 mm 0,1 km/h (0 Bft) S 184 ° 0 min 0,000 mm 0,0 UV-I 0 W/m² -0,4 °C 1,6 km/h (1 Bft)
07.11.2016 02:35 0,4 °C 0,5 °C 94 % 1004,9 hPa 0,0 mm 0,0 km/h (0 Bft) S 184 ° 0 min 0,000 mm 0,0 UV-I 0 W/m² -0,5 °C 0,0 km/h (0 Bft)
07.11.2016 02:36 0,4 °C 0,5 °C 94 % 1004,9 hPa 0,0 mm 0,0 km/h (0 Bft) S 184 ° 0 min 0,000 mm 0,0 UV-I 0 W/m² -0,5 °C 0,0 km/h (0 Bft)
07.11.2016 02:37 0,4 °C 0,5 °C 94 % 1004,9 hPa 0,0 mm 0,0 km/h (0 Bft) S 184 ° 0 min 0,000 mm 0,0 UV-I 0 W/m² -0,5 °C 0,0 km/h (0 Bft)
07.11.2016 02:38 0,4 °C 0,4 °C 94 % 1004,9 hPa 0,0 mm 0,0 km/h (0 Bft) S 184 ° 0 min 0,000 mm 0,0 UV-I 0 W/m² -0,5 °C 0,0 km/h (0 Bft)
07.11.2016 02:39 0,4 °C 0,4 °C 94 % 1004,9 hPa 0,0 mm 0,0 km/h (0 Bft) S 184 ° 0 min 0,000 mm 0,0 UV-I 0 W/m² -0,5 °C 0,0 km/h (0 Bft)
07.11.2016 02:40 0,4 °C 0,4 °C 94 % 1004,9 hPa 0,0 mm 0,0 km/h (0 Bft) S 184 ° 0 min 0,000 mm 0,0 UV-I 0 W/m² -0,5 °C 0,0 km/h (0 Bft)
07.11.2016 02:41 0,4 °C 0,4 °C 94 % 1005,0 hPa 0,0 mm 0,0 km/h (0 Bft) S 184 ° 0 min 0,000 mm 0,0 UV-I 0 W/m² -0,5 °C 0,0 km/h (0 Bft)
07.11.2016 02:42 0,4 °C 0,4 °C 94 % 1005,0 hPa 0,0 mm 0,0 km/h (0 Bft) S 184 ° 0 min 0,000 mm 0,0 UV-I 0 W/m² -0,5 °C 0,0 km/h (0 Bft)
07.11.2016 02:43 0,4 °C 0,4 °C 94 % 1005,0 hPa 0,0 mm 0,0 km/h (0 Bft) S 184 ° 0 min 0,000 mm 0,0 UV-I 0 W/m² -0,5 °C 0,0 km/h (0 Bft)
07.11.2016 02:44 0,4 °C 0,4 °C 94 % 1004,9 hPa 0,0 mm 0,0 km/h (0 Bft) S 184 ° 0 min 0,000 mm 0,0 UV-I 0 W/m² -0,5 °C 0,0 km/h (0 Bft)
07.11.2016 02:45 0,4 °C 0,4 °C 94 % 1005,0 hPa 0,0 mm 0,0 km/h (0 Bft) S 184 ° 0 min 0,000 mm 0,0 UV-I 0 W/m² -0,5 °C 0,0 km/h (0 Bft)
07.11.2016 02:46 0,4 °C 0,4 °C 94 % 1004,9 hPa 0,0 mm 0,0 km/h (0 Bft) S 184 ° 0 min 0,000 mm 0,0 UV-I 0 W/m² -0,5 °C 0,0 km/h (0 Bft)
07.11.2016 02:47 0,4 °C 0,4 °C 94 % 1005,0 hPa 0,0 mm 0,0 km/h (0 Bft) S 184 ° 0 min 0,000 mm 0,0 UV-I 0 W/m² -0,5 °C 0,0 km/h (0 Bft)
07.11.2016 02:48 0,4 °C 0,4 °C 94 % 1005,0 hPa 0,0 mm 0,0 km/h (0 Bft) S 184 ° 0 min 0,000 mm 0,0 UV-I 0 W/m² -0,5 °C 0,0 km/h (0 Bft)
07.11.2016 02:49 0,4 °C 0,4 °C 94 % 1004,9 hPa 0,0 mm 0,0 km/h (0 Bft) S 184 ° 0 min 0,000 mm 0,0 UV-I 0 W/m² -0,5 °C 0,0 km/h (0 Bft)
07.11.2016 02:50 0,3 °C 0,4 °C 94 % 1005,0 hPa 0,0 mm 0,0 km/h (0 Bft) S 184 ° 0 min 0,000 mm 0,0 UV-I 0 W/m² -0,5 °C 0,0 km/h (0 Bft)
07.11.2016 02:51 0,4 °C 0,4 °C 94 % 1004,9 hPa 0,0 mm 0,0 km/h (0 Bft) S 184 ° 0 min 0,000 mm 0,0 UV-I 0 W/m² -0,5 °C 0,0 km/h (0 Bft)
07.11.2016 02:52 0,3 °C 0,4 °C 94 % 1005,0 hPa 0,0 mm 0,0 km/h (0 Bft) S 184 ° 0 min 0,000 mm 0,0 UV-I 0 W/m² -0,5 °C 0,0 km/h (0 Bft)
07.11.2016 02:53 0,3 °C 0,4 °C 94 % 1005,0 hPa 0,0 mm 0,0 km/h (0 Bft) S 184 ° 0 min 0,000 mm 0,0 UV-I 0 W/m² -0,5 °C 0,0 km/h (0 Bft)
07.11.2016 02:54 0,3 °C 0,3 °C 94 % 1005,0 hPa 0,0 mm 0,0 km/h (0 Bft) S 184 ° 0 min 0,000 mm 0,0 UV-I 0 W/m² -0,5 °C 0,0 km/h (0 Bft)
07.11.2016 02:55 0,3 °C 0,3 °C 94 % 1005,0 hPa 0,0 mm 0,0 km/h (0 Bft) S 184 ° 0 min 0,000 mm 0,0 UV-I 0 W/m² -0,5 °C 0,0 km/h (0 Bft)
07.11.2016 02:56 0,3 °C 0,3 °C 94 % 1005,0 hPa 0,0 mm 0,0 km/h (0 Bft) S 184 ° 0 min 0,000 mm 0,0 UV-I 0 W/m² -0,5 °C 0,0 km/h (0 Bft)
07.11.2016 02:57 0,3 °C 0,3 °C 94 % 1005,0 hPa 0,0 mm 0,0 km/h (0 Bft) S 184 ° 0 min 0,000 mm 0,0 UV-I 0 W/m² -0,5 °C 0,0 km/h (0 Bft)
07.11.2016 02:58 0,3 °C 0,3 °C 94 % 1005,1 hPa 0,0 mm 0,0 km/h (0 Bft) S 184 ° 0 min 0,000 mm 0,0 UV-I 0 W/m² -0,5 °C 0,0 km/h (0 Bft)
07.11.2016 02:59 0,3 °C 0,3 °C 94 % 1005,0 hPa 0,0 mm 0,0 km/h (0 Bft) S 184 ° 0 min 0,000 mm 0,0 UV-I 0 W/m² -0,5 °C 0,0 km/h (0 Bft)
07.11.2016 03:00 0,3 °C 0,3 °C 94 % 1005,0 hPa 0,0 mm 0,0 km/h (0 Bft) S 184 ° 0 min 0,000 mm 0,0 UV-I 0 W/m² -0,5 °C 0,0 km/h (0 Bft)
07.11.2016 03:01 0,3 °C 0,3 °C 94 % 1005,0 hPa 0,0 mm 0,0 km/h (0 Bft) S 184 ° 0 min 0,000 mm 0,0 UV-I 0 W/m² -0,5 °C 0,0 km/h (0 Bft)
07.11.2016 03:02 0,3 °C 0,3 °C 94 % 1005,0 hPa 0,0 mm 0,5 km/h (0 Bft) S 184 ° 0 min 0,000 mm 0,0 UV-I 0 W/m² -0,5 °C 1,6 km/h (1 Bft)
07.11.2016 03:03 0,3 °C 0,3 °C 94 % 1005,0 hPa 0,0 mm 1,5 km/h (1 Bft) S 184 ° 0 min 0,000 mm 0,0 UV-I 0 W/m² -0,5 °C 1,6 km/h (1 Bft)
07.11.2016 03:04 0,3 °C 0,3 °C 94 % 1005,0 hPa 0,0 mm 1,8 km/h (1 Bft) S 184 ° 0 min 0,000 mm 0,0 UV-I 0 W/m² -0,5 °C 3,2 km/h (1 Bft)
07.11.2016 03:05 0,3 °C 0,3 °C 94 % 1005,0 hPa 0,0 mm 0,5 km/h (0 Bft) S 184 ° 0 min 0,000 mm 0,0 UV-I 0 W/m² -0,5 °C 1,6 km/h (1 Bft)
07.11.2016 03:06 0,3 °C 0,3 °C 94 % 1005,0 hPa 0,0 mm 0,6 km/h (0 Bft) S 184 ° 0 min 0,000 mm 0,0 UV-I 0 W/m² -0,5 °C 1,6 km/h (1 Bft)
07.11.2016 03:07 0,3 °C 0,3 °C 94 % 1005,0 hPa 0,0 mm 0,6 km/h (0 Bft) S 184 ° 0 min 0,000 mm 0,0 UV-I 0 W/m² -0,5 °C 1,6 km/h (1 Bft)
07.11.2016 03:08 0,3 °C 0,3 °C 94 % 1005,0 hPa 0,0 mm 1,5 km/h (1 Bft) S 184 ° 0 min 0,000 mm 0,0 UV-I 0 W/m² -0,5 °C 3,2 km/h (1 Bft)
07.11.2016 03:09 0,3 °C 0,3 °C 94 % 1005,0 hPa 0,0 mm 1,7 km/h (1 Bft) S 184 ° 0 min 0,000 mm 0,0 UV-I 0 W/m² -0,5 °C 3,2 km/h (1 Bft)
07.11.2016 03:10 0,3 °C 0,3 °C 94 % 1005,0 hPa 0,0 mm 1,8 km/h (1 Bft) S 184 ° 0 min 0,000 mm 0,0 UV-I 0 W/m² -0,5 °C 3,2 km/h (1 Bft)
07.11.2016 03:11 0,2 °C 0,3 °C 94 % 1005,0 hPa 0,0 mm 1,5 km/h (1 Bft) S 184 ° 0 min 0,000 mm 0,0 UV-I 0 W/m² -0,6 °C 1,6 km/h (1 Bft)
07.11.2016 03:12 0,2 °C 0,3 °C 94 % 1004,9 hPa 0,0 mm 1,4 km/h (1 Bft) S 184 ° 0 min 0,000 mm 0,0 UV-I 0 W/m² -0,6 °C 1,6 km/h (1 Bft)
07.11.2016 03:13 0,3 °C 0,3 °C 94 % 1005,0 hPa 0,0 mm 0,5 km/h (0 Bft) S 184 ° 0 min 0,000 mm 0,0 UV-I 0 W/m² -0,5 °C 1,6 km/h (1 Bft)
07.11.2016 03:14 0,3 °C 0,3 °C 94 % 1004,9 hPa 0,0 mm 0,0 km/h (0 Bft) S 184 ° 0 min 0,000 mm 0,0 UV-I 0 W/m² -0,5 °C 0,0 km/h (0 Bft)
07.11.2016 03:15 0,3 °C 0,3 °C 94 % 1004,9 hPa 0,0 mm 0,0 km/h (0 Bft) S 184 ° 0 min 0,000 mm 0,0 UV-I 0 W/m² -0,5 °C 0,0 km/h (0 Bft)
07.11.2016 03:16 0,2 °C 0,3 °C 94 % 1004,9 hPa 0,0 mm 0,0 km/h (0 Bft) S 184 ° 0 min 0,000 mm 0,0 UV-I 0 W/m² -0,6 °C 0,0 km/h (0 Bft)
07.11.2016 03:17 0,2 °C 0,3 °C 94 % 1004,9 hPa 0,0 mm 0,0 km/h (0 Bft) S 184 ° 0 min 0,000 mm 0,0 UV-I 0 W/m² -0,6 °C 0,0 km/h (0 Bft)
07.11.2016 03:18 0,3 °C 0,3 °C 94 % 1004,9 hPa 0,0 mm 0,0 km/h (0 Bft) S 184 ° 0 min 0,000 mm 0,0 UV-I 0 W/m² -0,5 °C 0,0 km/h (0 Bft)
07.11.2016 03:19 0,2 °C 0,3 °C 94 % 1004,9 hPa 0,0 mm 0,0 km/h (0 Bft) S 184 ° 0 min 0,000 mm 0,0 UV-I 0 W/m² -0,6 °C 0,0 km/h (0 Bft)
07.11.2016 03:20 0,2 °C 0,3 °C 94 % 1004,9 hPa 0,0 mm 0,0 km/h (0 Bft) S 184 ° 0 min 0,000 mm 0,0 UV-I 0 W/m² -0,6 °C 0,0 km/h (0 Bft)
07.11.2016 03:21 0,2 °C 0,3 °C 94 % 1004,9 hPa 0,0 mm 0,0 km/h (0 Bft) S 184 ° 0 min 0,000 mm 0,0 UV-I 0 W/m² -0,6 °C 0,0 km/h (0 Bft)
07.11.2016 03:22 0,2 °C 0,2 °C 94 % 1004,9 hPa 0,0 mm 0,0 km/h (0 Bft) S 184 ° 0 min 0,000 mm 0,0 UV-I 0 W/m² -0,6 °C 0,0 km/h (0 Bft)
07.11.2016 03:23 0,2 °C 0,2 °C 94 % 1004,9 hPa 0,0 mm 0,0 km/h (0 Bft) S 184 ° 0 min 0,000 mm 0,0 UV-I 0 W/m² -0,6 °C 0,0 km/h (0 Bft)
07.11.2016 03:24 0,3 °C 0,3 °C 94 % 1004,9 hPa 0,0 mm 0,2 km/h (0 Bft) S 184 ° 0 min 0,000 mm 0,0 UV-I 0 W/m² -0,5 °C 1,6 km/h (1 Bft)
07.11.2016 03:25 0,2 °C 0,3 °C 94 % 1005,0 hPa 0,0 mm 0,5 km/h (0 Bft) S 184 ° 0 min 0,000 mm 0,0 UV-I 0 W/m² -0,6 °C 1,6 km/h (1 Bft)
07.11.2016 03:26 0,2 °C 0,2 °C 94 % 1004,9 hPa 0,0 mm 0,9 km/h (0 Bft) S 184 ° 0 min 0,000 mm 0,0 UV-I 0 W/m² -0,6 °C 1,6 km/h (1 Bft)
07.11.2016 03:27 0,2 °C 0,2 °C 94 % 1004,9 hPa 0,0 mm 0,3 km/h (0 Bft) S 184 ° 0 min 0,000 mm 0,0 UV-I 0 W/m² -0,6 °C 1,6 km/h (1 Bft)
07.11.2016 03:28 0,2 °C 0,2 °C 94 % 1005,0 hPa 0,0 mm 0,9 km/h (0 Bft) S 184 ° 0 min 0,000 mm 0,0 UV-I 0 W/m² -0,6 °C 1,6 km/h (1 Bft)
07.11.2016 03:29 0,2 °C 0,2 °C 94 % 1004,9 hPa 0,0 mm 0,7 km/h (0 Bft) S 184 ° 0 min 0,000 mm 0,0 UV-I 0 W/m² -0,6 °C 1,6 km/h (1 Bft)
07.11.2016 03:30 0,2 °C 0,2 °C 95 % 1004,9 hPa 0,0 mm 0,4 km/h (0 Bft) S 184 ° 0 min 0,000 mm 0,0 UV-I 0 W/m² -0,5 °C 1,6 km/h (1 Bft)
07.11.2016 03:31 0,2 °C 0,2 °C 95 % 1004,9 hPa 0,0 mm 0,8 km/h (0 Bft) S 184 ° 0 min 0,000 mm 0,0 UV-I 0 W/m² -0,5 °C 1,6 km/h (1 Bft)
07.11.2016 03:32 0,2 °C 0,2 °C 95 % 1004,9 hPa 0,0 mm 1,3 km/h (1 Bft) S 184 ° 0 min 0,000 mm 0,0 UV-I 0 W/m² -0,5 °C 1,6 km/h (1 Bft)
07.11.2016 03:33 0,2 °C 0,2 °C 94 % 1005,0 hPa 0,0 mm 0,4 km/h (0 Bft) S 184 ° 0 min 0,000 mm 0,0 UV-I 0 W/m² -0,6 °C 1,6 km/h (1 Bft)
07.11.2016 03:34 0,2 °C 0,2 °C 95 % 1005,0 hPa 0,0 mm 1,2 km/h (1 Bft) S 184 ° 0 min 0,000 mm 0,0 UV-I 0 W/m² -0,5 °C 1,6 km/h (1 Bft)
07.11.2016 03:35 0,2 °C 0,2 °C 94 % 1005,0 hPa 0,0 mm 1,5 km/h (1 Bft) S 184 ° 0 min 0,000 mm 0,0 UV-I 0 W/m² -0,6 °C 3,2 km/h (1 Bft)
07.11.2016 03:36 0,2 °C 0,3 °C 95 % 1005,0 hPa 0,0 mm 2,7 km/h (1 Bft) S 184 ° 0 min 0,000 mm 0,0 UV-I 0 W/m² -0,5 °C 3,2 km/h (1 Bft)
07.11.2016 03:37 0,2 °C 0,2 °C 95 % 1004,9 hPa 0,0 mm 0,6 km/h (0 Bft) S 184 ° 0 min 0,000 mm 0,0 UV-I 0 W/m² -0,5 °C 1,6 km/h (1 Bft)
07.11.2016 03:38 0,2 °C 0,2 °C 95 % 1004,9 hPa 0,0 mm 0,9 km/h (0 Bft) S 184 ° 0 min 0,000 mm 0,0 UV-I 0 W/m² -0,5 °C 1,6 km/h (1 Bft)
07.11.2016 03:39 0,2 °C 0,2 °C 95 % 1005,0 hPa 0,0 mm 1,0 km/h (0 Bft) S 184 ° 0 min 0,000 mm 0,0 UV-I 0 W/m² -0,5 °C 1,6 km/h (1 Bft)
07.11.2016 03:40 0,2 °C 0,3 °C 95 % 1004,9 hPa 0,0 mm 1,2 km/h (1 Bft) S 184 ° 0 min 0,000 mm 0,0 UV-I 0 W/m² -0,5 °C 3,2 km/h (1 Bft)
07.11.2016 03:41 0,3 °C 0,3 °C 95 % 1004,9 hPa 0,0 mm 0,1 km/h (0 Bft) S 184 ° 0 min 0,000 mm 0,0 UV-I 0 W/m² -0,4 °C 1,6 km/h (1 Bft)
07.11.2016 03:42 0,3 °C 0,3 °C 95 % 1004,9 hPa 0,0 mm 0,0 km/h (0 Bft) S 184 ° 0 min 0,000 mm 0,0 UV-I 0 W/m² -0,4 °C 0,0 km/h (0 Bft)
07.11.2016 03:43 0,2 °C 0,3 °C 95 % 1004,9 hPa 0,0 mm 0,0 km/h (0 Bft) S 184 ° 0 min 0,000 mm 0,0 UV-I 0 W/m² -0,5 °C 0,0 km/h (0 Bft)
07.11.2016 03:44 0,2 °C 0,2 °C 95 % 1004,9 hPa 0,0 mm 0,0 km/h (0 Bft) S 184 ° 0 min 0,000 mm 0,0 UV-I 0 W/m² -0,5 °C 0,0 km/h (0 Bft)
07.11.2016 03:45 0,2 °C 0,2 °C 95 % 1004,9 hPa 0,0 mm 0,0 km/h (0 Bft) S 184 ° 0 min 0,000 mm 0,0 UV-I 0 W/m² -0,5 °C 0,0 km/h (0 Bft)
07.11.2016 03:46 0,2 °C 0,2 °C 95 % 1004,9 hPa 0,0 mm 0,0 km/h (0 Bft) S 184 ° 0 min 0,000 mm 0,0 UV-I 0 W/m² -0,5 °C 0,0 km/h (0 Bft)
07.11.2016 03:47 0,2 °C 0,3 °C 95 % 1004,9 hPa 0,0 mm 0,0 km/h (0 Bft) S 184 ° 0 min 0,000 mm 0,0 UV-I 0 W/m² -0,5 °C 0,0 km/h (0 Bft)
07.11.2016 03:48 0,2 °C 0,2 °C 95 % 1004,9 hPa 0,0 mm 0,0 km/h (0 Bft) S 184 ° 0 min 0,000 mm 0,0 UV-I 0 W/m² -0,5 °C 0,0 km/h (0 Bft)
07.11.2016 03:49 0,2 °C 0,2 °C 95 % 1004,9 hPa 0,0 mm 0,0 km/h (0 Bft) S 184 ° 0 min 0,000 mm 0,0 UV-I 0 W/m² -0,5 °C 0,0 km/h (0 Bft)
07.11.2016 03:50 0,2 °C 0,2 °C 95 % 1004,9 hPa 0,0 mm 0,0 km/h (0 Bft) S 184 ° 0 min 0,000 mm 0,0 UV-I 0 W/m² -0,5 °C 0,0 km/h (0 Bft)
07.11.2016 03:51 0,2 °C 0,2 °C 95 % 1004,9 hPa 0,0 mm 0,0 km/h (0 Bft) S 184 ° 0 min 0,000 mm 0,0 UV-I 0 W/m² -0,5 °C 0,0 km/h (0 Bft)
07.11.2016 03:52 0,2 °C 0,2 °C 95 % 1004,9 hPa 0,0 mm 0,0 km/h (0 Bft) S 184 ° 0 min 0,000 mm 0,0 UV-I 0 W/m² -0,5 °C 0,0 km/h (0 Bft)
07.11.2016 03:53 0,2 °C 0,3 °C 95 % 1004,9 hPa 0,0 mm 0,0 km/h (0 Bft) S 184 ° 0 min 0,000 mm 0,0 UV-I 0 W/m² -0,5 °C 0,0 km/h (0 Bft)
07.11.2016 03:54 0,2 °C 0,3 °C 95 % 1004,9 hPa 0,0 mm 0,0 km/h (0 Bft) S 184 ° 0 min 0,000 mm 0,0 UV-I 0 W/m² -0,5 °C 0,0 km/h (0 Bft)
07.11.2016 03:55 0,2 °C 0,3 °C 95 % 1004,9 hPa 0,0 mm 0,0 km/h (0 Bft) S 184 ° 0 min 0,000 mm 0,0 UV-I 0 W/m² -0,5 °C 0,0 km/h (0 Bft)
07.11.2016 03:56 0,2 °C 0,3 °C 95 % 1004,9 hPa 0,0 mm 0,0 km/h (0 Bft) S 184 ° 0 min 0,000 mm 0,0 UV-I 0 W/m² -0,5 °C 0,0 km/h (0 Bft)
07.11.2016 03:57 0,2 °C 0,3 °C 95 % 1004,9 hPa 0,0 mm 0,0 km/h (0 Bft) S 184 ° 0 min 0,000 mm 0,0 UV-I 0 W/m² -0,5 °C 0,0 km/h (0 Bft)
07.11.2016 03:58 0,2 °C 0,2 °C 95 % 1004,9 hPa 0,0 mm 0,0 km/h (0 Bft) S 184 ° 0 min 0,000 mm 0,0 UV-I 0 W/m² -0,5 °C 0,0 km/h (0 Bft)
07.11.2016 03:59 0,2 °C 0,2 °C 95 % 1004,9 hPa 0,0 mm 0,0 km/h (0 Bft) S 184 ° 0 min 0,000 mm 0,0 UV-I 0 W/m² -0,5 °C 0,0 km/h (0 Bft)
07.11.2016 04:00 0,2 °C 0,2 °C 95 % 1004,9 hPa 0,0 mm 0,0 km/h (0 Bft) S 184 ° 0 min 0,000 mm 0,0 UV-I 0 W/m² -0,5 °C 0,0 km/h (0 Bft)
07.11.2016 04:01 0,2 °C 0,2 °C 95 % 1005,0 hPa 0,0 mm 0,0 km/h (0 Bft) S 184 ° 0 min 0,000 mm 0,0 UV-I 0 W/m² -0,5 °C 0,0 km/h (0 Bft)
07.11.2016 04:02 0,2 °C 0,2 °C 95 % 1004,9 hPa 0,0 mm 0,0 km/h (0 Bft) S 184 ° 0 min 0,000 mm 0,0 UV-I 0 W/m² -0,5 °C 0,0 km/h (0 Bft)
07.11.2016 04:03 0,2 °C 0,2 °C 95 % 1004,9 hPa 0,0 mm 0,0 km/h (0 Bft) S 184 ° 0 min 0,000 mm 0,0 UV-I 0 W/m² -0,5 °C 0,0 km/h (0 Bft)
07.11.2016 04:04 0,2 °C 0,2 °C 95 % 1005,0 hPa 0,0 mm 0,0 km/h (0 Bft) S 184 ° 0 min 0,000 mm 0,0 UV-I 0 W/m² -0,5 °C 0,0 km/h (0 Bft)
07.11.2016 04:05 0,2 °C 0,2 °C 95 % 1005,0 hPa 0,0 mm 0,0 km/h (0 Bft) S 184 ° 0 min 0,000 mm 0,0 UV-I 0 W/m² -0,5 °C 0,0 km/h (0 Bft)
07.11.2016 04:06 0,2 °C 0,2 °C 95 % 1005,0 hPa 0,0 mm 0,0 km/h (0 Bft) S 184 ° 0 min 0,000 mm 0,0 UV-I 0 W/m² -0,5 °C 0,0 km/h (0 Bft)
07.11.2016 04:07 0,2 °C 0,2 °C 95 % 1005,0 hPa 0,0 mm 1,1 km/h (1 Bft) S 184 ° 0 min 0,000 mm 0,0 UV-I 0 W/m² -0,5 °C 3,2 km/h (1 Bft)
07.11.2016 04:08 0,2 °C 0,2 °C 95 % 1005,0 hPa 0,0 mm 1,2 km/h (1 Bft) S 184 ° 0 min 0,000 mm 0,0 UV-I 0 W/m² -0,5 °C 1,6 km/h (1 Bft)
07.11.2016 04:09 0,2 °C 0,2 °C 95 % 1005,1 hPa 0,0 mm 1,0 km/h (0 Bft) S 184 ° 0 min 0,000 mm 0,0 UV-I 0 W/m² -0,5 °C 1,6 km/h (1 Bft)
07.11.2016 04:10 0,2 °C 0,2 °C 95 % 1005,1 hPa 0,0 mm 0,1 km/h (0 Bft) S 184 ° 0 min 0,000 mm 0,0 UV-I 0 W/m² -0,5 °C 1,6 km/h (1 Bft)
07.11.2016 04:11 0,2 °C 0,2 °C 95 % 1005,1 hPa 0,0 mm 0,0 km/h (0 Bft) S 184 ° 0 min 0,000 mm 0,0 UV-I 0 W/m² -0,5 °C 0,0 km/h (0 Bft)
07.11.2016 04:12 0,2 °C 0,2 °C 95 % 1005,1 hPa 0,0 mm 0,0 km/h (0 Bft) S 184 ° 0 min 0,000 mm 0,0 UV-I 0 W/m² -0,5 °C 0,0 km/h (0 Bft)
07.11.2016 04:13 0,2 °C 0,2 °C 95 % 1005,1 hPa 0,0 mm 0,0 km/h (0 Bft) S 184 ° 0 min 0,000 mm 0,0 UV-I 0 W/m² -0,5 °C 0,0 km/h (0 Bft)
07.11.2016 04:14 0,2 °C 0,2 °C 95 % 1005,1 hPa 0,0 mm 0,0 km/h (0 Bft) S 184 ° 0 min 0,000 mm 0,0 UV-I 0 W/m² -0,5 °C 0,0 km/h (0 Bft)
07.11.2016 04:15 0,2 °C 0,2 °C 95 % 1005,1 hPa 0,0 mm 0,0 km/h (0 Bft) S 184 ° 0 min 0,000 mm 0,0 UV-I 0 W/m² -0,5 °C 0,0 km/h (0 Bft)
07.11.2016 04:16 0,2 °C 0,2 °C 95 % 1005,1 hPa 0,0 mm 0,0 km/h (0 Bft) S 184 ° 0 min 0,000 mm 0,0 UV-I 0 W/m² -0,5 °C 0,0 km/h (0 Bft)
07.11.2016 04:17 0,2 °C 0,2 °C 95 % 1005,2 hPa 0,0 mm 0,0 km/h (0 Bft) S 184 ° 0 min 0,000 mm 0,0 UV-I 0 W/m² -0,5 °C 0,0 km/h (0 Bft)
07.11.2016 04:18 0,2 °C 0,2 °C 95 % 1005,2 hPa 0,0 mm 0,0 km/h (0 Bft) S 184 ° 0 min 0,000 mm 0,0 UV-I 0 W/m² -0,5 °C 0,0 km/h (0 Bft)
07.11.2016 04:19 0,2 °C 0,2 °C 95 % 1005,2 hPa 0,0 mm 0,0 km/h (0 Bft) S 184 ° 0 min 0,000 mm 0,0 UV-I 0 W/m² -0,5 °C 0,0 km/h (0 Bft)
07.11.2016 04:20 0,2 °C 0,2 °C 95 % 1005,1 hPa 0,0 mm 0,0 km/h (0 Bft) S 184 ° 0 min 0,000 mm 0,0 UV-I 0 W/m² -0,5 °C 0,0 km/h (0 Bft)
07.11.2016 04:21 0,2 °C 0,2 °C 95 % 1005,2 hPa 0,0 mm 0,0 km/h (0 Bft) S 184 ° 0 min 0,000 mm 0,0 UV-I 0 W/m² -0,5 °C 0,0 km/h (0 Bft)
07.11.2016 04:22 0,2 °C 0,2 °C 95 % 1005,2 hPa 0,0 mm 0,0 km/h (0 Bft) S 184 ° 0 min 0,000 mm 0,0 UV-I 0 W/m² -0,5 °C 0,0 km/h (0 Bft)
07.11.2016 04:23 0,2 °C 0,2 °C 95 % 1005,2 hPa 0,0 mm 0,0 km/h (0 Bft) S 184 ° 0 min 0,000 mm 0,0 UV-I 0 W/m² -0,5 °C 0,0 km/h (0 Bft)
07.11.2016 04:24 0,2 °C 0,2 °C 95 % 1005,2 hPa 0,0 mm 0,0 km/h (0 Bft) S 184 ° 0 min 0,000 mm 0,0 UV-I 0 W/m² -0,5 °C 0,0 km/h (0 Bft)
07.11.2016 04:25 0,2 °C 0,2 °C 95 % 1005,2 hPa 0,0 mm 0,0 km/h (0 Bft) S 184 ° 0 min 0,000 mm 0,0 UV-I 0 W/m² -0,5 °C 0,0 km/h (0 Bft)
07.11.2016 04:26 0,2 °C 0,2 °C 95 % 1005,2 hPa 0,0 mm 0,0 km/h (0 Bft) S 184 ° 0 min 0,000 mm 0,0 UV-I 0 W/m² -0,5 °C 0,0 km/h (0 Bft)
07.11.2016 04:27 0,2 °C 0,2 °C 95 % 1005,2 hPa 0,0 mm 0,0 km/h (0 Bft) S 184 ° 0 min 0,000 mm 0,0 UV-I 0 W/m² -0,5 °C 0,0 km/h (0 Bft)
07.11.2016 04:28 0,2 °C 0,2 °C 95 % 1005,2 hPa 0,0 mm 0,0 km/h (0 Bft) S 184 ° 0 min 0,000 mm 0,0 UV-I 0 W/m² -0,5 °C 0,0 km/h (0 Bft)
07.11.2016 04:29 0,2 °C 0,2 °C 95 % 1005,2 hPa 0,0 mm 0,0 km/h (0 Bft) S 184 ° 0 min 0,000 mm 0,0 UV-I 0 W/m² -0,5 °C 0,0 km/h (0 Bft)
07.11.2016 04:30 0,2 °C 0,2 °C 95 % 1005,2 hPa 0,0 mm 0,0 km/h (0 Bft) S 184 ° 0 min 0,000 mm 0,0 UV-I 0 W/m² -0,5 °C 0,0 km/h (0 Bft)
07.11.2016 04:31 0,2 °C 0,2 °C 95 % 1005,1 hPa 0,0 mm 0,0 km/h (0 Bft) S 184 ° 0 min 0,000 mm 0,0 UV-I 0 W/m² -0,5 °C 0,0 km/h (0 Bft)
07.11.2016 04:32 0,2 °C 0,2 °C 95 % 1005,1 hPa 0,0 mm 0,0 km/h (0 Bft) S 184 ° 0 min 0,000 mm 0,0 UV-I 0 W/m² -0,5 °C 0,0 km/h (0 Bft)
07.11.2016 04:33 0,2 °C 0,2 °C 95 % 1005,1 hPa 0,0 mm 0,0 km/h (0 Bft) S 184 ° 0 min 0,000 mm 0,0 UV-I 0 W/m² -0,5 °C 0,0 km/h (0 Bft)
07.11.2016 04:34 0,2 °C 0,2 °C 95 % 1005,1 hPa 0,0 mm 0,0 km/h (0 Bft) S 184 ° 0 min 0,000 mm 0,0 UV-I 0 W/m² -0,5 °C 0,0 km/h (0 Bft)
07.11.2016 04:35 0,2 °C 0,2 °C 95 % 1005,1 hPa 0,0 mm 0,0 km/h (0 Bft) S 184 ° 0 min 0,000 mm 0,0 UV-I 0 W/m² -0,5 °C 0,0 km/h (0 Bft)
07.11.2016 04:36 0,2 °C 0,2 °C 95 % 1005,1 hPa 0,0 mm 0,0 km/h (0 Bft) S 184 ° 0 min 0,000 mm 0,0 UV-I 0 W/m² -0,5 °C 0,0 km/h (0 Bft)
07.11.2016 04:37 0,2 °C 0,2 °C 95 % 1005,2 hPa 0,0 mm 0,0 km/h (0 Bft) S 184 ° 0 min 0,000 mm 0,0 UV-I 0 W/m² -0,5 °C 0,0 km/h (0 Bft)
07.11.2016 04:38 0,2 °C 0,2 °C 95 % 1005,1 hPa 0,0 mm 0,0 km/h (0 Bft) S 184 ° 0 min 0,000 mm 0,0 UV-I 0 W/m² -0,5 °C 0,0 km/h (0 Bft)
07.11.2016 04:39 0,2 °C 0,2 °C 95 % 1005,1 hPa 0,0 mm 0,0 km/h (0 Bft) S 184 ° 0 min 0,000 mm 0,0 UV-I 0 W/m² -0,5 °C 0,0 km/h (0 Bft)
07.11.2016 04:40 0,2 °C 0,2 °C 95 % 1005,2 hPa 0,0 mm 0,0 km/h (0 Bft) S 184 ° 0 min 0,000 mm 0,0 UV-I 0 W/m² -0,5 °C 0,0 km/h (0 Bft)
07.11.2016 04:41 0,2 °C 0,2 °C 95 % 1005,1 hPa 0,0 mm 0,0 km/h (0 Bft) S 184 ° 0 min 0,000 mm 0,0 UV-I 0 W/m² -0,5 °C 0,0 km/h (0 Bft)
07.11.2016 04:42 0,1 °C 0,2 °C 95 % 1005,1 hPa 0,0 mm 0,0 km/h (0 Bft) S 184 ° 0 min 0,000 mm 0,0 UV-I 0 W/m² -0,6 °C 0,0 km/h (0 Bft)
07.11.2016 04:43 0,2 °C 0,2 °C 95 % 1005,2 hPa 0,0 mm 0,0 km/h (0 Bft) S 184 ° 0 min 0,000 mm 0,0 UV-I 0 W/m² -0,5 °C 0,0 km/h (0 Bft)
07.11.2016 04:44 0,2 °C 0,2 °C 95 % 1005,1 hPa 0,0 mm 0,0 km/h (0 Bft) S 184 ° 0 min 0,000 mm 0,0 UV-I 0 W/m² -0,5 °C 0,0 km/h (0 Bft)
07.11.2016 04:45 0,2 °C 0,2 °C 95 % 1005,1 hPa 0,0 mm 0,0 km/h (0 Bft) S 184 ° 0 min 0,000 mm 0,0 UV-I 0 W/m² -0,5 °C 0,0 km/h (0 Bft)
07.11.2016 04:46 0,2 °C 0,2 °C 95 % 1005,1 hPa 0,0 mm 0,0 km/h (0 Bft) S 184 ° 0 min 0,000 mm 0,0 UV-I 0 W/m² -0,5 °C 0,0 km/h (0 Bft)
07.11.2016 04:47 0,2 °C 0,2 °C 95 % 1005,1 hPa 0,0 mm 0,0 km/h (0 Bft) S 184 ° 0 min 0,000 mm 0,0 UV-I 0 W/m² -0,5 °C 0,0 km/h (0 Bft)
07.11.2016 04:48 0,1 °C 0,2 °C 95 % 1005,1 hPa 0,0 mm 0,0 km/h (0 Bft) S 184 ° 0 min 0,000 mm 0,0 UV-I 0 W/m² -0,6 °C 0,0 km/h (0 Bft)
07.11.2016 04:49 0,1 °C 0,1 °C 95 % 1005,1 hPa 0,0 mm 0,0 km/h (0 Bft) S 184 ° 0 min 0,000 mm 0,0 UV-I 0 W/m² -0,6 °C 0,0 km/h (0 Bft)
07.11.2016 04:50 0,1 °C 0,1 °C 95 % 1005,2 hPa 0,0 mm 0,0 km/h (0 Bft) S 184 ° 0 min 0,000 mm 0,0 UV-I 0 W/m² -0,6 °C 0,0 km/h (0 Bft)
07.11.2016 04:51 0,1 °C 0,1 °C 95 % 1005,2 hPa 0,0 mm 0,0 km/h (0 Bft) S 184 ° 0 min 0,000 mm 0,0 UV-I 0 W/m² -0,6 °C 0,0 km/h (0 Bft)
07.11.2016 04:52 0,1 °C 0,1 °C 95 % 1005,2 hPa 0,0 mm 0,0 km/h (0 Bft) S 184 ° 0 min 0,000 mm 0,0 UV-I 0 W/m² -0,6 °C 0,0 km/h (0 Bft)
07.11.2016 04:53 0,1 °C 0,1 °C 95 % 1005,2 hPa 0,0 mm 0,0 km/h (0 Bft) S 184 ° 0 min 0,000 mm 0,0 UV-I 0 W/m² -0,6 °C 0,0 km/h (0 Bft)
07.11.2016 04:54 0,1 °C 0,1 °C 95 % 1005,2 hPa 0,0 mm 0,0 km/h (0 Bft) S 184 ° 0 min 0,000 mm 0,0 UV-I 0 W/m² -0,6 °C 0,0 km/h (0 Bft)
07.11.2016 04:55 0,1 °C 0,1 °C 95 % 1005,2 hPa 0,0 mm 0,0 km/h (0 Bft) S 184 ° 0 min 0,000 mm 0,0 UV-I 0 W/m² -0,6 °C 0,0 km/h (0 Bft)
07.11.2016 04:56 0,1 °C 0,1 °C 95 % 1005,2 hPa 0,0 mm 0,0 km/h (0 Bft) S 184 ° 0 min 0,000 mm 0,0 UV-I 0 W/m² -0,6 °C 0,0 km/h (0 Bft)
07.11.2016 04:57 0,1 °C 0,1 °C 95 % 1005,2 hPa 0,0 mm 0,0 km/h (0 Bft) S 184 ° 0 min 0,000 mm 0,0 UV-I 0 W/m² -0,6 °C 0,0 km/h (0 Bft)
07.11.2016 04:58 0,1 °C 0,1 °C 95 % 1005,3 hPa 0,0 mm 0,0 km/h (0 Bft) S 184 ° 0 min 0,000 mm 0,0 UV-I 0 W/m² -0,6 °C 0,0 km/h (0 Bft)
07.11.2016 04:59 0,1 °C 0,1 °C 95 % 1005,2 hPa 0,0 mm 0,0 km/h (0 Bft) S 184 ° 0 min 0,000 mm 0,0 UV-I 0 W/m² -0,6 °C 0,0 km/h (0 Bft)
07.11.2016 05:00 0,1 °C 0,1 °C 95 % 1005,2 hPa 0,0 mm 0,0 km/h (0 Bft) S 184 ° 0 min 0,000 mm 0,0 UV-I 0 W/m² -0,6 °C 0,0 km/h (0 Bft)
07.11.2016 05:01 0,1 °C 0,1 °C 95 % 1005,3 hPa 0,0 mm 0,0 km/h (0 Bft) S 184 ° 0 min 0,000 mm 0,0 UV-I 0 W/m² -0,6 °C 0,0 km/h (0 Bft)
07.11.2016 05:02 0,1 °C 0,1 °C 95 % 1005,3 hPa 0,0 mm 0,0 km/h (0 Bft) S 184 ° 0 min 0,000 mm 0,0 UV-I 0 W/m² -0,6 °C 0,0 km/h (0 Bft)
07.11.2016 05:03 0,1 °C 0,1 °C 95 % 1005,3 hPa 0,0 mm 0,0 km/h (0 Bft) S 184 ° 0 min 0,000 mm 0,0 UV-I 0 W/m² -0,6 °C 0,0 km/h (0 Bft)
07.11.2016 05:04 0,1 °C 0,1 °C 95 % 1005,3 hPa 0,0 mm 0,0 km/h (0 Bft) S 184 ° 0 min 0,000 mm 0,0 UV-I 0 W/m² -0,6 °C 0,0 km/h (0 Bft)
07.11.2016 05:05 0,1 °C 0,1 °C 95 % 1005,4 hPa 0,0 mm 0,0 km/h (0 Bft) S 184 ° 0 min 0,000 mm 0,0 UV-I 0 W/m² -0,6 °C 0,0 km/h (0 Bft)
07.11.2016 05:06 0,1 °C 0,1 °C 95 % 1005,3 hPa 0,0 mm 0,0 km/h (0 Bft) S 184 ° 0 min 0,000 mm 0,0 UV-I 0 W/m² -0,6 °C 0,0 km/h (0 Bft)
07.11.2016 05:07 0,1 °C 0,1 °C 95 % 1005,4 hPa 0,0 mm 0,0 km/h (0 Bft) S 184 ° 0 min 0,000 mm 0,0 UV-I 0 W/m² -0,6 °C 0,0 km/h (0 Bft)
07.11.2016 05:08 0,1 °C 0,1 °C 95 % 1005,4 hPa 0,0 mm 0,0 km/h (0 Bft) S 184 ° 0 min 0,000 mm 0,0 UV-I 0 W/m² -0,6 °C 0,0 km/h (0 Bft)
07.11.2016 05:09 0,0 °C 0,1 °C 95 % 1005,4 hPa 0,0 mm 0,0 km/h (0 Bft) S 184 ° 0 min 0,000 mm 0,0 UV-I 0 W/m² -0,7 °C 0,0 km/h (0 Bft)
07.11.2016 05:10 0,0 °C 0,0 °C 95 % 1005,4 hPa 0,0 mm 0,0 km/h (0 Bft) S 184 ° 0 min 0,000 mm 0,0 UV-I 0 W/m² -0,7 °C 0,0 km/h (0 Bft)
07.11.2016 05:11 0,0 °C 0,1 °C 95 % 1005,4 hPa 0,0 mm 0,0 km/h (0 Bft) S 184 ° 0 min 0,000 mm 0,0 UV-I 0 W/m² -0,7 °C 0,0 km/h (0 Bft)
07.11.2016 05:12 0,0 °C 0,0 °C 95 % 1005,4 hPa 0,0 mm 0,0 km/h (0 Bft) S 184 ° 0 min 0,000 mm 0,0 UV-I 0 W/m² -0,7 °C 0,0 km/h (0 Bft)
07.11.2016 05:13 0,0 °C 0,1 °C 95 % 1005,3 hPa 0,0 mm 0,0 km/h (0 Bft) S 184 ° 0 min 0,000 mm 0,0 UV-I 0 W/m² -0,7 °C 0,0 km/h (0 Bft)
07.11.2016 05:14 0,0 °C 0,0 °C 95 % 1005,4 hPa 0,0 mm 0,0 km/h (0 Bft) S 184 ° 0 min 0,000 mm 0,0 UV-I 0 W/m² -0,7 °C 0,0 km/h (0 Bft)
07.11.2016 05:15 0,0 °C 0,0 °C 95 % 1005,4 hPa 0,0 mm 0,0 km/h (0 Bft) S 184 ° 0 min 0,000 mm 0,0 UV-I 0 W/m² -0,7 °C 0,0 km/h (0 Bft)
07.11.2016 05:16 0,0 °C 0,1 °C 95 % 1005,4 hPa 0,0 mm 0,0 km/h (0 Bft) S 184 ° 0 min 0,000 mm 0,0 UV-I 0 W/m² -0,7 °C 0,0 km/h (0 Bft)
07.11.2016 05:17 0,0 °C 0,0 °C 95 % 1005,4 hPa 0,0 mm 0,0 km/h (0 Bft) S 184 ° 0 min 0,000 mm 0,0 UV-I 0 W/m² -0,7 °C 0,0 km/h (0 Bft)
07.11.2016 05:18 0,0 °C 0,0 °C 95 % 1005,4 hPa 0,0 mm 0,0 km/h (0 Bft) S 184 ° 0 min 0,000 mm 0,0 UV-I 0 W/m² -0,7 °C 0,0 km/h (0 Bft)
07.11.2016 05:19 0,0 °C 0,0 °C 95 % 1005,4 hPa 0,0 mm 0,0 km/h (0 Bft) S 184 ° 0 min 0,000 mm 0,0 UV-I 0 W/m² -0,7 °C 0,0 km/h (0 Bft)
07.11.2016 05:20 0,0 °C 0,0 °C 95 % 1005,5 hPa 0,0 mm 0,0 km/h (0 Bft) S 184 ° 0 min 0,000 mm 0,0 UV-I 0 W/m² -0,7 °C 0,0 km/h (0 Bft)
07.11.2016 05:21 0,0 °C 0,0 °C 95 % 1005,4 hPa 0,0 mm 0,0 km/h (0 Bft) S 184 ° 0 min 0,000 mm 0,0 UV-I 0 W/m² -0,7 °C 0,0 km/h (0 Bft)
07.11.2016 05:22 0,0 °C 0,0 °C 95 % 1005,4 hPa 0,0 mm 0,0 km/h (0 Bft) S 184 ° 0 min 0,000 mm 0,0 UV-I 0 W/m² -0,7 °C 0,0 km/h (0 Bft)
07.11.2016 05:23 0,0 °C 0,0 °C 95 % 1005,4 hPa 0,0 mm 0,0 km/h (0 Bft) S 184 ° 0 min 0,000 mm 0,0 UV-I 0 W/m² -0,7 °C 0,0 km/h (0 Bft)
07.11.2016 05:24 -0,1 °C 0,0 °C 95 % 1005,4 hPa 0,0 mm 0,0 km/h (0 Bft) S 184 ° 0 min 0,000 mm 0,0 UV-I 0 W/m² -0,8 °C 0,0 km/h (0 Bft)
07.11.2016 05:25 0,0 °C 0,0 °C 95 % 1005,4 hPa 0,0 mm 0,0 km/h (0 Bft) S 184 ° 0 min 0,000 mm 0,0 UV-I 0 W/m² -0,7 °C 0,0 km/h (0 Bft)
07.11.2016 05:26 0,0 °C 0,0 °C 95 % 1005,4 hPa 0,0 mm 0,0 km/h (0 Bft) S 184 ° 0 min 0,000 mm 0,0 UV-I 0 W/m² -0,7 °C 0,0 km/h (0 Bft)
07.11.2016 05:27 0,0 °C 0,0 °C 95 % 1005,4 hPa 0,0 mm 0,0 km/h (0 Bft) S 184 ° 0 min 0,000 mm 0,0 UV-I 0 W/m² -0,7 °C 0,0 km/h (0 Bft)
07.11.2016 05:28 -0,1 °C 0,0 °C 95 % 1005,4 hPa 0,0 mm 0,0 km/h (0 Bft) S 184 ° 0 min 0,000 mm 0,0 UV-I 0 W/m² -0,8 °C 0,0 km/h (0 Bft)
07.11.2016 05:29 0,0 °C 0,0 °C 95 % 1005,4 hPa 0,0 mm 0,0 km/h (0 Bft) S 184 ° 0 min 0,000 mm 0,0 UV-I 0 W/m² -0,7 °C 0,0 km/h (0 Bft)
07.11.2016 05:30 0,0 °C 0,0 °C 95 % 1005,5 hPa 0,0 mm 0,0 km/h (0 Bft) S 184 ° 0 min 0,000 mm 0,0 UV-I 0 W/m² -0,7 °C 0,0 km/h (0 Bft)
07.11.2016 05:31 0,0 °C 0,0 °C 95 % 1005,4 hPa 0,0 mm 0,0 km/h (0 Bft) S 184 ° 0 min 0,000 mm 0,0 UV-I 0 W/m² -0,7 °C 0,0 km/h (0 Bft)
07.11.2016 05:32 0,0 °C 0,0 °C 95 % 1005,5 hPa 0,0 mm 0,0 km/h (0 Bft) S 184 ° 0 min 0,000 mm 0,0 UV-I 0 W/m² -0,7 °C 0,0 km/h (0 Bft)
07.11.2016 05:33 0,0 °C 0,0 °C 95 % 1005,5 hPa 0,0 mm 0,0 km/h (0 Bft) S 184 ° 0 min 0,000 mm 0,0 UV-I 0 W/m² -0,7 °C 0,0 km/h (0 Bft)
07.11.2016 05:34 0,0 °C 0,0 °C 95 % 1005,5 hPa 0,0 mm 0,0 km/h (0 Bft) S 184 ° 0 min 0,000 mm 0,0 UV-I 0 W/m² -0,7 °C 0,0 km/h (0 Bft)
07.11.2016 05:35 0,0 °C 0,0 °C 95 % 1005,5 hPa 0,0 mm 0,0 km/h (0 Bft) S 184 ° 0 min 0,000 mm 0,0 UV-I 0 W/m² -0,7 °C 0,0 km/h (0 Bft)
07.11.2016 05:36 0,0 °C 0,0 °C 95 % 1005,5 hPa 0,0 mm 0,0 km/h (0 Bft) S 184 ° 0 min 0,000 mm 0,0 UV-I 0 W/m² -0,7 °C 0,0 km/h (0 Bft)
07.11.2016 05:37 0,0 °C 0,0 °C 95 % 1005,5 hPa 0,0 mm 0,0 km/h (0 Bft) S 184 ° 0 min 0,000 mm 0,0 UV-I 0 W/m² -0,7 °C 0,0 km/h (0 Bft)
07.11.2016 05:38 0,0 °C 0,0 °C 95 % 1005,5 hPa 0,0 mm 0,0 km/h (0 Bft) S 184 ° 0 min 0,000 mm 0,0 UV-I 0 W/m² -0,7 °C 0,0 km/h (0 Bft)
07.11.2016 05:39 0,0 °C 0,0 °C 95 % 1005,5 hPa 0,0 mm 0,0 km/h (0 Bft) S 184 ° 0 min 0,000 mm 0,0 UV-I 0 W/m² -0,7 °C 0,0 km/h (0 Bft)
07.11.2016 05:40 0,0 °C 0,0 °C 95 % 1005,6 hPa 0,0 mm 0,0 km/h (0 Bft) S 184 ° 0 min 0,000 mm 0,0 UV-I 0 W/m² -0,7 °C 0,0 km/h (0 Bft)
07.11.2016 05:41 0,0 °C 0,0 °C 95 % 1005,6 hPa 0,0 mm 0,0 km/h (0 Bft) S 184 ° 0 min 0,000 mm 0,0 UV-I 0 W/m² -0,7 °C 0,0 km/h (0 Bft)
07.11.2016 05:42 0,0 °C 0,0 °C 95 % 1005,5 hPa 0,0 mm 0,0 km/h (0 Bft) S 184 ° 0 min 0,000 mm 0,0 UV-I 0 W/m² -0,7 °C 0,0 km/h (0 Bft)
07.11.2016 05:43 0,0 °C 0,0 °C 95 % 1005,6 hPa 0,0 mm 0,0 km/h (0 Bft) S 184 ° 0 min 0,000 mm 0,0 UV-I 0 W/m² -0,7 °C 0,0 km/h (0 Bft)
07.11.2016 05:44 0,0 °C 0,0 °C 95 % 1005,6 hPa 0,0 mm 0,0 km/h (0 Bft) S 184 ° 0 min 0,000 mm 0,0 UV-I 0 W/m² -0,7 °C 0,0 km/h (0 Bft)
07.11.2016 05:45 0,0 °C 0,0 °C 95 % 1005,6 hPa 0,0 mm 0,0 km/h (0 Bft) S 184 ° 0 min 0,000 mm 0,0 UV-I 0 W/m² -0,7 °C 0,0 km/h (0 Bft)
07.11.2016 05:46 0,0 °C 0,0 °C 95 % 1005,6 hPa 0,0 mm 0,0 km/h (0 Bft) S 184 ° 0 min 0,000 mm 0,0 UV-I 0 W/m² -0,7 °C 0,0 km/h (0 Bft)
07.11.2016 05:47 0,0 °C 0,0 °C 95 % 1005,6 hPa 0,0 mm 0,0 km/h (0 Bft) S 184 ° 0 min 0,000 mm 0,0 UV-I 0 W/m² -0,7 °C 0,0 km/h (0 Bft)
07.11.2016 05:48 0,0 °C 0,0 °C 95 % 1005,6 hPa 0,0 mm 0,0 km/h (0 Bft) S 184 ° 0 min 0,000 mm 0,0 UV-I 0 W/m² -0,7 °C 0,0 km/h (0 Bft)
07.11.2016 05:49 0,0 °C 0,0 °C 95 % 1005,6 hPa 0,0 mm 0,0 km/h (0 Bft) S 184 ° 0 min 0,000 mm 0,0 UV-I 0 W/m² -0,7 °C 0,0 km/h (0 Bft)
07.11.2016 05:50 0,0 °C 0,0 °C 95 % 1005,6 hPa 0,0 mm 0,0 km/h (0 Bft) S 184 ° 0 min 0,000 mm 0,0 UV-I 0 W/m² -0,7 °C 0,0 km/h (0 Bft)
07.11.2016 05:51 0,0 °C 0,0 °C 95 % 1005,6 hPa 0,0 mm 0,0 km/h (0 Bft) S 184 ° 0 min 0,000 mm 0,0 UV-I 0 W/m² -0,7 °C 0,0 km/h (0 Bft)
07.11.2016 05:52 0,0 °C 0,0 °C 95 % 1005,6 hPa 0,0 mm 0,0 km/h (0 Bft) S 184 ° 0 min 0,000 mm 0,0 UV-I 0 W/m² -0,7 °C 0,0 km/h (0 Bft)
07.11.2016 05:53 0,0 °C 0,0 °C 95 % 1005,6 hPa 0,0 mm 0,0 km/h (0 Bft) S 184 ° 0 min 0,000 mm 0,0 UV-I 0 W/m² -0,7 °C 0,0 km/h (0 Bft)
07.11.2016 05:54 0,0 °C 0,0 °C 95 % 1005,7 hPa 0,0 mm 0,0 km/h (0 Bft) S 184 ° 0 min 0,000 mm 0,0 UV-I 0 W/m² -0,7 °C 0,0 km/h (0 Bft)
07.11.2016 05:55 0,0 °C 0,0 °C 95 % 1005,7 hPa 0,0 mm 0,0 km/h (0 Bft) S 184 ° 0 min 0,000 mm 0,0 UV-I 0 W/m² -0,7 °C 0,0 km/h (0 Bft)
07.11.2016 05:56 0,0 °C 0,0 °C 95 % 1005,6 hPa 0,0 mm 0,0 km/h (0 Bft) S 184 ° 0 min 0,000 mm 0,0 UV-I 0 W/m² -0,7 °C 0,0 km/h (0 Bft)
07.11.2016 05:57 0,0 °C 0,0 °C 95 % 1005,6 hPa 0,0 mm 0,0 km/h (0 Bft) S 184 ° 0 min 0,000 mm 0,0 UV-I 0 W/m² -0,7 °C 0,0 km/h (0 Bft)
07.11.2016 05:58 0,0 °C 0,0 °C 95 % 1005,6 hPa 0,0 mm 0,0 km/h (0 Bft) S 184 ° 0 min 0,000 mm 0,0 UV-I 0 W/m² -0,7 °C 0,0 km/h (0 Bft)
07.11.2016 05:59 0,0 °C 0,0 °C 95 % 1005,7 hPa 0,0 mm 0,0 km/h (0 Bft) S 184 ° 0 min 0,000 mm 0,0 UV-I 0 W/m² -0,7 °C 0,0 km/h (0 Bft)
07.11.2016 06:00 -0,1 °C 0,0 °C 95 % 1005,7 hPa 0,0 mm 0,0 km/h (0 Bft) S 184 ° 0 min 0,000 mm 0,0 UV-I 0 W/m² -0,8 °C 0,0 km/h (0 Bft)
07.11.2016 06:01 0,0 °C 0,0 °C 95 % 1005,7 hPa 0,0 mm 0,0 km/h (0 Bft) S 184 ° 0 min 0,000 mm 0,0 UV-I 0 W/m² -0,7 °C 0,0 km/h (0 Bft)
07.11.2016 06:02 0,0 °C 0,0 °C 95 % 1005,6 hPa 0,0 mm 0,0 km/h (0 Bft) S 184 ° 0 min 0,000 mm 0,0 UV-I 0 W/m² -0,7 °C 0,0 km/h (0 Bft)
07.11.2016 06:03 0,0 °C 0,0 °C 95 % 1005,6 hPa 0,0 mm 0,0 km/h (0 Bft) S 184 ° 0 min 0,000 mm 0,0 UV-I 0 W/m² -0,7 °C 0,0 km/h (0 Bft)
07.11.2016 06:04 0,0 °C 0,0 °C 95 % 1005,6 hPa 0,0 mm 0,0 km/h (0 Bft) S 184 ° 0 min 0,000 mm 0,0 UV-I 0 W/m² -0,7 °C 0,0 km/h (0 Bft)
07.11.2016 06:05 0,0 °C 0,0 °C 95 % 1005,7 hPa 0,0 mm 0,0 km/h (0 Bft) S 184 ° 0 min 0,000 mm 0,0 UV-I 0 W/m² -0,7 °C 0,0 km/h (0 Bft)
07.11.2016 06:06 0,0 °C 0,0 °C 95 % 1005,6 hPa 0,0 mm 0,0 km/h (0 Bft) S 184 ° 0 min 0,000 mm 0,0 UV-I 0 W/m² -0,7 °C 0,0 km/h (0 Bft)
07.11.2016 06:07 0,0 °C 0,0 °C 95 % 1005,6 hPa 0,0 mm 0,0 km/h (0 Bft) S 184 ° 0 min 0,000 mm 0,0 UV-I 0 W/m² -0,7 °C 0,0 km/h (0 Bft)
07.11.2016 06:08 -0,1 °C 0,0 °C 95 % 1005,7 hPa 0,0 mm 0,0 km/h (0 Bft) S 184 ° 0 min 0,000 mm 0,0 UV-I 0 W/m² -0,8 °C 0,0 km/h (0 Bft)
07.11.2016 06:09 0,0 °C 0,0 °C 95 % 1005,7 hPa 0,0 mm 0,0 km/h (0 Bft) S 184 ° 0 min 0,000 mm 0,0 UV-I 0 W/m² -0,7 °C 0,0 km/h (0 Bft)
07.11.2016 06:10 0,0 °C 0,0 °C 95 % 1005,7 hPa 0,0 mm 0,0 km/h (0 Bft) S 184 ° 0 min 0,000 mm 0,0 UV-I 0 W/m² -0,7 °C 0,0 km/h (0 Bft)
07.11.2016 06:11 0,0 °C 0,0 °C 95 % 1005,6 hPa 0,0 mm 0,0 km/h (0 Bft) S 184 ° 0 min 0,000 mm 0,0 UV-I 0 W/m² -0,7 °C 0,0 km/h (0 Bft)
07.11.2016 06:12 0,0 °C 0,0 °C 95 % 1005,7 hPa 0,0 mm 0,0 km/h (0 Bft) S 184 ° 0 min 0,000 mm 0,0 UV-I 0 W/m² -0,7 °C 0,0 km/h (0 Bft)
07.11.2016 06:13 0,0 °C 0,0 °C 95 % 1005,8 hPa 0,0 mm 0,0 km/h (0 Bft) S 184 ° 0 min 0,000 mm 0,0 UV-I 0 W/m² -0,7 °C 0,0 km/h (0 Bft)
07.11.2016 06:14 0,0 °C 0,0 °C 95 % 1005,7 hPa 0,0 mm 0,0 km/h (0 Bft) S 184 ° 0 min 0,000 mm 0,0 UV-I 0 W/m² -0,7 °C 0,0 km/h (0 Bft)
07.11.2016 06:15 0,0 °C 0,0 °C 95 % 1005,7 hPa 0,0 mm 0,0 km/h (0 Bft) S 184 ° 0 min 0,000 mm 0,0 UV-I 0 W/m² -0,7 °C 0,0 km/h (0 Bft)
07.11.2016 06:16 0,0 °C 0,0 °C 95 % 1005,7 hPa 0,0 mm 0,0 km/h (0 Bft) S 184 ° 0 min 0,000 mm 0,0 UV-I 0 W/m² -0,7 °C 0,0 km/h (0 Bft)
07.11.2016 06:17 0,0 °C 0,0 °C 95 % 1005,7 hPa 0,0 mm 0,0 km/h (0 Bft) S 184 ° 0 min 0,000 mm 0,0 UV-I 0 W/m² -0,7 °C 0,0 km/h (0 Bft)
07.11.2016 06:18 0,0 °C 0,0 °C 95 % 1005,7 hPa 0,0 mm 0,0 km/h (0 Bft) S 184 ° 0 min 0,000 mm 0,0 UV-I 0 W/m² -0,7 °C 0,0 km/h (0 Bft)
07.11.2016 06:19 0,0 °C 0,0 °C 95 % 1005,7 hPa 0,0 mm 0,0 km/h (0 Bft) S 184 ° 0 min 0,000 mm 0,0 UV-I 0 W/m² -0,7 °C 0,0 km/h (0 Bft)
07.11.2016 06:20 0,0 °C 0,1 °C 95 % 1005,7 hPa 0,0 mm 0,0 km/h (0 Bft) S 184 ° 0 min 0,000 mm 0,0 UV-I 0 W/m² -0,7 °C 0,0 km/h (0 Bft)
07.11.2016 06:21 0,0 °C 0,1 °C 95 % 1005,6 hPa 0,0 mm 0,0 km/h (0 Bft) S 184 ° 0 min 0,000 mm 0,0 UV-I 0 W/m² -0,7 °C 0,0 km/h (0 Bft)
07.11.2016 06:22 0,1 °C 0,1 °C 95 % 1005,7 hPa 0,0 mm 0,0 km/h (0 Bft) S 184 ° 0 min 0,000 mm 0,0 UV-I 0 W/m² -0,6 °C 0,0 km/h (0 Bft)
07.11.2016 06:23 0,1 °C 0,1 °C 95 % 1005,7 hPa 0,0 mm 0,0 km/h (0 Bft) S 184 ° 0 min 0,000 mm 0,0 UV-I 0 W/m² -0,6 °C 0,0 km/h (0 Bft)
07.11.2016 06:24 0,1 °C 0,1 °C 95 % 1005,7 hPa 0,0 mm 0,0 km/h (0 Bft) S 184 ° 0 min 0,000 mm 0,0 UV-I 0 W/m² -0,6 °C 0,0 km/h (0 Bft)
07.11.2016 06:25 0,0 °C 0,1 °C 95 % 1005,7 hPa 0,0 mm 0,0 km/h (0 Bft) S 184 ° 0 min 0,000 mm 0,0 UV-I 0 W/m² -0,7 °C 0,0 km/h (0 Bft)
07.11.2016 06:26 0,0 °C 0,1 °C 95 % 1005,7 hPa 0,0 mm 0,0 km/h (0 Bft) S 184 ° 0 min 0,000 mm 0,0 UV-I 0 W/m² -0,7 °C 0,0 km/h (0 Bft)
07.11.2016 06:27 0,0 °C 0,1 °C 95 % 1005,7 hPa 0,0 mm 0,0 km/h (0 Bft) S 184 ° 0 min 0,000 mm 0,0 UV-I 0 W/m² -0,7 °C 0,0 km/h (0 Bft)
07.11.2016 06:28 0,1 °C 0,1 °C 95 % 1005,7 hPa 0,0 mm 0,0 km/h (0 Bft) S 184 ° 0 min 0,000 mm 0,0 UV-I 0 W/m² -0,6 °C 0,0 km/h (0 Bft)
07.11.2016 06:29 0,1 °C 0,1 °C 95 % 1005,6 hPa 0,0 mm 0,5 km/h (0 Bft) S 184 ° 0 min 0,000 mm 0,0 UV-I 0 W/m² -0,6 °C 3,2 km/h (1 Bft)
07.11.2016 06:30 0,1 °C 0,1 °C 95 % 1005,6 hPa 0,0 mm 2,6 km/h (1 Bft) S-SO 161 ° 0 min 0,000 mm 0,0 UV-I 0 W/m² -0,6 °C 3,2 km/h (1 Bft)
07.11.2016 06:31 0,1 °C 0,1 °C 95 % 1005,6 hPa 0,0 mm 2,3 km/h (1 Bft) S-SO 161 ° 0 min 0,000 mm 0,0 UV-I 0 W/m² -0,6 °C 3,2 km/h (1 Bft)
07.11.2016 06:32 0,1 °C 0,1 °C 95 % 1005,6 hPa 0,0 mm 1,0 km/h (0 Bft) S-SO 161 ° 0 min 0,000 mm 0,0 UV-I 0 W/m² -0,6 °C 1,6 km/h (1 Bft)
07.11.2016 06:33 0,1 °C 0,1 °C 95 % 1005,7 hPa 0,0 mm 0,0 km/h (0 Bft) S-SO 161 ° 0 min 0,000 mm 0,0 UV-I 0 W/m² -0,6 °C 0,0 km/h (0 Bft)
07.11.2016 06:34 0,1 °C 0,1 °C 95 % 1005,7 hPa 0,0 mm 0,8 km/h (0 Bft) SW 225 ° 0 min 0,000 mm 0,0 UV-I 0 W/m² -0,6 °C 3,2 km/h (1 Bft)
07.11.2016 06:35 0,1 °C 0,1 °C 95 % 1005,8 hPa 0,0 mm 3,8 km/h (1 Bft) W 277 ° 0 min 0,000 mm 0,0 UV-I 0 W/m² -0,6 °C 4,8 km/h (1 Bft)
07.11.2016 06:36 0,1 °C 0,1 °C 95 % 1005,9 hPa 0,0 mm 3,5 km/h (1 Bft) W 277 ° 0 min 0,000 mm 0,0 UV-I 0 W/m² -0,6 °C 4,8 km/h (1 Bft)
07.11.2016 06:37 0,2 °C 0,2 °C 95 % 1006,0 hPa 0,0 mm 2,9 km/h (1 Bft) W 277 ° 0 min 0,000 mm 0,0 UV-I 0 W/m² -0,5 °C 6,4 km/h (2 Bft)
07.11.2016 06:38 0,2 °C 0,2 °C 96 % 1006,1 hPa 0,0 mm 4,0 km/h (1 Bft) W-NW 288 ° 0 min 0,000 mm 0,0 UV-I 0 W/m² -0,4 °C 6,4 km/h (2 Bft)
07.11.2016 06:39 0,1 °C 0,2 °C 95 % 1006,1 hPa 0,0 mm 4,4 km/h (1 Bft) W 267 ° 0 min 0,000 mm 0,0 UV-I 0 W/m² -0,6 °C 8,0 km/h (2 Bft)
07.11.2016 06:40 0,2 °C 0,2 °C 95 % 1006,0 hPa 0,0 mm 1,0 km/h (0 Bft) W 267 ° 0 min 0,000 mm 0,0 UV-I 0 W/m² -0,5 °C 3,2 km/h (1 Bft)
07.11.2016 06:41 0,2 °C 0,2 °C 95 % 1006,0 hPa 0,0 mm 0,1 km/h (0 Bft) W 267 ° 0 min 0,000 mm 0,0 UV-I 0 W/m² -0,5 °C 1,6 km/h (1 Bft)
07.11.2016 06:42 0,2 °C 0,2 °C 95 % 1006,0 hPa 0,0 mm 0,5 km/h (0 Bft) W 268 ° 0 min 0,000 mm 0,0 UV-I 0 W/m² -0,5 °C 1,6 km/h (1 Bft)
07.11.2016 06:43 0,2 °C 0,2 °C 95 % 1006,0 hPa 0,0 mm 2,7 km/h (1 Bft) W 276 ° 0 min 0,000 mm 0,0 UV-I 0 W/m² -0,5 °C 4,8 km/h (1 Bft)
07.11.2016 06:44 0,2 °C 0,2 °C 95 % 1006,0 hPa 0,0 mm 1,0 km/h (0 Bft) W 276 ° 0 min 0,000 mm 0,0 UV-I 0 W/m² -0,5 °C 3,2 km/h (1 Bft)
07.11.2016 06:45 0,2 °C 0,2 °C 95 % 1006,0 hPa 0,0 mm 0,0 km/h (0 Bft) W 276 ° 0 min 0,000 mm 0,0 UV-I 0 W/m² -0,5 °C 0,0 km/h (0 Bft)
07.11.2016 06:46 0,2 °C 0,2 °C 95 % 1006,0 hPa 0,0 mm 0,1 km/h (0 Bft) W 276 ° 0 min 0,000 mm 0,0 UV-I 0 W/m² -0,5 °C 1,6 km/h (1 Bft)
07.11.2016 06:47 0,2 °C 0,2 °C 95 % 1006,0 hPa 0,0 mm 0,2 km/h (0 Bft) W 276 ° 0 min 0,000 mm 0,0 UV-I 0 W/m² -0,5 °C 1,6 km/h (1 Bft)
07.11.2016 06:48 0,2 °C 0,2 °C 95 % 1005,9 hPa 0,0 mm 0,0 km/h (0 Bft) W 276 ° 0 min 0,000 mm 0,0 UV-I 0 W/m² -0,5 °C 0,0 km/h (0 Bft)
07.11.2016 06:49 0,2 °C 0,2 °C 95 % 1005,9 hPa 0,0 mm 0,0 km/h (0 Bft) W 276 ° 0 min 0,000 mm 0,0 UV-I 0 W/m² -0,5 °C 0,0 km/h (0 Bft)
07.11.2016 06:50 0,2 °C 0,2 °C 95 % 1005,9 hPa 0,0 mm 1,1 km/h (1 Bft) W 276 ° 0 min 0,000 mm 0,0 UV-I 0 W/m² -0,5 °C 1,6 km/h (1 Bft)
07.11.2016 06:51 0,2 °C 0,2 °C 95 % 1005,8 hPa 0,0 mm 1,6 km/h (1 Bft) W 276 ° 0 min 0,000 mm 0,0 UV-I 0 W/m² -0,5 °C 1,6 km/h (1 Bft)
07.11.2016 06:52 0,2 °C 0,2 °C 95 % 1005,9 hPa 0,0 mm 1,0 km/h (0 Bft) W 276 ° 0 min 0,000 mm 0,0 UV-I 0 W/m² -0,5 °C 1,6 km/h (1 Bft)
07.11.2016 06:53 0,2 °C 0,2 °C 95 % 1005,9 hPa 0,0 mm 0,1 km/h (0 Bft) W 276 ° 0 min 0,000 mm 0,0 UV-I 0 W/m² -0,5 °C 1,6 km/h (1 Bft)
07.11.2016 06:54 0,2 °C 0,2 °C 95 % 1005,9 hPa 0,0 mm 0,0 km/h (0 Bft) W 276 ° 0 min 0,000 mm 0,0 UV-I 0 W/m² -0,5 °C 0,0 km/h (0 Bft)
07.11.2016 06:55 0,2 °C 0,2 °C 95 % 1005,9 hPa 0,0 mm 0,0 km/h (0 Bft) W 276 ° 0 min 0,000 mm 0,0 UV-I 0 W/m² -0,5 °C 0,0 km/h (0 Bft)
07.11.2016 06:56 0,2 °C 0,2 °C 95 % 1005,9 hPa 0,0 mm 0,8 km/h (0 Bft) W 276 ° 0 min 0,000 mm 0,0 UV-I 0 W/m² -0,5 °C 1,6 km/h (1 Bft)
07.11.2016 06:57 0,2 °C 0,2 °C 95 % 1005,9 hPa 0,0 mm 1,3 km/h (1 Bft) W 276 ° 0 min 0,000 mm 0,0 UV-I 0 W/m² -0,5 °C 3,2 km/h (1 Bft)
07.11.2016 06:58 0,2 °C 0,2 °C 95 % 1005,9 hPa 0,0 mm 1,4 km/h (1 Bft) W 276 ° 0 min 0,000 mm 0,0 UV-I 0 W/m² -0,5 °C 3,2 km/h (1 Bft)
07.11.2016 06:59 0,2 °C 0,2 °C 95 % 1005,9 hPa 0,0 mm 2,2 km/h (1 Bft) W 265 ° 0 min 0,000 mm 0,0 UV-I 0 W/m² -0,5 °C 3,2 km/h (1 Bft)
07.11.2016 07:00 0,2 °C 0,2 °C 95 % 1005,9 hPa 0,0 mm 0,9 km/h (0 Bft) W 265 ° 0 min 0,000 mm 0,0 UV-I 0 W/m² -0,5 °C 3,2 km/h (1 Bft)
07.11.2016 07:01 0,2 °C 0,2 °C 95 % 1005,9 hPa 0,0 mm 0,7 km/h (0 Bft) W 265 ° 0 min 0,000 mm 0,0 UV-I 0 W/m² -0,5 °C 1,6 km/h (1 Bft)
07.11.2016 07:02 0,2 °C 0,2 °C 95 % 1005,9 hPa 0,0 mm 0,8 km/h (0 Bft) W 265 ° 0 min 0,000 mm 0,0 UV-I 0 W/m² -0,5 °C 1,6 km/h (1 Bft)
07.11.2016 07:03 0,2 °C 0,2 °C 95 % 1006,0 hPa 0,0 mm 0,8 km/h (0 Bft) W 265 ° 0 min 0,000 mm 0,0 UV-I 0 W/m² -0,5 °C 1,6 km/h (1 Bft)
07.11.2016 07:04 0,2 °C 0,2 °C 95 % 1006,0 hPa 0,0 mm 0,0 km/h (0 Bft) W 265 ° 0 min 0,000 mm 0,0 UV-I 0 W/m² -0,5 °C 0,0 km/h (0 Bft)
07.11.2016 07:05 0,2 °C 0,2 °C 95 % 1006,0 hPa 0,0 mm 0,0 km/h (0 Bft) W 265 ° 0 min 0,000 mm 0,0 UV-I 0 W/m² -0,5 °C 0,0 km/h (0 Bft)
07.11.2016 07:06 0,2 °C 0,2 °C 95 % 1006,0 hPa 0,0 mm 0,4 km/h (0 Bft) W 265 ° 0 min 0,000 mm 0,0 UV-I 0 W/m² -0,5 °C 1,6 km/h (1 Bft)
07.11.2016 07:07 0,2 °C 0,2 °C 95 % 1006,1 hPa 0,0 mm 0,0 km/h (0 Bft) W 265 ° 0 min 0,000 mm 0,0 UV-I 0 W/m² -0,5 °C 0,0 km/h (0 Bft)
07.11.2016 07:08 0,2 °C 0,2 °C 95 % 1006,1 hPa 0,0 mm 0,6 km/h (0 Bft) W 259 ° 0 min 0,000 mm 0,0 UV-I 0 W/m² -0,5 °C 4,8 km/h (1 Bft)
07.11.2016 07:09 0,2 °C 0,2 °C 95 % 1006,1 hPa 0,0 mm 1,4 km/h (1 Bft) W 259 ° 0 min 0,000 mm 0,0 UV-I 0 W/m² -0,5 °C 3,2 km/h (1 Bft)
07.11.2016 07:10 0,2 °C 0,2 °C 95 % 1006,2 hPa 0,0 mm 0,9 km/h (0 Bft) W 259 ° 0 min 0,000 mm 0,0 UV-I 0 W/m² -0,5 °C 1,6 km/h (1 Bft)
07.11.2016 07:11 0,2 °C 0,2 °C 95 % 1006,2 hPa 0,0 mm 0,9 km/h (0 Bft) W 259 ° 0 min 0,000 mm 0,0 UV-I 0 W/m² -0,5 °C 1,6 km/h (1 Bft)
07.11.2016 07:12 0,2 °C 0,2 °C 95 % 1006,2 hPa 0,0 mm 1,3 km/h (1 Bft) W 259 ° 0 min 0,000 mm 0,0 UV-I 0 W/m² -0,5 °C 3,2 km/h (1 Bft)
07.11.2016 07:13 0,2 °C 0,2 °C 95 % 1006,2 hPa 0,0 mm 0,0 km/h (0 Bft) W 259 ° 0 min 0,000 mm 0,0 UV-I 0 W/m² -0,5 °C 0,0 km/h (0 Bft)
07.11.2016 07:14 0,2 °C 0,2 °C 95 % 1006,2 hPa 0,0 mm 0,0 km/h (0 Bft) W 259 ° 0 min 0,000 mm 0,0 UV-I 0 W/m² -0,5 °C 0,0 km/h (0 Bft)
07.11.2016 07:15 0,2 °C 0,2 °C 95 % 1006,3 hPa 0,0 mm 0,0 km/h (0 Bft) W 259 ° 0 min 0,000 mm 0,0 UV-I 0 W/m² -0,5 °C 0,0 km/h (0 Bft)
07.11.2016 07:16 0,2 °C 0,2 °C 95 % 1006,2 hPa 0,0 mm 0,1 km/h (0 Bft) W 259 ° 0 min 0,000 mm 0,0 UV-I 0 W/m² -0,5 °C 1,6 km/h (1 Bft)
07.11.2016 07:17 0,2 °C 0,2 °C 96 % 1006,3 hPa 0,0 mm 0,1 km/h (0 Bft) W 259 ° 0 min 0,000 mm 0,0 UV-I 0 W/m² -0,4 °C 1,6 km/h (1 Bft)
07.11.2016 07:18 0,2 °C 0,2 °C 96 % 1006,2 hPa 0,0 mm 1,5 km/h (1 Bft) W 259 ° 0 min 0,000 mm 0,0 UV-I 0 W/m² -0,4 °C 1,6 km/h (1 Bft)
07.11.2016 07:19 0,2 °C 0,2 °C 96 % 1006,3 hPa 0,0 mm 1,9 km/h (1 Bft) W 259 ° 0 min 0,000 mm 0,0 UV-I 0 W/m² -0,4 °C 3,2 km/h (1 Bft)
07.11.2016 07:20 0,2 °C 0,2 °C 96 % 1006,3 hPa 0,0 mm 2,3 km/h (1 Bft) W 259 ° 0 min 0,000 mm 0,0 UV-I 0 W/m² -0,4 °C 3,2 km/h (1 Bft)
07.11.2016 07:21 0,2 °C 0,3 °C 96 % 1006,3 hPa 0,0 mm 2,3 km/h (1 Bft) W 259 ° 0 min 0,000 mm 0,0 UV-I 0 W/m² -0,4 °C 3,2 km/h (1 Bft)
07.11.2016 07:22 0,2 °C 0,2 °C 96 % 1006,4 hPa 0,0 mm 2,2 km/h (1 Bft) W 259 ° 0 min 0,000 mm 0,0 UV-I 0 W/m² -0,4 °C 3,2 km/h (1 Bft)
07.11.2016 07:23 0,2 °C 0,3 °C 95 % 1006,4 hPa 0,0 mm 2,3 km/h (1 Bft) W 259 ° 0 min 0,000 mm 0,0 UV-I 0 W/m² -0,5 °C 3,2 km/h (1 Bft)
07.11.2016 07:24 0,2 °C 0,3 °C 96 % 1006,4 hPa 0,0 mm 2,9 km/h (1 Bft) W 259 ° 0 min 0,000 mm 0,0 UV-I 0 W/m² -0,4 °C 4,8 km/h (1 Bft)
07.11.2016 07:25 0,3 °C 0,3 °C 96 % 1006,5 hPa 0,0 mm 3,4 km/h (1 Bft) W 259 ° 0 min 0,000 mm 0,0 UV-I 0 W/m² -0,3 °C 4,8 km/h (1 Bft)
07.11.2016 07:26 0,3 °C 0,3 °C 96 % 1006,5 hPa 0,0 mm 1,9 km/h (1 Bft) W 259 ° 0 min 0,000 mm 0,0 UV-I 0 W/m² -0,3 °C 3,2 km/h (1 Bft)
07.11.2016 07:27 0,3 °C 0,3 °C 96 % 1006,5 hPa 0,0 mm 1,2 km/h (1 Bft) W 259 ° 0 min 0,000 mm 0,0 UV-I 0 W/m² -0,3 °C 3,2 km/h (1 Bft)
07.11.2016 07:28 0,3 °C 0,3 °C 96 % 1006,4 hPa 0,0 mm 2,7 km/h (1 Bft) W 259 ° 0 min 0,000 mm 0,0 UV-I 0 W/m² -0,3 °C 4,8 km/h (1 Bft)
07.11.2016 07:29 0,3 °C 0,3 °C 96 % 1006,4 hPa 0,0 mm 2,3 km/h (1 Bft) W 259 ° 0 min 0,000 mm 0,0 UV-I 0 W/m² -0,3 °C 3,2 km/h (1 Bft)
07.11.2016 07:30 0,3 °C 0,3 °C 96 % 1006,4 hPa 0,0 mm 0,7 km/h (0 Bft) W 259 ° 0 min 0,000 mm 0,0 UV-I 0 W/m² -0,3 °C 1,6 km/h (1 Bft)
07.11.2016 07:31 0,3 °C 0,3 °C 96 % 1006,4 hPa 0,0 mm 2,7 km/h (1 Bft) W 272 ° 0 min 0,000 mm 0,0 UV-I 5 W/m² -0,3 °C 6,4 km/h (2 Bft)
07.11.2016 07:32 0,3 °C 0,3 °C 96 % 1006,5 hPa 0,0 mm 4,2 km/h (1 Bft) SW 221 ° 0 min 0,000 mm 0,0 UV-I 5 W/m² -0,3 °C 4,8 km/h (1 Bft)
07.11.2016 07:33 0,3 °C 0,3 °C 96 % 1006,4 hPa 0,0 mm 3,9 km/h (1 Bft) W-SW 253 ° 0 min 0,000 mm 0,0 UV-I 5 W/m² -0,3 °C 6,4 km/h (2 Bft)
07.11.2016 07:34 0,3 °C 0,3 °C 96 % 1006,4 hPa 0,0 mm 4,0 km/h (1 Bft) SW 214 ° 0 min 0,000 mm 0,0 UV-I 5 W/m² -0,3 °C 6,4 km/h (2 Bft)
07.11.2016 07:35 0,3 °C 0,3 °C 96 % 1006,5 hPa 0,0 mm 3,4 km/h (1 Bft) SW 221 ° 0 min 0,000 mm 0,0 UV-I 5 W/m² -0,3 °C 4,8 km/h (1 Bft)
07.11.2016 07:36 0,3 °C 0,3 °C 96 % 1006,5 hPa 0,0 mm 5,4 km/h (1 Bft) W-SW 245 ° 0 min 0,000 mm 0,0 UV-I 5 W/m² -0,3 °C 8,0 km/h (2 Bft)
07.11.2016 07:37 0,3 °C 0,3 °C 96 % 1006,5 hPa 0,0 mm 3,4 km/h (1 Bft) W 265 ° 0 min 0,000 mm 0,0 UV-I 5 W/m² -0,3 °C 4,8 km/h (1 Bft)
07.11.2016 07:38 0,3 °C 0,3 °C 96 % 1006,5 hPa 0,0 mm 4,8 km/h (1 Bft) SW 227 ° 0 min 0,000 mm 0,0 UV-I 5 W/m² -0,3 °C 6,4 km/h (2 Bft)
07.11.2016 07:39 0,3 °C 0,3 °C 96 % 1006,5 hPa 0,0 mm 6,0 km/h (2 Bft) W-SW 241 ° 0 min 0,000 mm 0,0 UV-I 5 W/m² -0,3 °C 12,9 km/h (3 Bft)
07.11.2016 07:40 0,3 °C 0,3 °C 96 % 1006,5 hPa 0,0 mm 6,9 km/h (2 Bft) S-SW 196 ° 0 min 0,000 mm 0,0 UV-I 5 W/m² -0,3 °C 11,3 km/h (2 Bft)
07.11.2016 07:41 0,3 °C 0,3 °C 96 % 1006,5 hPa 0,0 mm 8,0 km/h (2 Bft) S 176 ° 0 min 0,000 mm 0,0 UV-I 7 W/m² -0,3 °C 11,3 km/h (2 Bft)
07.11.2016 07:42 0,3 °C 0,3 °C 96 % 1006,5 hPa 0,0 mm 8,1 km/h (2 Bft) W-SW 245 ° 0 min 0,000 mm 0,0 UV-I 11 W/m² -0,3 °C 12,9 km/h (3 Bft)
07.11.2016 07:43 0,3 °C 0,3 °C 96 % 1006,5 hPa 0,0 mm 4,9 km/h (1 Bft) W-SW 251 ° 0 min 0,000 mm 0,0 UV-I 11 W/m² -0,3 °C 8,0 km/h (2 Bft)
07.11.2016 07:44 0,3 °C 0,3 °C 96 % 1006,6 hPa 0,0 mm 3,6 km/h (1 Bft) S-SW 200 ° 0 min 0,000 mm 0,0 UV-I 11 W/m² -0,3 °C 6,4 km/h (2 Bft)
07.11.2016 07:45 0,3 °C 0,3 °C 96 % 1006,5 hPa 0,0 mm 4,3 km/h (1 Bft) S 186 ° 0 min 0,000 mm 0,0 UV-I 12 W/m² -0,3 °C 8,0 km/h (2 Bft)
07.11.2016 07:46 0,3 °C 0,3 °C 96 % 1006,5 hPa 0,0 mm 5,8 km/h (2 Bft) S 184 ° 0 min 0,000 mm 0,0 UV-I 12 W/m² -0,3 °C 8,0 km/h (2 Bft)
07.11.2016 07:47 0,3 °C 0,3 °C 96 % 1006,5 hPa 0,0 mm 6,1 km/h (2 Bft) W 263 ° 0 min 0,000 mm 0,0 UV-I 12 W/m² -0,3 °C 12,9 km/h (3 Bft)
07.11.2016 07:48 0,3 °C 0,3 °C 96 % 1006,5 hPa 0,0 mm 5,8 km/h (2 Bft) W-SW 244 ° 0 min 0,000 mm 0,0 UV-I 12 W/m² -0,3 °C 11,3 km/h (2 Bft)
07.11.2016 07:49 0,3 °C 0,3 °C 96 % 1006,6 hPa 0,0 mm 3,1 km/h (1 Bft) S-SW 211 ° 0 min 0,000 mm 0,0 UV-I 12 W/m² -0,3 °C 4,8 km/h (1 Bft)
07.11.2016 07:50 0,3 °C 0,3 °C 96 % 1006,5 hPa 0,0 mm 3,4 km/h (1 Bft) SW 218 ° 0 min 0,000 mm 0,0 UV-I 14 W/m² -0,3 °C 4,8 km/h (1 Bft)
07.11.2016 07:51 0,3 °C 0,3 °C 96 % 1006,5 hPa 0,0 mm 2,6 km/h (1 Bft) SW 227 ° 0 min 0,000 mm 0,0 UV-I 14 W/m² -0,3 °C 3,2 km/h (1 Bft)
07.11.2016 07:52 0,3 °C 0,3 °C 96 % 1006,6 hPa 0,0 mm 3,2 km/h (1 Bft) W-SW 254 ° 0 min 0,000 mm 0,0 UV-I 16 W/m² -0,3 °C 4,8 km/h (1 Bft)
07.11.2016 07:53 0,3 °C 0,3 °C 96 % 1006,6 hPa 0,0 mm 2,5 km/h (1 Bft) W 264 ° 0 min 0,000 mm 0,0 UV-I 16 W/m² -0,3 °C 4,8 km/h (1 Bft)
07.11.2016 07:54 0,3 °C 0,4 °C 96 % 1006,6 hPa 0,0 mm 3,5 km/h (1 Bft) W 260 ° 0 min 0,000 mm 0,0 UV-I 18 W/m² -0,3 °C 11,3 km/h (2 Bft)
07.11.2016 07:55 0,3 °C 0,4 °C 96 % 1006,6 hPa 0,0 mm 8,4 km/h (2 Bft) SW 236 ° 0 min 0,000 mm 0,0 UV-I 18 W/m² -0,3 °C 12,9 km/h (3 Bft)
07.11.2016 07:56 0,4 °C 0,4 °C 95 % 1006,6 hPa 0,0 mm 8,1 km/h (2 Bft) SW 230 ° 0 min 0,000 mm 0,0 UV-I 19 W/m² -0,3 °C 11,3 km/h (2 Bft)
07.11.2016 07:57 0,3 °C 0,4 °C 95 % 1006,7 hPa 0,0 mm 2,8 km/h (1 Bft) SW 224 ° 0 min 0,000 mm 0,0 UV-I 21 W/m² -0,4 °C 4,8 km/h (1 Bft)
07.11.2016 07:58 0,4 °C 0,4 °C 95 % 1006,7 hPa 0,0 mm 4,5 km/h (1 Bft) S-SW 213 ° 0 min 0,000 mm 0,0 UV-I 21 W/m² -0,3 °C 6,4 km/h (2 Bft)
07.11.2016 07:59 0,4 °C 0,4 °C 95 % 1006,6 hPa 0,0 mm 3,2 km/h (1 Bft) W 263 ° 0 min 0,000 mm 0,0 UV-I 21 W/m² -0,3 °C 6,4 km/h (2 Bft)
07.11.2016 08:00 0,4 °C 0,4 °C 95 % 1006,7 hPa 0,0 mm 2,1 km/h (1 Bft) W 268 ° 0 min 0,000 mm 0,0 UV-I 23 W/m² -0,3 °C 4,8 km/h (1 Bft)
07.11.2016 08:01 0,4 °C 0,4 °C 95 % 1006,7 hPa 0,0 mm 4,7 km/h (1 Bft) W 275 ° 0 min 0,000 mm 0,0 UV-I 23 W/m² -0,3 °C 6,4 km/h (2 Bft)
07.11.2016 08:02 0,4 °C 0,4 °C 95 % 1006,7 hPa 0,0 mm 5,6 km/h (1 Bft) W-SW 239 ° 0 min 0,000 mm 0,0 UV-I 23 W/m² -0,3 °C 9,7 km/h (2 Bft)
07.11.2016 08:03 0,4 °C 0,4 °C 95 % 1006,7 hPa 0,0 mm 4,8 km/h (1 Bft) W-SW 255 ° 0 min 0,000 mm 0,0 UV-I 23 W/m² -0,3 °C 8,0 km/h (2 Bft)
07.11.2016 08:04 0,4 °C 0,4 °C 95 % 1006,8 hPa 0,0 mm 3,3 km/h (1 Bft) W 261 ° 0 min 0,000 mm 0,0 UV-I 25 W/m² -0,3 °C 4,8 km/h (1 Bft)
07.11.2016 08:05 0,4 °C 0,4 °C 95 % 1006,8 hPa 0,0 mm 2,9 km/h (1 Bft) W 262 ° 0 min 0,000 mm 0,0 UV-I 25 W/m² -0,3 °C 4,8 km/h (1 Bft)
07.11.2016 08:06 0,4 °C 0,4 °C 95 % 1006,8 hPa 0,0 mm 4,9 km/h (1 Bft) W 263 ° 0 min 0,000 mm 0,0 UV-I 25 W/m² -0,3 °C 9,7 km/h (2 Bft)
07.11.2016 08:07 0,4 °C 0,4 °C 95 % 1006,8 hPa 0,0 mm 3,3 km/h (1 Bft) W 261 ° 0 min 0,000 mm 0,0 UV-I 25 W/m² -0,3 °C 4,8 km/h (1 Bft)
07.11.2016 08:08 0,4 °C 0,4 °C 95 % 1006,9 hPa 0,0 mm 5,9 km/h (2 Bft) W 281 ° 0 min 0,000 mm 0,0 UV-I 25 W/m² -0,3 °C 9,7 km/h (2 Bft)
07.11.2016 08:09 0,4 °C 0,4 °C 95 % 1006,9 hPa 0,0 mm 6,7 km/h (2 Bft) W 267 ° 0 min 0,000 mm 0,0 UV-I 25 W/m² -0,3 °C 11,3 km/h (2 Bft)
07.11.2016 08:10 0,4 °C 0,4 °C 95 % 1006,8 hPa 0,2 mm 7,2 km/h (2 Bft) W-SW 238 ° 0 min 0,000 mm 0,0 UV-I 21 W/m² -0,3 °C 11,3 km/h (2 Bft)
07.11.2016 08:11 0,4 °C 0,4 °C 95 % 1006,9 hPa 0,0 mm 7,2 km/h (2 Bft) W-NW 288 ° 0 min 0,000 mm 0,0 UV-I 21 W/m² -0,3 °C 9,7 km/h (2 Bft)
07.11.2016 08:12 0,4 °C 0,4 °C 95 % 1006,9 hPa 0,0 mm 2,8 km/h (1 Bft) W-NW 282 ° 0 min 0,000 mm 0,0 UV-I 21 W/m² -0,3 °C 4,8 km/h (1 Bft)
07.11.2016 08:13 0,4 °C 0,4 °C 95 % 1006,9 hPa 0,0 mm 2,9 km/h (1 Bft) W-SW 244 ° 0 min 0,000 mm 0,0 UV-I 19 W/m² -0,3 °C 3,2 km/h (1 Bft)
07.11.2016 08:14 0,4 °C 0,4 °C 94 % 1006,9 hPa 0,0 mm 1,9 km/h (1 Bft) W-SW 254 ° 0 min 0,000 mm 0,0 UV-I 19 W/m² -0,5 °C 3,2 km/h (1 Bft)
07.11.2016 08:15 0,4 °C 0,4 °C 94 % 1006,9 hPa 0,0 mm 3,4 km/h (1 Bft) W 260 ° 0 min 0,000 mm 0,0 UV-I 18 W/m² -0,5 °C 4,8 km/h (1 Bft)
07.11.2016 08:16 0,5 °C 0,5 °C 94 % 1007,0 hPa 0,0 mm 2,2 km/h (1 Bft) W 259 ° 0 min 0,000 mm 0,0 UV-I 16 W/m² -0,4 °C 3,2 km/h (1 Bft)
07.11.2016 08:17 0,5 °C 0,5 °C 94 % 1007,0 hPa 0,0 mm 1,7 km/h (1 Bft) SW 233 ° 0 min 0,000 mm 0,0 UV-I 16 W/m² -0,4 °C 3,2 km/h (1 Bft)
07.11.2016 08:18 0,5 °C 0,5 °C 94 % 1007,0 hPa 0,0 mm 8,0 km/h (2 Bft) W-SW 241 ° 0 min 0,000 mm 0,0 UV-I 14 W/m² -0,4 °C 14,5 km/h (3 Bft)
07.11.2016 08:19 0,4 °C 0,5 °C 94 % 1007,1 hPa 0,0 mm 5,8 km/h (2 Bft) W-SW 257 ° 0 min 0,000 mm 0,0 UV-I 14 W/m² -0,5 °C 8,0 km/h (2 Bft)
07.11.2016 08:20 0,5 °C 0,5 °C 94 % 1007,1 hPa 0,0 mm 6,2 km/h (2 Bft) W-NW 283 ° 0 min 0,000 mm 0,0 UV-I 16 W/m² -0,4 °C 9,7 km/h (2 Bft)
07.11.2016 08:21 0,5 °C 0,5 °C 94 % 1007,1 hPa 0,0 mm 12,1 km/h (2 Bft) W 277 ° 0 min 0,000 mm 0,0 UV-I 19 W/m² -0,4 °C 19,3 km/h (3 Bft)
07.11.2016 08:22 0,5 °C 0,5 °C 94 % 1007,1 hPa 0,0 mm 10,9 km/h (2 Bft) W-NW 286 ° 0 min 0,000 mm 0,0 UV-I 25 W/m² -0,4 °C 16,1 km/h (3 Bft)
07.11.2016 08:23 0,5 °C 0,5 °C 94 % 1007,2 hPa 0,0 mm 10,1 km/h (2 Bft) W-NW 288 ° 0 min 0,000 mm 0,0 UV-I 26 W/m² -0,4 °C 19,3 km/h (3 Bft)
07.11.2016 08:24 0,4 °C 0,6 °C 94 % 1007,2 hPa 0,0 mm 12,5 km/h (3 Bft) W-NW 292 ° 0 min 0,000 mm 0,0 UV-I 30 W/m² -0,5 °C 19,3 km/h (3 Bft)
07.11.2016 08:25 0,5 °C 0,5 °C 93 % 1007,2 hPa 0,0 mm 6,2 km/h (2 Bft) W 261 ° 0 min 0,000 mm 0,0 UV-I 33 W/m² -0,5 °C 8,0 km/h (2 Bft)
07.11.2016 08:26 0,5 °C 0,6 °C 93 % 1007,3 hPa 0,0 mm 10,1 km/h (2 Bft) W-SW 248 ° 0 min 0,000 mm 0,0 UV-I 33 W/m² -0,5 °C 16,1 km/h (3 Bft)
07.11.2016 08:27 0,5 °C 0,5 °C 93 % 1007,3 hPa 0,0 mm 8,8 km/h (2 Bft) W-SW 252 ° 0 min 0,000 mm 0,0 UV-I 32 W/m² -0,5 °C 16,1 km/h (3 Bft)
07.11.2016 08:28 0,5 °C 0,5 °C 93 % 1007,3 hPa 0,0 mm 5,8 km/h (2 Bft) W 273 ° 0 min 0,000 mm 0,0 UV-I 30 W/m² -0,5 °C 9,7 km/h (2 Bft)
07.11.2016 08:29 0,5 °C 0,5 °C 93 % 1007,4 hPa 0,0 mm 10,5 km/h (2 Bft) W-SW 252 ° 0 min 0,000 mm 0,0 UV-I 28 W/m² -0,5 °C 14,5 km/h (3 Bft)
07.11.2016 08:30 0,5 °C 0,5 °C 93 % 1007,3 hPa 0,0 mm 5,9 km/h (2 Bft) SW 221 ° 0 min 0,000 mm 0,0 UV-I 28 W/m² -0,5 °C 11,3 km/h (2 Bft)
07.11.2016 08:31 0,5 °C 0,5 °C 93 % 1007,4 hPa 0,0 mm 5,4 km/h (1 Bft) W-SW 258 ° 0 min 0,000 mm 0,0 UV-I 26 W/m² -0,5 °C 9,7 km/h (2 Bft)
07.11.2016 08:32 0,5 °C 0,5 °C 93 % 1007,4 hPa 0,0 mm 8,7 km/h (2 Bft) W-SW 246 ° 0 min 0,000 mm 0,0 UV-I 26 W/m² -0,5 °C 14,5 km/h (3 Bft)
07.11.2016 08:33 0,5 °C 0,5 °C 93 % 1007,4 hPa 0,0 mm 4,8 km/h (1 Bft) W-SW 245 ° 0 min 0,000 mm 0,0 UV-I 26 W/m² -0,5 °C 11,3 km/h (2 Bft)
07.11.2016 08:34 0,5 °C 0,5 °C 93 % 1007,5 hPa 0,0 mm 8,4 km/h (2 Bft) W-NW 293 ° 0 min 0,000 mm 0,0 UV-I 25 W/m² -0,5 °C 12,9 km/h (3 Bft)
07.11.2016 08:35 0,5 °C 0,5 °C 93 % 1007,5 hPa 0,0 mm 4,9 km/h (1 Bft) NW 306 ° 0 min 0,000 mm 0,0 UV-I 25 W/m² -0,5 °C 11,3 km/h (2 Bft)
07.11.2016 08:36 0,4 °C 0,5 °C 93 % 1007,5 hPa 0,0 mm 7,6 km/h (2 Bft) W 273 ° 0 min 0,000 mm 0,0 UV-I 25 W/m² -0,6 °C 11,3 km/h (2 Bft)
07.11.2016 08:37 0,5 °C 0,5 °C 93 % 1007,6 hPa 0,0 mm 5,2 km/h (1 Bft) S-SW 200 ° 0 min 0,000 mm 0,0 UV-I 23 W/m² -0,5 °C 9,7 km/h (2 Bft)
07.11.2016 08:38 0,5 °C 0,5 °C 93 % 1007,6 hPa 0,0 mm 4,1 km/h (1 Bft) W-SW 252 ° 0 min 0,000 mm 0,0 UV-I 23 W/m² -0,5 °C 6,4 km/h (2 Bft)
07.11.2016 08:39 0,5 °C 0,5 °C 93 % 1007,6 hPa 0,0 mm 6,4 km/h (2 Bft) W 259 ° 0 min 0,000 mm 0,0 UV-I 19 W/m² -0,5 °C 11,3 km/h (2 Bft)
07.11.2016 08:40 0,5 °C 0,5 °C 93 % 1007,6 hPa 0,0 mm 8,7 km/h (2 Bft) SW 226 ° 0 min 0,000 mm 0,0 UV-I 18 W/m² -0,5 °C 12,9 km/h (3 Bft)
07.11.2016 08:41 0,4 °C 0,5 °C 93 % 1007,6 hPa 0,0 mm 4,3 km/h (1 Bft) W 279 ° 0 min 0,000 mm 0,0 UV-I 18 W/m² -0,6 °C 6,4 km/h (2 Bft)
07.11.2016 08:42 0,4 °C 0,5 °C 93 % 1007,7 hPa 0,0 mm 5,3 km/h (1 Bft) W 273 ° 0 min 0,000 mm 0,0 UV-I 19 W/m² -0,6 °C 9,7 km/h (2 Bft)
07.11.2016 08:43 0,4 °C 0,5 °C 93 % 1007,7 hPa 0,0 mm 4,1 km/h (1 Bft) W 281 ° 0 min 0,000 mm 0,0 UV-I 19 W/m² -0,6 °C 6,4 km/h (2 Bft)
07.11.2016 08:44 0,4 °C 0,4 °C 93 % 1007,7 hPa 0,0 mm 9,5 km/h (2 Bft) W 265 ° 0 min 0,000 mm 0,0 UV-I 21 W/m² -0,6 °C 12,9 km/h (3 Bft)
07.11.2016 08:45 0,4 °C 0,4 °C 93 % 1007,7 hPa 0,0 mm 5,2 km/h (1 Bft) W-NW 302 ° 0 min 0,000 mm 0,0 UV-I 19 W/m² -0,6 °C 6,4 km/h (2 Bft)
07.11.2016 08:46 0,4 °C 0,4 °C 93 % 1007,7 hPa 0,0 mm 6,8 km/h (2 Bft) W 273 ° 0 min 0,000 mm 0,0 UV-I 19 W/m² -0,6 °C 11,3 km/h (2 Bft)
07.11.2016 08:47 0,4 °C 0,4 °C 93 % 1007,7 hPa 0,0 mm 6,6 km/h (2 Bft) W-NW 287 ° 0 min 0,000 mm 0,0 UV-I 21 W/m² -0,6 °C 11,3 km/h (2 Bft)
07.11.2016 08:48 0,4 °C 0,4 °C 93 % 1007,7 hPa 0,0 mm 5,2 km/h (1 Bft) W-NW 286 ° 0 min 0,000 mm 0,0 UV-I 21 W/m² -0,6 °C 9,7 km/h (2 Bft)
07.11.2016 08:49 0,4 °C 0,4 °C 93 % 1007,7 hPa 0,0 mm 5,6 km/h (1 Bft) W 273 ° 0 min 0,000 mm 0,0 UV-I 21 W/m² -0,6 °C 8,0 km/h (2 Bft)
07.11.2016 08:50 0,4 °C 0,4 °C 93 % 1007,7 hPa 0,0 mm 5,8 km/h (2 Bft) W 280 ° 0 min 0,000 mm 0,0 UV-I 21 W/m² -0,6 °C 11,3 km/h (2 Bft)
07.11.2016 08:51 0,4 °C 0,4 °C 93 % 1007,8 hPa 0,0 mm 10,9 km/h (2 Bft) W-NW 283 ° 0 min 0,000 mm 0,0 UV-I 21 W/m² -0,6 °C 12,9 km/h (3 Bft)
07.11.2016 08:52 0,4 °C 0,4 °C 93 % 1007,7 hPa 0,0 mm 4,9 km/h (1 Bft) W 265 ° 0 min 0,000 mm 0,0 UV-I 25 W/m² -0,6 °C 9,7 km/h (2 Bft)
07.11.2016 08:53 0,4 °C 0,4 °C 93 % 1007,8 hPa 0,0 mm 3,3 km/h (1 Bft) W 267 ° 0 min 0,000 mm 0,0 UV-I 26 W/m² -0,6 °C 4,8 km/h (1 Bft)
07.11.2016 08:54 0,4 °C 0,4 °C 93 % 1007,8 hPa 0,0 mm 1,3 km/h (1 Bft) W 267 ° 0 min 0,000 mm 0,0 UV-I 28 W/m² -0,6 °C 3,2 km/h (1 Bft)
07.11.2016 08:55 0,4 °C 0,4 °C 93 % 1007,9 hPa 0,0 mm 4,7 km/h (1 Bft) W 265 ° 0 min 0,000 mm 0,0 UV-I 30 W/m² -0,6 °C 6,4 km/h (2 Bft)
07.11.2016 08:56 0,4 °C 0,4 °C 93 % 1007,9 hPa 0,0 mm 4,5 km/h (1 Bft) S-SO 163 ° 0 min 0,000 mm 0,0 UV-I 33 W/m² -0,6 °C 6,4 km/h (2 Bft)
07.11.2016 08:57 0,4 °C 0,4 °C 93 % 1007,9 hPa 0,0 mm 5,6 km/h (1 Bft) W-SW 240 ° 0 min 0,000 mm 0,0 UV-I 37 W/m² -0,6 °C 9,7 km/h (2 Bft)
07.11.2016 08:58 0,4 °C 0,4 °C 93 % 1007,9 hPa 0,0 mm 3,8 km/h (1 Bft) W-SW 246 ° 0 min 0,000 mm 0,0 UV-I 37 W/m² -0,6 °C 6,4 km/h (2 Bft)
07.11.2016 08:59 0,4 °C 0,4 °C 93 % 1007,9 hPa 0,0 mm 7,0 km/h (2 Bft) W-SW 254 ° 0 min 0,000 mm 0,0 UV-I 37 W/m² -0,6 °C 11,3 km/h (2 Bft)
07.11.2016 09:00 0,4 °C 0,4 °C 93 % 1007,9 hPa 0,0 mm 9,7 km/h (2 Bft) W 263 ° 0 min 0,000 mm 0,0 UV-I 39 W/m² -0,6 °C 14,5 km/h (3 Bft)
07.11.2016 09:01 0,4 °C 0,4 °C 93 % 1007,9 hPa 0,0 mm 6,4 km/h (2 Bft) W-NW 284 ° 0 min 0,000 mm 0,0 UV-I 42 W/m² -0,6 °C 12,9 km/h (3 Bft)
07.11.2016 09:02 0,4 °C 0,4 °C 93 % 1007,9 hPa 0,0 mm 4,9 km/h (1 Bft) W-SW 256 ° 0 min 0,000 mm 0,0 UV-I 46 W/m² -0,6 °C 9,7 km/h (2 Bft)
07.11.2016 09:03 0,4 °C 0,4 °C 92 % 1007,9 hPa 0,0 mm 7,7 km/h (2 Bft) W 271 ° 0 min 0,000 mm 0,0 UV-I 51 W/m² -0,7 °C 12,9 km/h (3 Bft)
07.11.2016 09:04 0,4 °C 0,4 °C 92 % 1007,9 hPa 0,0 mm 11,6 km/h (2 Bft) W-SW 257 ° 0 min 0,000 mm 0,0 UV-I 54 W/m² -0,7 °C 16,1 km/h (3 Bft)
07.11.2016 09:05 0,4 °C 0,4 °C 92 % 1008,0 hPa 0,0 mm 9,9 km/h (2 Bft) W-SW 246 ° 0 min 0,000 mm 0,0 UV-I 58 W/m² -0,7 °C 16,1 km/h (3 Bft)
07.11.2016 09:06 0,4 °C 0,4 °C 92 % 1007,9 hPa 0,0 mm 6,6 km/h (2 Bft) W 267 ° 0 min 0,000 mm 0,0 UV-I 60 W/m² -0,7 °C 11,3 km/h (2 Bft)
07.11.2016 09:07 0,4 °C 0,4 °C 92 % 1007,9 hPa 0,0 mm 7,8 km/h (2 Bft) W-SW 258 ° 0 min 0,000 mm 0,0 UV-I 62 W/m² -0,7 °C 14,5 km/h (3 Bft)
07.11.2016 09:08 0,4 °C 0,4 °C 92 % 1007,9 hPa 0,0 mm 3,8 km/h (1 Bft) W 259 ° 0 min 0,000 mm 0,0 UV-I 62 W/m² -0,7 °C 9,7 km/h (2 Bft)
07.11.2016 09:09 0,4 °C 0,4 °C 92 % 1007,9 hPa 0,0 mm 7,9 km/h (2 Bft) W-SW 254 ° 0 min 0,000 mm 0,0 UV-I 62 W/m² -0,7 °C 11,3 km/h (2 Bft)
07.11.2016 09:10 0,4 °C 0,4 °C 92 % 1007,9 hPa 0,0 mm 10,5 km/h (2 Bft) W 263 ° 0 min 0,000 mm 0,0 UV-I 60 W/m² -0,7 °C 14,5 km/h (3 Bft)
07.11.2016 09:11 0,4 °C 0,4 °C 92 % 1007,9 hPa 0,0 mm 9,6 km/h (2 Bft) NW 322 ° 0 min 0,000 mm 0,0 UV-I 60 W/m² -0,7 °C 12,9 km/h (3 Bft)
07.11.2016 09:12 0,4 °C 0,4 °C 92 % 1008,0 hPa 0,0 mm 5,6 km/h (1 Bft) W-NW 290 ° 0 min 0,000 mm 0,0 UV-I 60 W/m² -0,7 °C 9,7 km/h (2 Bft)
07.11.2016 09:13 0,4 °C 0,4 °C 92 % 1007,9 hPa 0,0 mm 6,1 km/h (2 Bft) W 271 ° 0 min 0,000 mm 0,0 UV-I 60 W/m² -0,7 °C 11,3 km/h (2 Bft)
07.11.2016 09:14 0,4 °C 0,4 °C 92 % 1008,0 hPa 0,0 mm 10,8 km/h (2 Bft) W 266 ° 0 min 0,000 mm 0,0 UV-I 56 W/m² -0,7 °C 14,5 km/h (3 Bft)
07.11.2016 09:15 0,4 °C 0,4 °C 91 % 1007,9 hPa 0,0 mm 9,2 km/h (2 Bft) W 265 ° 0 min 0,000 mm 0,0 UV-I 54 W/m² -0,9 °C 14,5 km/h (3 Bft)
07.11.2016 09:16 0,4 °C 0,4 °C 91 % 1007,9 hPa 0,0 mm 7,3 km/h (2 Bft) W 267 ° 0 min 0,000 mm 0,0 UV-I 51 W/m² -0,9 °C 9,7 km/h (2 Bft)
07.11.2016 09:17 0,4 °C 0,4 °C 91 % 1007,9 hPa 0,0 mm 5,5 km/h (1 Bft) W-SW 254 ° 0 min 0,000 mm 0,0 UV-I 47 W/m² -0,9 °C 11,3 km/h (2 Bft)
07.11.2016 09:18 0,3 °C 0,4 °C 91 % 1007,9 hPa 0,0 mm 6,4 km/h (2 Bft) W 270 ° 0 min 0,000 mm 0,0 UV-I 47 W/m² -1,0 °C 9,7 km/h (2 Bft)
07.11.2016 09:19 0,3 °C 0,4 °C 91 % 1007,9 hPa 0,0 mm 7,0 km/h (2 Bft) W-SW 257 ° 0 min 0,000 mm 0,0 UV-I 49 W/m² -1,0 °C 11,3 km/h (2 Bft)
07.11.2016 09:20 0,3 °C 0,3 °C 91 % 1008,0 hPa 0,0 mm 10,4 km/h (2 Bft) W-SW 242 ° 0 min 0,000 mm 0,0 UV-I 49 W/m² -1,0 °C 14,5 km/h (3 Bft)
07.11.2016 09:21 0,3 °C 0,3 °C 91 % 1007,9 hPa 0,0 mm 9,4 km/h (2 Bft) W-NW 282 ° 0 min 0,000 mm 0,0 UV-I 51 W/m² -1,0 °C 14,5 km/h (3 Bft)
07.11.2016 09:22 0,3 °C 0,3 °C 91 % 1008,0 hPa 0,0 mm 3,8 km/h (1 Bft) W 260 ° 0 min 0,000 mm 0,0 UV-I 54 W/m² -1,0 °C 6,4 km/h (2 Bft)
07.11.2016 09:23 0,3 °C 0,3 °C 91 % 1008,0 hPa 0,0 mm 5,0 km/h (1 Bft) W-NW 290 ° 0 min 0,000 mm 0,0 UV-I 54 W/m² -1,0 °C 6,4 km/h (2 Bft)
07.11.2016 09:24 0,4 °C 0,4 °C 91 % 1008,0 hPa 0,0 mm 4,7 km/h (1 Bft) W-NW 290 ° 0 min 0,000 mm 0,0 UV-I 54 W/m² -0,9 °C 6,4 km/h (2 Bft)
07.11.2016 09:25 0,4 °C 0,4 °C 91 % 1008,0 hPa 0,0 mm 5,6 km/h (1 Bft) W-NW 298 ° 0 min 0,000 mm 0,0 UV-I 60 W/m² -0,9 °C 9,7 km/h (2 Bft)
07.11.2016 09:26 0,3 °C 0,4 °C 91 % 1007,9 hPa 0,0 mm 7,3 km/h (2 Bft) W-NW 290 ° 0 min 0,000 mm 0,0 UV-I 67 W/m² -1,0 °C 11,3 km/h (2 Bft)
07.11.2016 09:27 0,3 °C 0,3 °C 91 % 1008,0 hPa 0,0 mm 8,9 km/h (2 Bft) W 277 ° 0 min 0,000 mm 0,0 UV-I 69 W/m² -1,0 °C 14,5 km/h (3 Bft)
07.11.2016 09:28 0,3 °C 0,3 °C 91 % 1008,1 hPa 0,0 mm 8,0 km/h (2 Bft) W-NW 297 ° 0 min 0,000 mm 0,0 UV-I 69 W/m² -1,0 °C 11,3 km/h (2 Bft)
07.11.2016 09:29 0,3 °C 0,3 °C 91 % 1008,1 hPa 0,0 mm 7,8 km/h (2 Bft) W 264 ° 0 min 0,000 mm 0,0 UV-I 67 W/m² -1,0 °C 11,3 km/h (2 Bft)
07.11.2016 09:30 0,3 °C 0,3 °C 91 % 1008,0 hPa 0,0 mm 5,0 km/h (1 Bft) NW 306 ° 0 min 0,000 mm 0,0 UV-I 67 W/m² -1,0 °C 8,0 km/h (2 Bft)
07.11.2016 09:31 0,3 °C 0,3 °C 91 % 1008,1 hPa 0,0 mm 3,8 km/h (1 Bft) W 271 ° 0 min 0,000 mm 0,0 UV-I 72 W/m² -1,0 °C 6,4 km/h (2 Bft)
07.11.2016 09:32 0,3 °C 0,3 °C 91 % 1008,0 hPa 0,0 mm 6,9 km/h (2 Bft) W-NW 288 ° 0 min 0,000 mm 0,0 UV-I 79 W/m² -1,0 °C 11,3 km/h (2 Bft)
07.11.2016 09:33 0,3 °C 0,4 °C 91 % 1008,1 hPa 0,0 mm 5,6 km/h (1 Bft) W-NW 284 ° 0 min 0,000 mm 0,0 UV-I 91 W/m² -1,0 °C 6,4 km/h (2 Bft)
07.11.2016 09:34 0,4 °C 0,4 °C 91 % 1008,1 hPa 0,0 mm 7,6 km/h (2 Bft) W-NW 289 ° 0 min 0,000 mm 0,5 UV-I 100 W/m² -0,9 °C 12,9 km/h (3 Bft)
07.11.2016 09:35 0,4 °C 0,4 °C 91 % 1008,1 hPa 0,0 mm 5,8 km/h (2 Bft) W 273 ° 0 min 0,000 mm 0,5 UV-I 91 W/m² -0,9 °C 11,3 km/h (2 Bft)
07.11.2016 09:36 0,4 °C 0,4 °C 91 % 1008,1 hPa 0,0 mm 5,4 km/h (1 Bft) W-NW 286 ° 0 min 0,000 mm 0,5 UV-I 90 W/m² -0,9 °C 8,0 km/h (2 Bft)
07.11.2016 09:37 0,4 °C 0,4 °C 91 % 1008,1 hPa 0,0 mm 6,6 km/h (2 Bft) W-NW 286 ° 0 min 0,000 mm 0,5 UV-I 97 W/m² -0,9 °C 11,3 km/h (2 Bft)
07.11.2016 09:38 0,4 °C 0,4 °C 91 % 1008,1 hPa 0,0 mm 5,9 km/h (2 Bft) NW 309 ° 0 min 0,000 mm 0,5 UV-I 91 W/m² -0,9 °C 9,7 km/h (2 Bft)
07.11.2016 09:39 0,4 °C 0,4 °C 91 % 1008,1 hPa 0,0 mm 4,5 km/h (1 Bft) W-NW 302 ° 0 min 0,000 mm 0,5 UV-I 95 W/m² -0,9 °C 6,4 km/h (2 Bft)
07.11.2016 09:40 0,4 °C 0,4 °C 91 % 1008,1 hPa 0,0 mm 6,3 km/h (2 Bft) W 271 ° 0 min 0,000 mm 0,5 UV-I 95 W/m² -0,9 °C 9,7 km/h (2 Bft)
07.11.2016 09:41 0,5 °C 0,5 °C 91 % 1008,1 hPa 0,0 mm 6,2 km/h (2 Bft) W 272 ° 0 min 0,000 mm 0,5 UV-I 91 W/m² -0,8 °C 9,7 km/h (2 Bft)
07.11.2016 09:42 0,4 °C 0,5 °C 91 % 1008,1 hPa 0,0 mm 4,8 km/h (1 Bft) W-NW 288 ° 0 min 0,000 mm 0,5 UV-I 88 W/m² -0,9 °C 8,0 km/h (2 Bft)
07.11.2016 09:43 0,5 °C 0,5 °C 91 % 1008,1 hPa 0,0 mm 4,0 km/h (1 Bft) W-NW 298 ° 0 min 0,000 mm 0,5 UV-I 84 W/m² -0,8 °C 6,4 km/h (2 Bft)
07.11.2016 09:44 0,5 °C 0,5 °C 91 % 1008,2 hPa 0,0 mm 7,0 km/h (2 Bft) W-SW 258 ° 0 min 0,000 mm 0,5 UV-I 90 W/m² -0,8 °C 9,7 km/h (2 Bft)
07.11.2016 09:45 0,5 °C 0,6 °C 91 % 1008,2 hPa 0,0 mm 7,1 km/h (2 Bft) SW 236 ° 0 min 0,000 mm 0,5 UV-I 86 W/m² -0,8 °C 11,3 km/h (2 Bft)
07.11.2016 09:46 0,5 °C 0,6 °C 91 % 1008,1 hPa 0,0 mm 7,2 km/h (2 Bft) W 278 ° 0 min 0,000 mm 0,5 UV-I 83 W/m² -0,8 °C 12,9 km/h (3 Bft)
07.11.2016 09:47 0,6 °C 0,6 °C 91 % 1008,1 hPa 0,0 mm 6,9 km/h (2 Bft) W-NW 295 ° 0 min 0,000 mm 0,5 UV-I 83 W/m² -0,7 °C 11,3 km/h (2 Bft)
07.11.2016 09:48 0,5 °C 0,6 °C 91 % 1008,1 hPa 0,0 mm 6,2 km/h (2 Bft) W 269 ° 0 min 0,000 mm 0,5 UV-I 84 W/m² -0,8 °C 11,3 km/h (2 Bft)
07.11.2016 09:49 0,6 °C 0,6 °C 91 % 1008,1 hPa 0,0 mm 5,1 km/h (1 Bft) W 274 ° 0 min 0,000 mm 0,5 UV-I 84 W/m² -0,7 °C 11,3 km/h (2 Bft)
07.11.2016 09:50 0,5 °C 0,6 °C 91 % 1008,1 hPa 0,0 mm 3,9 km/h (1 Bft) W 261 ° 0 min 0,000 mm 0,5 UV-I 84 W/m² -0,8 °C 6,4 km/h (2 Bft)
07.11.2016 09:51 0,6 °C 0,6 °C 91 % 1008,2 hPa 0,0 mm 5,1 km/h (1 Bft) W 272 ° 0 min 0,000 mm 0,5 UV-I 84 W/m² -0,7 °C 6,4 km/h (2 Bft)
07.11.2016 09:52 0,6 °C 0,6 °C 91 % 1008,2 hPa 0,0 mm 5,1 km/h (1 Bft) W 263 ° 0 min 0,000 mm 0,6 UV-I 88 W/m² -0,7 °C 9,7 km/h (2 Bft)
07.11.2016 09:53 0,6 °C 0,6 °C 91 % 1008,2 hPa 0,0 mm 5,4 km/h (1 Bft) W 271 ° 0 min 0,000 mm 0,6 UV-I 91 W/m² -0,7 °C 9,7 km/h (2 Bft)
07.11.2016 09:54 0,6 °C 0,6 °C 91 % 1008,2 hPa 0,0 mm 2,7 km/h (1 Bft) W 268 ° 0 min 0,000 mm 0,6 UV-I 95 W/m² -0,7 °C 4,8 km/h (1 Bft)
07.11.2016 09:55 0,6 °C 0,6 °C 91 % 1008,2 hPa 0,0 mm 4,3 km/h (1 Bft) W 280 ° 0 min 0,000 mm 0,6 UV-I 97 W/m² -0,7 °C 9,7 km/h (2 Bft)
07.11.2016 09:56 0,6 °C 0,6 °C 91 % 1008,2 hPa 0,0 mm 4,4 km/h (1 Bft) W-SW 254 ° 0 min 0,000 mm 0,6 UV-I 98 W/m² -0,7 °C 9,7 km/h (2 Bft)
07.11.2016 09:57 0,6 °C 0,6 °C 91 % 1008,2 hPa 0,0 mm 6,8 km/h (2 Bft) W-SW 256 ° 0 min 0,000 mm 0,6 UV-I 100 W/m² -0,7 °C 9,7 km/h (2 Bft)
07.11.2016 09:58 0,6 °C 0,6 °C 91 % 1008,2 hPa 0,0 mm 4,8 km/h (1 Bft) W 278 ° 0 min 0,000 mm 0,6 UV-I 105 W/m² -0,7 °C 6,4 km/h (2 Bft)
07.11.2016 09:59 0,6 °C 0,6 °C 91 % 1008,2 hPa 0,0 mm 7,5 km/h (2 Bft) W 278 ° 0 min 0,000 mm 0,6 UV-I 113 W/m² -0,7 °C 9,7 km/h (2 Bft)
07.11.2016 10:00 0,6 °C 0,7 °C 91 % 1008,3 hPa 0,0 mm 6,3 km/h (2 Bft) W-NW 287 ° 0 min 0,000 mm 0,6 UV-I 120 W/m² -0,7 °C 11,3 km/h (2 Bft)
07.11.2016 10:01 0,6 °C 0,7 °C 91 % 1008,2 hPa 0,0 mm 4,8 km/h (1 Bft) W-SW 248 ° 0 min 0,025 mm 0,7 UV-I 125 W/m² -0,7 °C 6,4 km/h (2 Bft)
07.11.2016 10:02 0,6 °C 0,6 °C 91 % 1008,2 hPa 0,0 mm 7,5 km/h (2 Bft) W-SW 256 ° 0 min 0,000 mm 0,6 UV-I 123 W/m² -0,7 °C 9,7 km/h (2 Bft)
07.11.2016 10:03 0,6 °C 0,6 °C 90 % 1008,2 hPa 0,0 mm 4,6 km/h (1 Bft) W 275 ° 0 min 0,000 mm 0,6 UV-I 120 W/m² -0,8 °C 6,4 km/h (2 Bft)
07.11.2016 10:04 0,6 °C 0,6 °C 90 % 1008,2 hPa 0,2 mm 2,9 km/h (1 Bft) W 278 ° 0 min 0,000 mm 0,6 UV-I 120 W/m² -0,8 °C 4,8 km/h (1 Bft)
07.11.2016 10:05 0,6 °C 0,6 °C 91 % 1008,2 hPa 0,0 mm 3,2 km/h (1 Bft) W 271 ° 0 min 0,000 mm 0,6 UV-I 121 W/m² -0,7 °C 4,8 km/h (1 Bft)
07.11.2016 10:06 0,6 °C 0,6 °C 91 % 1008,3 hPa 0,0 mm 4,0 km/h (1 Bft) W 268 ° 0 min 0,000 mm 0,6 UV-I 123 W/m² -0,7 °C 4,8 km/h (1 Bft)
07.11.2016 10:07 0,6 °C 0,6 °C 91 % 1008,4 hPa 0,0 mm 4,6 km/h (1 Bft) W-NW 286 ° 0 min 0,000 mm 0,6 UV-I 123 W/m² -0,7 °C 6,4 km/h (2 Bft)
07.11.2016 10:08 0,6 °C 0,6 °C 91 % 1008,4 hPa 0,0 mm 5,4 km/h (1 Bft) W 277 ° 0 min 0,000 mm 0,6 UV-I 113 W/m² -0,7 °C 9,7 km/h (2 Bft)
07.11.2016 10:09 0,6 °C 0,6 °C 90 % 1008,3 hPa 0,0 mm 7,8 km/h (2 Bft) W 278 ° 0 min 0,000 mm 0,6 UV-I 111 W/m² -0,8 °C 12,9 km/h (3 Bft)
07.11.2016 10:10 0,6 °C 0,6 °C 90 % 1008,4 hPa 0,0 mm 7,0 km/h (2 Bft) W-NW 297 ° 0 min 0,000 mm 0,6 UV-I 109 W/m² -0,8 °C 11,3 km/h (2 Bft)
07.11.2016 10:11 0,5 °C 0,6 °C 90 % 1008,4 hPa 0,0 mm 4,7 km/h (1 Bft) W-NW 298 ° 0 min 0,000 mm 0,6 UV-I 109 W/m² -0,9 °C 8,0 km/h (2 Bft)
07.11.2016 10:12 0,5 °C 0,6 °C 90 % 1008,4 hPa 0,0 mm 4,4 km/h (1 Bft) W-NW 296 ° 0 min 0,000 mm 0,6 UV-I 107 W/m² -0,9 °C 6,4 km/h (2 Bft)
07.11.2016 10:13 0,5 °C 0,5 °C 90 % 1008,4 hPa 0,0 mm 4,0 km/h (1 Bft) W-NW 288 ° 0 min 0,000 mm 0,6 UV-I 97 W/m² -0,9 °C 4,8 km/h (1 Bft)
07.11.2016 10:14 0,6 °C 0,6 °C 91 % 1008,4 hPa 0,0 mm 5,0 km/h (1 Bft) W-NW 283 ° 0 min 0,000 mm 0,6 UV-I 95 W/m² -0,7 °C 6,4 km/h (2 Bft)
07.11.2016 10:15 0,6 °C 0,6 °C 91 % 1008,4 hPa 0,0 mm 2,3 km/h (1 Bft) W-NW 283 ° 0 min 0,000 mm 0,6 UV-I 97 W/m² -0,7 °C 3,2 km/h (1 Bft)
07.11.2016 10:16 0,5 °C 0,6 °C 91 % 1008,4 hPa 0,0 mm 3,8 km/h (1 Bft) W 273 ° 0 min 0,000 mm 0,6 UV-I 98 W/m² -0,8 °C 6,4 km/h (2 Bft)
07.11.2016 10:17 0,6 °C 0,6 °C 91 % 1008,5 hPa 0,0 mm 4,0 km/h (1 Bft) W 261 ° 0 min 0,000 mm 0,6 UV-I 98 W/m² -0,7 °C 6,4 km/h (2 Bft)
07.11.2016 10:18 0,6 °C 0,6 °C 90 % 1008,5 hPa 0,0 mm 4,0 km/h (1 Bft) W 266 ° 0 min 0,000 mm 0,5 UV-I 98 W/m² -0,8 °C 6,4 km/h (2 Bft)
07.11.2016 10:19 0,6 °C 0,6 °C 90 % 1008,5 hPa 0,0 mm 4,8 km/h (1 Bft) W-NW 285 ° 0 min 0,000 mm 0,5 UV-I 98 W/m² -0,8 °C 6,4 km/h (2 Bft)
07.11.2016 10:20 0,6 °C 0,6 °C 90 % 1008,5 hPa 0,0 mm 5,3 km/h (1 Bft) W-SW 257 ° 0 min 0,000 mm 0,5 UV-I 98 W/m² -0,8 °C 11,3 km/h (2 Bft)
07.11.2016 10:21 0,5 °C 0,6 °C 91 % 1008,5 hPa 0,0 mm 9,2 km/h (2 Bft) W-SW 250 ° 0 min 0,000 mm 0,5 UV-I 97 W/m² -0,8 °C 12,9 km/h (3 Bft)
07.11.2016 10:22 0,5 °C 0,6 °C 90 % 1008,5 hPa 0,0 mm 7,1 km/h (2 Bft) W 259 ° 0 min 0,000 mm 0,5 UV-I 95 W/m² -0,9 °C 11,3 km/h (2 Bft)
07.11.2016 10:23 0,5 °C 0,6 °C 90 % 1008,6 hPa 0,0 mm 6,9 km/h (2 Bft) W 273 ° 0 min 0,000 mm 0,5 UV-I 93 W/m² -0,9 °C 9,7 km/h (2 Bft)
07.11.2016 10:24 0,5 °C 0,5 °C 90 % 1008,5 hPa 0,0 mm 5,0 km/h (1 Bft) W-NW 291 ° 0 min 0,000 mm 0,5 UV-I 91 W/m² -0,9 °C 9,7 km/h (2 Bft)
07.11.2016 10:25 0,5 °C 0,5 °C 91 % 1008,6 hPa 0,0 mm 4,4 km/h (1 Bft) W-NW 288 ° 0 min 0,000 mm 0,5 UV-I 102 W/m² -0,8 °C 6,4 km/h (2 Bft)
07.11.2016 10:26 0,5 °C 0,5 °C 90 % 1008,6 hPa 0,0 mm 4,7 km/h (1 Bft) W-NW 282 ° 0 min 0,000 mm 0,5 UV-I 104 W/m² -0,9 °C 6,4 km/h (2 Bft)
07.11.2016 10:27 0,5 °C 0,5 °C 90 % 1008,6 hPa 0,0 mm 4,6 km/h (1 Bft) W-SW 253 ° 0 min 0,000 mm 0,5 UV-I 100 W/m² -0,9 °C 6,4 km/h (2 Bft)
07.11.2016 10:28 0,5 °C 0,5 °C 90 % 1008,5 hPa 0,0 mm 2,6 km/h (1 Bft) W 271 ° 0 min 0,000 mm 0,5 UV-I 98 W/m² -0,9 °C 4,8 km/h (1 Bft)
07.11.2016 10:29 0,5 °C 0,5 °C 90 % 1008,6 hPa 0,0 mm 2,6 km/h (1 Bft) W-NW 287 ° 0 min 0,000 mm 0,5 UV-I 95 W/m² -0,9 °C 4,8 km/h (1 Bft)
07.11.2016 10:30 0,5 °C 0,5 °C 90 % 1008,6 hPa 0,0 mm 3,3 km/h (1 Bft) W-NW 287 ° 0 min 0,000 mm 0,6 UV-I 97 W/m² -0,9 °C 4,8 km/h (1 Bft)
07.11.2016 10:31 0,5 °C 0,6 °C 91 % 1008,6 hPa 0,0 mm 2,6 km/h (1 Bft) W 280 ° 0 min 0,000 mm 0,6 UV-I 109 W/m² -0,8 °C 3,2 km/h (1 Bft)
07.11.2016 10:32 0,5 °C 0,6 °C 91 % 1008,5 hPa 0,0 mm 1,1 km/h (1 Bft) W-NW 296 ° 0 min 0,000 mm 0,6 UV-I 100 W/m² -0,8 °C 3,2 km/h (1 Bft)
07.11.2016 10:33 0,6 °C 0,6 °C 91 % 1008,6 hPa 0,0 mm 2,2 km/h (1 Bft) W-SW 257 ° 0 min 0,000 mm 0,6 UV-I 91 W/m² -0,7 °C 3,2 km/h (1 Bft)
07.11.2016 10:34 0,5 °C 0,6 °C 91 % 1008,6 hPa 0,0 mm 4,0 km/h (1 Bft) W-SW 257 ° 0 min 0,000 mm 0,6 UV-I 86 W/m² -0,8 °C 4,8 km/h (1 Bft)
07.11.2016 10:35 0,5 °C 0,6 °C 91 % 1008,6 hPa 0,0 mm 3,0 km/h (1 Bft) W 269 ° 0 min 0,000 mm 0,6 UV-I 86 W/m² -0,8 °C 3,2 km/h (1 Bft)
07.11.2016 10:36 0,5 °C 0,6 °C 90 % 1008,6 hPa 0,2 mm 1,5 km/h (1 Bft) W 269 ° 0 min 0,000 mm 0,6 UV-I 100 W/m² -0,9 °C 3,2 km/h (1 Bft)
07.11.2016 10:37 0,5 °C 0,6 °C 91 % 1008,6 hPa 0,0 mm 2,6 km/h (1 Bft) W 281 ° 0 min 0,000 mm 0,6 UV-I 98 W/m² -0,8 °C 4,8 km/h (1 Bft)
07.11.2016 10:38 0,6 °C 0,6 °C 91 % 1008,6 hPa 0,0 mm 3,4 km/h (1 Bft) W-NW 294 ° 0 min 0,000 mm 0,6 UV-I 98 W/m² -0,7 °C 4,8 km/h (1 Bft)
07.11.2016 10:39 0,5 °C 0,6 °C 91 % 1008,7 hPa 0,0 mm 6,2 km/h (2 Bft) W-SW 254 ° 0 min 0,000 mm 0,7 UV-I 107 W/m² -0,8 °C 9,7 km/h (2 Bft)
07.11.2016 10:40 0,5 °C 0,5 °C 91 % 1008,7 hPa 0,0 mm 5,1 km/h (1 Bft) W 271 ° 0 min 0,000 mm 0,7 UV-I 123 W/m² -0,8 °C 9,7 km/h (2 Bft)
07.11.2016 10:41 0,5 °C 0,6 °C 90 % 1008,7 hPa 0,0 mm 3,8 km/h (1 Bft) W 269 ° 0 min 0,000 mm 0,7 UV-I 148 W/m² -0,9 °C 4,8 km/h (1 Bft)
07.11.2016 10:42 0,6 °C 0,6 °C 90 % 1008,7 hPa 0,0 mm 5,8 km/h (2 Bft) W 262 ° 0 min 0,000 mm 0,7 UV-I 193 W/m² -0,8 °C 9,7 km/h (2 Bft)
07.11.2016 10:43 0,5 °C 0,6 °C 90 % 1008,7 hPa 0,0 mm 4,2 km/h (1 Bft) W-NW 288 ° 0 min 0,000 mm 0,7 UV-I 199 W/m² -0,9 °C 4,8 km/h (1 Bft)
07.11.2016 10:44 0,6 °C 0,6 °C 90 % 1008,6 hPa 0,0 mm 4,4 km/h (1 Bft) W-NW 286 ° 0 min 0,000 mm 0,7 UV-I 199 W/m² -0,8 °C 6,4 km/h (2 Bft)
07.11.2016 10:45 0,6 °C 0,6 °C 90 % 1008,7 hPa 0,0 mm 3,4 km/h (1 Bft) W 271 ° 0 min 0,000 mm 0,7 UV-I 193 W/m² -0,8 °C 6,4 km/h (2 Bft)
07.11.2016 10:46 0,6 °C 0,6 °C 90 % 1008,7 hPa 0,0 mm 3,7 km/h (1 Bft) W-NW 284 ° 0 min 0,000 mm 0,7 UV-I 186 W/m² -0,8 °C 4,8 km/h (1 Bft)
07.11.2016 10:47 0,6 °C 0,6 °C 90 % 1008,7 hPa 0,0 mm 4,2 km/h (1 Bft) W 276 ° 0 min 0,000 mm 0,7 UV-I 186 W/m² -0,8 °C 6,4 km/h (2 Bft)
07.11.2016 10:48 0,6 °C 0,6 °C 90 % 1008,7 hPa 0,0 mm 5,5 km/h (1 Bft) W 277 ° 0 min 0,000 mm 0,8 UV-I 204 W/m² -0,8 °C 11,3 km/h (2 Bft)
07.11.2016 10:49 0,7 °C 0,7 °C 90 % 1008,7 hPa 0,0 mm 7,4 km/h (2 Bft) W-NW 290 ° 0 min 0,000 mm 0,8 UV-I 223 W/m² -0,7 °C 11,3 km/h (2 Bft)
07.11.2016 10:50 0,7 °C 0,7 °C 90 % 1008,7 hPa 0,0 mm 7,0 km/h (2 Bft) W 281 ° 0 min 0,000 mm 0,8 UV-I 220 W/m² -0,7 °C 9,7 km/h (2 Bft)
07.11.2016 10:51 0,7 °C 0,7 °C 90 % 1008,7 hPa 0,0 mm 4,4 km/h (1 Bft) W-NW 290 ° 0 min 0,000 mm 0,8 UV-I 214 W/m² -0,7 °C 6,4 km/h (2 Bft)
07.11.2016 10:52 0,7 °C 0,7 °C 90 % 1008,7 hPa 0,0 mm 6,0 km/h (2 Bft) W 274 ° 0 min 0,000 mm 0,8 UV-I 204 W/m² -0,7 °C 9,7 km/h (2 Bft)
07.11.2016 10:53 0,7 °C 0,7 °C 90 % 1008,7 hPa 0,0 mm 4,6 km/h (1 Bft) W 259 ° 0 min 0,000 mm 0,8 UV-I 190 W/m² -0,7 °C 6,4 km/h (2 Bft)
07.11.2016 10:54 0,7 °C 0,7 °C 90 % 1008,7 hPa 0,2 mm 4,2 km/h (1 Bft) W 260 ° 0 min 0,000 mm 0,8 UV-I 181 W/m² -0,7 °C 6,4 km/h (2 Bft)
07.11.2016 10:55 0,7 °C 0,7 °C 89 % 1008,7 hPa 0,0 mm 3,8 km/h (1 Bft) W 276 ° 0 min 0,000 mm 0,8 UV-I 190 W/m² -0,9 °C 4,8 km/h (1 Bft)
07.11.2016 10:56 0,7 °C 0,7 °C 89 % 1008,7 hPa 0,0 mm 4,8 km/h (1 Bft) W-NW 284 ° 0 min 0,000 mm 0,9 UV-I 202 W/m² -0,9 °C 6,4 km/h (2 Bft)
07.11.2016 10:57 0,7 °C 0,7 °C 90 % 1008,7 hPa 0,0 mm 3,8 km/h (1 Bft) W-NW 301 ° 0 min 0,000 mm 0,9 UV-I 207 W/m² -0,7 °C 6,4 km/h (2 Bft)
07.11.2016 10:58 0,7 °C 0,8 °C 90 % 1008,7 hPa 0,0 mm 4,1 km/h (1 Bft) W 279 ° 0 min 0,000 mm 0,9 UV-I 202 W/m² -0,7 °C 6,4 km/h (2 Bft)
07.11.2016 10:59 0,7 °C 0,7 °C 90 % 1008,7 hPa 0,0 mm 3,6 km/h (1 Bft) W 276 ° 0 min 0,000 mm 0,9 UV-I 199 W/m² -0,7 °C 6,4 km/h (2 Bft)
07.11.2016 11:00 0,7 °C 0,7 °C 90 % 1008,7 hPa 0,0 mm 5,2 km/h (1 Bft) W-NW 301 ° 0 min 0,000 mm 0,9 UV-I 185 W/m² -0,7 °C 9,7 km/h (2 Bft)
07.11.2016 11:01 0,7 °C 0,7 °C 90 % 1008,7 hPa 0,0 mm 4,1 km/h (1 Bft) W-NW 300 ° 0 min 0,051 mm 0,9 UV-I 181 W/m² -0,7 °C 6,4 km/h (2 Bft)
07.11.2016 11:02 0,7 °C 0,7 °C 90 % 1008,7 hPa 0,0 mm 3,4 km/h (1 Bft) W 280 ° 0 min 0,000 mm 0,9 UV-I 179 W/m² -0,7 °C 4,8 km/h (1 Bft)
07.11.2016 11:03 0,7 °C 0,7 °C 90 % 1008,7 hPa 0,0 mm 3,4 km/h (1 Bft) W 274 ° 0 min 0,000 mm 0,9 UV-I 176 W/m² -0,7 °C 4,8 km/h (1 Bft)
07.11.2016 11:04 0,7 °C 0,7 °C 90 % 1008,7 hPa 0,0 mm 2,1 km/h (1 Bft) W 277 ° 0 min 0,000 mm 1,3 UV-I 174 W/m² -0,7 °C 4,8 km/h (1 Bft)
07.11.2016 11:05 0,7 °C 0,7 °C 90 % 1008,7 hPa 0,0 mm 3,4 km/h (1 Bft) W 273 ° 0 min 0,000 mm 1,3 UV-I 174 W/m² -0,7 °C 4,8 km/h (1 Bft)
07.11.2016 11:06 0,7 °C 0,7 °C 90 % 1008,7 hPa 0,0 mm 3,4 km/h (1 Bft) W-NW 290 ° 0 min 0,000 mm 1,3 UV-I 183 W/m² -0,7 °C 4,8 km/h (1 Bft)
07.11.2016 11:07 0,7 °C 0,7 °C 90 % 1008,7 hPa 0,0 mm 4,9 km/h (1 Bft) W-NW 295 ° 0 min 0,000 mm 1,3 UV-I 190 W/m² -0,7 °C 6,4 km/h (2 Bft)
07.11.2016 11:08 0,8 °C 0,8 °C 90 % 1008,7 hPa 0,0 mm 3,3 km/h (1 Bft) W 274 ° 0 min 0,000 mm 1,3 UV-I 192 W/m² -0,6 °C 4,8 km/h (1 Bft)
07.11.2016 11:09 0,8 °C 0,8 °C 90 % 1008,7 hPa 0,2 mm 5,5 km/h (1 Bft) W-NW 291 ° 0 min 0,000 mm 1,3 UV-I 197 W/m² -0,6 °C 9,7 km/h (2 Bft)
07.11.2016 11:10 0,8 °C 0,8 °C 90 % 1008,7 hPa 0,0 mm 4,8 km/h (1 Bft) W-NW 286 ° 0 min 0,000 mm 1,4 UV-I 193 W/m² -0,6 °C 6,4 km/h (2 Bft)
07.11.2016 11:11 0,7 °C 0,8 °C 90 % 1008,7 hPa 0,0 mm 3,2 km/h (1 Bft) W 274 ° 0 min 0,000 mm 1,4 UV-I 193 W/m² -0,7 °C 6,4 km/h (2 Bft)
07.11.2016 11:12 0,8 °C 0,8 °C 90 % 1008,7 hPa 0,0 mm 2,2 km/h (1 Bft) W-NW 282 ° 0 min 0,000 mm 1,4 UV-I 229 W/m² -0,6 °C 3,2 km/h (1 Bft)
07.11.2016 11:13 0,8 °C 0,8 °C 90 % 1008,7 hPa 0,0 mm 3,8 km/h (1 Bft) W-NW 289 ° 1 min 0,000 mm 1,6 UV-I 267 W/m² -0,6 °C 4,8 km/h (1 Bft)
07.11.2016 11:14 0,8 °C 0,8 °C 90 % 1008,7 hPa 0,0 mm 4,1 km/h (1 Bft) W 267 ° 1 min 0,000 mm 1,7 UV-I 299 W/m² -0,6 °C 6,4 km/h (2 Bft)
07.11.2016 11:15 0,9 °C 0,9 °C 91 % 1008,7 hPa 0,0 mm 4,4 km/h (1 Bft) W 276 ° 1 min 0,000 mm 1,7 UV-I 318 W/m² -0,4 °C 6,4 km/h (2 Bft)
07.11.2016 11:16 0,9 °C 0,9 °C 90 % 1008,7 hPa 0,0 mm 3,1 km/h (1 Bft) W 265 ° 1 min 0,000 mm 1,6 UV-I 320 W/m² -0,6 °C 6,4 km/h (2 Bft)
07.11.2016 11:17 0,9 °C 0,9 °C 89 % 1008,7 hPa 0,0 mm 5,4 km/h (1 Bft) W 278 ° 1 min 0,000 mm 1,5 UV-I 257 W/m² -0,7 °C 9,7 km/h (2 Bft)
07.11.2016 11:18 1,0 °C 1,0 °C 89 % 1008,7 hPa 0,2 mm 4,3 km/h (1 Bft) W-NW 288 ° 1 min 0,000 mm 1,3 UV-I 244 W/m² -0,6 °C 6,4 km/h (2 Bft)
07.11.2016 11:19 0,9 °C 1,0 °C 89 % 1008,7 hPa 0,0 mm 6,1 km/h (2 Bft) W-NW 283 ° 0 min 0,000 mm 1,3 UV-I 229 W/m² -0,7 °C 11,3 km/h (2 Bft)
07.11.2016 11:20 1,0 °C 1,0 °C 90 % 1008,7 hPa 0,0 mm 4,5 km/h (1 Bft) W 269 ° 0 min 0,000 mm 1,3 UV-I 211 W/m² -0,5 °C 9,7 km/h (2 Bft)
07.11.2016 11:21 1,0 °C 1,0 °C 89 % 1008,7 hPa 0,0 mm 3,9 km/h (1 Bft) W-NW 291 ° 0 min 0,000 mm 1,3 UV-I 206 W/m² -0,6 °C 6,4 km/h (2 Bft)
07.11.2016 11:22 1,0 °C 1,0 °C 90 % 1008,6 hPa 0,0 mm 4,0 km/h (1 Bft) W-SW 249 ° 0 min 0,000 mm 1,3 UV-I 209 W/m² -0,5 °C 8,0 km/h (2 Bft)
07.11.2016 11:23 1,0 °C 1,0 °C 89 % 1008,7 hPa 0,0 mm 7,6 km/h (2 Bft) W-NW 298 ° 0 min 0,000 mm 1,4 UV-I 237 W/m² -0,6 °C 11,3 km/h (2 Bft)
07.11.2016 11:24 0,9 °C 1,0 °C 88 % 1008,6 hPa 0,0 mm 6,0 km/h (2 Bft) W 278 ° 1 min 0,000 mm 1,4 UV-I 241 W/m² -0,9 °C 9,7 km/h (2 Bft)
07.11.2016 11:25 0,9 °C 0,9 °C 89 % 1008,7 hPa 0,0 mm 5,1 km/h (1 Bft) W 273 ° 0 min 0,000 mm 1,5 UV-I 234 W/m² -0,7 °C 6,4 km/h (2 Bft)
07.11.2016 11:26 0,9 °C 1,0 °C 89 % 1008,7 hPa 0,0 mm 4,2 km/h (1 Bft) W-SW 248 ° 0 min 0,000 mm 1,4 UV-I 221 W/m² -0,7 °C 6,4 km/h (2 Bft)
07.11.2016 11:27 1,0 °C 1,0 °C 89 % 1008,6 hPa 0,2 mm 7,3 km/h (2 Bft) W-SW 252 ° 0 min 0,000 mm 1,4 UV-I 211 W/m² -0,6 °C 11,3 km/h (2 Bft)
07.11.2016 11:28 1,0 °C 1,0 °C 89 % 1008,6 hPa 0,0 mm 3,7 km/h (1 Bft) W 273 ° 0 min 0,000 mm 1,4 UV-I 209 W/m² -0,6 °C 4,8 km/h (1 Bft)
07.11.2016 11:29 1,0 °C 1,0 °C 89 % 1008,6 hPa 0,0 mm 2,6 km/h (1 Bft) W 265 ° 0 min 0,000 mm 1,4 UV-I 206 W/m² -0,6 °C 4,8 km/h (1 Bft)
07.11.2016 11:30 1,0 °C 1,0 °C 89 % 1008,6 hPa 0,0 mm 4,8 km/h (1 Bft) W-SW 240 ° 0 min 0,000 mm 1,4 UV-I 207 W/m² -0,6 °C 8,0 km/h (2 Bft)
07.11.2016 11:31 0,9 °C 1,0 °C 88 % 1008,7 hPa 0,0 mm 5,0 km/h (1 Bft) W 268 ° 0 min 0,000 mm 1,4 UV-I 209 W/m² -0,9 °C 8,0 km/h (2 Bft)
07.11.2016 11:32 0,9 °C 0,9 °C 88 % 1008,7 hPa 0,0 mm 3,0 km/h (1 Bft) W 281 ° 0 min 0,000 mm 1,4 UV-I 199 W/m² -0,9 °C 4,8 km/h (1 Bft)
07.11.2016 11:33 0,9 °C 0,9 °C 88 % 1008,7 hPa 0,0 mm 3,8 km/h (1 Bft) W-NW 286 ° 0 min 0,000 mm 1,3 UV-I 179 W/m² -0,9 °C 6,4 km/h (2 Bft)
07.11.2016 11:34 0,9 °C 0,9 °C 89 % 1008,7 hPa 0,0 mm 4,1 km/h (1 Bft) W-NW 301 ° 0 min 0,000 mm 1,3 UV-I 158 W/m² -0,7 °C 6,4 km/h (2 Bft)
07.11.2016 11:35 0,9 °C 1,0 °C 89 % 1008,7 hPa 0,0 mm 4,8 km/h (1 Bft) W-NW 293 ° 0 min 0,000 mm 1,3 UV-I 137 W/m² -0,7 °C 6,4 km/h (2 Bft)
07.11.2016 11:36 1,0 °C 1,0 °C 88 % 1008,7 hPa 0,2 mm 2,7 km/h (1 Bft) W-NW 293 ° 0 min 0,000 mm 1,3 UV-I 137 W/m² -0,8 °C 3,2 km/h (1 Bft)
07.11.2016 11:37 1,0 °C 1,0 °C 89 % 1008,7 hPa 0,0 mm 2,3 km/h (1 Bft) W-NW 284 ° 0 min 0,000 mm 1,3 UV-I 134 W/m² -0,6 °C 3,2 km/h (1 Bft)
07.11.2016 11:38 0,9 °C 1,0 °C 89 % 1008,7 hPa 0,0 mm 3,2 km/h (1 Bft) W-NW 288 ° 0 min 0,000 mm 1,3 UV-I 123 W/m² -0,7 °C 4,8 km/h (1 Bft)
07.11.2016 11:39 0,9 °C 0,9 °C 88 % 1008,7 hPa 0,0 mm 4,6 km/h (1 Bft) W 268 ° 0 min 0,000 mm 1,3 UV-I 109 W/m² -0,9 °C 8,0 km/h (2 Bft)
07.11.2016 11:40 0,9 °C 0,9 °C 88 % 1008,7 hPa 0,0 mm 5,0 km/h (1 Bft) W-NW 286 ° 0 min 0,000 mm 1,2 UV-I 97 W/m² -0,9 °C 9,7 km/h (2 Bft)
07.11.2016 11:41 0,8 °C 0,9 °C 88 % 1008,7 hPa 0,0 mm 8,2 km/h (2 Bft) W-SW 250 ° 0 min 0,000 mm 1,2 UV-I 84 W/m² -1,0 °C 11,3 km/h (2 Bft)
07.11.2016 11:42 0,8 °C 0,8 °C 88 % 1008,7 hPa 0,0 mm 4,7 km/h (1 Bft) W-NW 283 ° 0 min 0,000 mm 1,3 UV-I 88 W/m² -1,0 °C 8,0 km/h (2 Bft)
07.11.2016 11:43 0,8 °C 0,8 °C 88 % 1008,7 hPa 0,0 mm 6,6 km/h (2 Bft) W-NW 284 ° 0 min 0,000 mm 1,3 UV-I 98 W/m² -1,0 °C 9,7 km/h (2 Bft)
07.11.2016 11:44 0,8 °C 0,8 °C 89 % 1008,7 hPa 0,0 mm 6,3 km/h (2 Bft) W 280 ° 0 min 0,000 mm 1,3 UV-I 111 W/m² -0,8 °C 9,7 km/h (2 Bft)
07.11.2016 11:45 0,7 °C 0,8 °C 88 % 1008,8 hPa 0,0 mm 4,6 km/h (1 Bft) W 273 ° 0 min 0,000 mm 1,4 UV-I 118 W/m² -1,1 °C 9,7 km/h (2 Bft)
07.11.2016 11:46 0,7 °C 0,7 °C 89 % 1008,7 hPa 0,0 mm 2,9 km/h (1 Bft) W 262 ° 0 min 0,000 mm 1,4 UV-I 123 W/m² -0,9 °C 4,8 km/h (1 Bft)
07.11.2016 11:47 0,7 °C 0,7 °C 89 % 1008,7 hPa 0,2 mm 7,0 km/h (2 Bft) W-SW 250 ° 0 min 0,000 mm 1,4 UV-I 135 W/m² -0,9 °C 9,7 km/h (2 Bft)
07.11.2016 11:48 0,7 °C 0,7 °C 89 % 1008,7 hPa 0,0 mm 5,8 km/h (2 Bft) W 266 ° 0 min 0,000 mm 1,4 UV-I 142 W/m² -0,9 °C 8,0 km/h (2 Bft)
07.11.2016 11:49 0,7 °C 0,7 °C 89 % 1008,7 hPa 0,0 mm 7,2 km/h (2 Bft) W-NW 290 ° 0 min 0,000 mm 1,4 UV-I 142 W/m² -0,9 °C 12,9 km/h (3 Bft)
07.11.2016 11:50 0,7 °C 0,7 °C 88 % 1008,7 hPa 0,0 mm 8,7 km/h (2 Bft) W 281 ° 0 min 0,000 mm 1,5 UV-I 148 W/m² -1,1 °C 11,3 km/h (2 Bft)
07.11.2016 11:51 0,7 °C 0,7 °C 88 % 1008,7 hPa 0,0 mm 5,8 km/h (2 Bft) W 279 ° 0 min 0,000 mm 1,5 UV-I 151 W/m² -1,1 °C 9,7 km/h (2 Bft)
07.11.2016 11:52 0,7 °C 0,7 °C 88 % 1008,8 hPa 0,0 mm 5,8 km/h (2 Bft) W-NW 285 ° 0 min 0,000 mm 1,5 UV-I 151 W/m² -1,1 °C 9,7 km/h (2 Bft)
07.11.2016 11:53 0,7 °C 0,7 °C 88 % 1008,8 hPa 0,0 mm 7,5 km/h (2 Bft) W 272 ° 0 min 0,000 mm 1,5 UV-I 163 W/m² -1,1 °C 11,3 km/h (2 Bft)
07.11.2016 11:54 0,7 °C 0,7 °C 89 % 1008,8 hPa 0,0 mm 3,7 km/h (1 Bft) W-NW 284 ° 0 min 0,000 mm 1,5 UV-I 163 W/m² -0,9 °C 6,4 km/h (2 Bft)
07.11.2016 11:55 0,7 °C 0,7 °C 89 % 1008,8 hPa 0,0 mm 6,1 km/h (2 Bft) W-NW 282 ° 0 min 0,000 mm 1,5 UV-I 172 W/m² -0,9 °C 9,7 km/h (2 Bft)
07.11.2016 11:56 0,7 °C 0,7 °C 89 % 1008,8 hPa 0,0 mm 7,2 km/h (2 Bft) W-SW 244 ° 0 min 0,000 mm 1,5 UV-I 176 W/m² -0,9 °C 9,7 km/h (2 Bft)
07.11.2016 11:57 0,7 °C 0,7 °C 89 % 1008,8 hPa 0,0 mm 4,0 km/h (1 Bft) W 279 ° 0 min 0,000 mm 1,5 UV-I 179 W/m² -0,9 °C 6,4 km/h (2 Bft)
07.11.2016 11:58 0,7 °C 0,7 °C 89 % 1008,8 hPa 0,0 mm 6,2 km/h (2 Bft) W 266 ° 0 min 0,000 mm 1,5 UV-I 188 W/m² -0,9 °C 11,3 km/h (2 Bft)
07.11.2016 11:59 0,7 °C 0,8 °C 89 % 1008,8 hPa 0,2 mm 4,6 km/h (1 Bft) W-NW 284 ° 0 min 0,000 mm 1,5 UV-I 192 W/m² -0,9 °C 6,4 km/h (2 Bft)
07.11.2016 12:00 0,8 °C 0,8 °C 90 % 1008,8 hPa 0,0 mm 3,3 km/h (1 Bft) W-NW 284 ° 0 min 0,000 mm 1,5 UV-I 193 W/m² -0,6 °C 4,8 km/h (1 Bft)
07.11.2016 12:01 0,8 °C 0,8 °C 90 % 1008,8 hPa 0,0 mm 3,7 km/h (1 Bft) W-NW 284 ° 0 min 0,076 mm 1,5 UV-I 192 W/m² -0,6 °C 4,8 km/h (1 Bft)
07.11.2016 12:02 0,8 °C 0,8 °C 90 % 1008,9 hPa 0,0 mm 3,5 km/h (1 Bft) W 273 ° 0 min 0,000 mm 1,5 UV-I 190 W/m² -0,6 °C 4,8 km/h (1 Bft)
07.11.2016 12:03 0,8 °C 0,8 °C 90 % 1008,9 hPa 0,0 mm 4,8 km/h (1 Bft) W-SW 248 ° 0 min 0,000 mm 1,5 UV-I 190 W/m² -0,6 °C 6,4 km/h (2 Bft)
07.11.2016 12:04 0,8 °C 0,8 °C 90 % 1008,9 hPa 0,0 mm 6,0 km/h (2 Bft) W 270 ° 0 min 0,000 mm 1,5 UV-I 195 W/m² -0,6 °C 9,7 km/h (2 Bft)
07.11.2016 12:05 0,8 °C 0,8 °C 90 % 1008,8 hPa 0,0 mm 4,4 km/h (1 Bft) W 275 ° 0 min 0,000 mm 1,5 UV-I 199 W/m² -0,6 °C 6,4 km/h (2 Bft)
07.11.2016 12:06 0,8 °C 0,8 °C 90 % 1008,8 hPa 0,0 mm 2,5 km/h (1 Bft) NW 309 ° 0 min 0,000 mm 1,5 UV-I 200 W/m² -0,6 °C 4,8 km/h (1 Bft)
07.11.2016 12:07 0,8 °C 0,8 °C 89 % 1008,8 hPa 0,0 mm 3,4 km/h (1 Bft) W-NW 298 ° 0 min 0,000 mm 1,5 UV-I 200 W/m² -0,8 °C 4,8 km/h (1 Bft)
07.11.2016 12:08 0,8 °C 0,8 °C 90 % 1008,8 hPa 0,0 mm 4,5 km/h (1 Bft) W-NW 290 ° 0 min 0,000 mm 1,5 UV-I 199 W/m² -0,6 °C 8,0 km/h (2 Bft)
07.11.2016 12:09 0,8 °C 0,8 °C 90 % 1008,8 hPa 0,0 mm 4,7 km/h (1 Bft) W-NW 293 ° 0 min 0,000 mm 1,5 UV-I 197 W/m² -0,6 °C 6,4 km/h (2 Bft)
07.11.2016 12:10 0,9 °C 0,9 °C 90 % 1008,9 hPa 0,0 mm 4,5 km/h (1 Bft) W 275 ° 0 min 0,000 mm 1,4 UV-I 190 W/m² -0,6 °C 6,4 km/h (2 Bft)
07.11.2016 12:11 0,9 °C 0,9 °C 90 % 1008,8 hPa 0,0 mm 5,6 km/h (1 Bft) W-SW 251 ° 0 min 0,000 mm 1,4 UV-I 185 W/m² -0,6 °C 8,0 km/h (2 Bft)
07.11.2016 12:12 0,9 °C 0,9 °C 90 % 1008,9 hPa 0,0 mm 7,1 km/h (2 Bft) W-SW 254 ° 0 min 0,000 mm 1,3 UV-I 185 W/m² -0,6 °C 9,7 km/h (2 Bft)
07.11.2016 12:13 0,9 °C 0,9 °C 90 % 1008,9 hPa 0,0 mm 4,8 km/h (1 Bft) W-SW 257 ° 0 min 0,000 mm 1,3 UV-I 174 W/m² -0,6 °C 6,4 km/h (2 Bft)
07.11.2016 12:14 0,9 °C 0,9 °C 90 % 1009,0 hPa 0,2 mm 5,2 km/h (1 Bft) W 277 ° 0 min 0,000 mm 1,3 UV-I 174 W/m² -0,6 °C 8,0 km/h (2 Bft)
07.11.2016 12:15 0,9 °C 1,0 °C 90 % 1009,0 hPa 0,0 mm 3,1 km/h (1 Bft) W-NW 290 ° 0 min 0,000 mm 1,2 UV-I 167 W/m² -0,6 °C 6,4 km/h (2 Bft)
07.11.2016 12:16 0,9 °C 0,9 °C 90 % 1009,0 hPa 0,0 mm 1,8 km/h (1 Bft) W-NW 290 ° 0 min 0,000 mm 1,2 UV-I 167 W/m² -0,6 °C 3,2 km/h (1 Bft)
07.11.2016 12:17 0,9 °C 0,9 °C 90 % 1009,0 hPa 0,0 mm 1,5 km/h (1 Bft) W-NW 290 ° 0 min 0,000 mm 1,3 UV-I 171 W/m² -0,6 °C 3,2 km/h (1 Bft)
07.11.2016 12:18 1,0 °C 1,0 °C 90 % 1009,0 hPa 0,0 mm 4,7 km/h (1 Bft) W-NW 290 ° 0 min 0,000 mm 1,3 UV-I 174 W/m² -0,5 °C 6,4 km/h (2 Bft)
07.11.2016 12:19 0,9 °C 1,0 °C 90 % 1009,0 hPa 0,0 mm 3,6 km/h (1 Bft) W-NW 288 ° 0 min 0,000 mm 1,3 UV-I 174 W/m² -0,6 °C 4,8 km/h (1 Bft)
07.11.2016 12:20 0,9 °C 0,9 °C 90 % 1009,0 hPa 0,0 mm 3,0 km/h (1 Bft) W-NW 285 ° 0 min 0,000 mm 1,2 UV-I 165 W/m² -0,6 °C 4,8 km/h (1 Bft)
07.11.2016 12:21 0,9 °C 1,0 °C 90 % 1009,0 hPa 0,0 mm 4,4 km/h (1 Bft) W-NW 290 ° 0 min 0,000 mm 1,2 UV-I 163 W/m² -0,6 °C 6,4 km/h (2 Bft)
07.11.2016 12:22 1,0 °C 1,0 °C 90 % 1009,0 hPa 0,0 mm 3,8 km/h (1 Bft) W 264 ° 0 min 0,000 mm 1,2 UV-I 178 W/m² -0,5 °C 6,4 km/h (2 Bft)
07.11.2016 12:23 1,0 °C 1,0 °C 90 % 1009,0 hPa 0,0 mm 2,2 km/h (1 Bft) W-NW 282 ° 0 min 0,000 mm 1,2 UV-I 171 W/m² -0,5 °C 3,2 km/h (1 Bft)
07.11.2016 12:24 1,0 °C 1,0 °C 90 % 1009,0 hPa 0,0 mm 5,2 km/h (1 Bft) W 274 ° 0 min 0,000 mm 1,2 UV-I 163 W/m² -0,5 °C 9,7 km/h (2 Bft)
07.11.2016 12:25 0,9 °C 1,0 °C 90 % 1009,0 hPa 0,0 mm 9,8 km/h (2 Bft) W-SW 258 ° 0 min 0,000 mm 1,1 UV-I 156 W/m² -0,6 °C 14,5 km/h (3 Bft)
07.11.2016 12:26 0,9 °C 0,9 °C 90 % 1009,1 hPa 0,2 mm 9,5 km/h (2 Bft) W 277 ° 0 min 0,000 mm 1,1 UV-I 155 W/m² -0,6 °C 14,5 km/h (3 Bft)
07.11.2016 12:27 0,9 °C 0,9 °C 90 % 1009,0 hPa 0,0 mm 4,8 km/h (1 Bft) W-NW 291 ° 0 min 0,000 mm 1,1 UV-I 155 W/m² -0,6 °C 6,4 km/h (2 Bft)
07.11.2016 12:28 0,8 °C 0,9 °C 90 % 1009,0 hPa 0,0 mm 6,6 km/h (2 Bft) W 265 ° 0 min 0,000 mm 1,0 UV-I 144 W/m² -0,6 °C 11,3 km/h (2 Bft)
07.11.2016 12:29 0,8 °C 0,8 °C 90 % 1009,0 hPa 0,0 mm 2,6 km/h (1 Bft) W 271 ° 0 min 0,000 mm 1,0 UV-I 142 W/m² -0,6 °C 4,8 km/h (1 Bft)
07.11.2016 12:30 0,8 °C 0,8 °C 90 % 1009,0 hPa 0,0 mm 3,1 km/h (1 Bft) W 277 ° 0 min 0,000 mm 1,0 UV-I 141 W/m² -0,6 °C 4,8 km/h (1 Bft)
07.11.2016 12:31 0,8 °C 0,8 °C 91 % 1009,0 hPa 0,0 mm 3,9 km/h (1 Bft) W 279 ° 0 min 0,000 mm 1,0 UV-I 137 W/m² -0,5 °C 4,8 km/h (1 Bft)
07.11.2016 12:32 0,8 °C 0,8 °C 91 % 1009,0 hPa 0,0 mm 0,7 km/h (0 Bft) W 279 ° 0 min 0,000 mm 1,0 UV-I 137 W/m² -0,5 °C 1,6 km/h (1 Bft)
07.11.2016 12:33 0,7 °C 0,8 °C 91 % 1009,0 hPa 0,0 mm 2,3 km/h (1 Bft) W-SW 249 ° 0 min 0,000 mm 1,0 UV-I 144 W/m² -0,6 °C 4,8 km/h (1 Bft)
07.11.2016 12:34 0,7 °C 0,7 °C 91 % 1009,0 hPa 0,0 mm 4,4 km/h (1 Bft) W-SW 247 ° 0 min 0,000 mm 1,0 UV-I 151 W/m² -0,6 °C 6,4 km/h (2 Bft)
07.11.2016 12:35 0,7 °C 0,7 °C 91 % 1009,0 hPa 0,0 mm 5,9 km/h (2 Bft) W 274 ° 0 min 0,000 mm 1,1 UV-I 162 W/m² -0,6 °C 9,7 km/h (2 Bft)
07.11.2016 12:36 0,7 °C 0,7 °C 91 % 1009,0 hPa 0,0 mm 4,8 km/h (1 Bft) W-SW 256 ° 0 min 0,000 mm 1,2 UV-I 167 W/m² -0,6 °C 6,4 km/h (2 Bft)
07.11.2016 12:37 0,7 °C 0,7 °C 91 % 1009,0 hPa 0,0 mm 5,0 km/h (1 Bft) W-SW 255 ° 0 min 0,000 mm 1,2 UV-I 172 W/m² -0,6 °C 9,7 km/h (2 Bft)
07.11.2016 12:38 0,6 °C 0,7 °C 91 % 1009,0 hPa 0,2 mm 5,9 km/h (2 Bft) W-NW 286 ° 0 min 0,000 mm 1,2 UV-I 178 W/m² -0,7 °C 11,3 km/h (2 Bft)
07.11.2016 12:39 0,6 °C 0,7 °C 91 % 1009,0 hPa 0,0 mm 3,4 km/h (1 Bft) W-SW 252 ° 0 min 0,000 mm 1,2 UV-I 178 W/m² -0,7 °C 4,8 km/h (1 Bft)
07.11.2016 12:40 0,6 °C 0,7 °C 91 % 1009,0 hPa 0,0 mm 10,2 km/h (2 Bft) W 276 ° 0 min 0,000 mm 1,2 UV-I 179 W/m² -0,7 °C 14,5 km/h (3 Bft)
07.11.2016 12:41 0,6 °C 0,7 °C 91 % 1009,0 hPa 0,0 mm 8,0 km/h (2 Bft) W-NW 302 ° 0 min 0,000 mm 1,3 UV-I 178 W/m² -0,7 °C 12,9 km/h (3 Bft)
07.11.2016 12:42 0,6 °C 0,7 °C 91 % 1009,0 hPa 0,0 mm 6,8 km/h (2 Bft) W 278 ° 0 min 0,000 mm 1,3 UV-I 176 W/m² -0,7 °C 11,3 km/h (2 Bft)
07.11.2016 12:43 0,6 °C 0,7 °C 91 % 1009,0 hPa 0,0 mm 5,1 km/h (1 Bft) W-NW 284 ° 0 min 0,000 mm 1,3 UV-I 174 W/m² -0,7 °C 6,4 km/h (2 Bft)
07.11.2016 12:44 0,7 °C 0,7 °C 91 % 1009,1 hPa 0,0 mm 5,9 km/h (2 Bft) W 261 ° 0 min 0,000 mm 1,3 UV-I 176 W/m² -0,6 °C 11,3 km/h (2 Bft)
07.11.2016 12:45 0,6 °C 0,7 °C 91 % 1009,0 hPa 0,0 mm 3,8 km/h (1 Bft) W 264 ° 0 min 0,000 mm 1,3 UV-I 183 W/m² -0,7 °C 6,4 km/h (2 Bft)
07.11.2016 12:46 0,6 °C 0,6 °C 91 % 1009,0 hPa 0,0 mm 1,8 km/h (1 Bft) W 263 ° 0 min 0,000 mm 1,3 UV-I 188 W/m² -0,7 °C 3,2 km/h (1 Bft)
07.11.2016 12:47 0,6 °C 0,6 °C 91 % 1009,0 hPa 0,0 mm 4,0 km/h (1 Bft) W 263 ° 0 min 0,000 mm 1,4 UV-I 193 W/m² -0,7 °C 6,4 km/h (2 Bft)
07.11.2016 12:48 0,7 °C 0,7 °C 91 % 1009,0 hPa 0,0 mm 2,4 km/h (1 Bft) W 263 ° 0 min 0,000 mm 1,4 UV-I 197 W/m² -0,6 °C 4,8 km/h (1 Bft)
07.11.2016 12:49 0,7 °C 0,7 °C 91 % 1008,9 hPa 0,0 mm 1,7 km/h (1 Bft) W 262 ° 0 min 0,000 mm 1,4 UV-I 195 W/m² -0,6 °C 3,2 km/h (1 Bft)
07.11.2016 12:50 0,7 °C 0,7 °C 91 % 1009,0 hPa 0,2 mm 4,9 km/h (1 Bft) SW 227 ° 0 min 0,000 mm 1,3 UV-I 186 W/m² -0,6 °C 6,4 km/h (2 Bft)
07.11.2016 12:51 0,7 °C 0,7 °C 91 % 1008,9 hPa 0,0 mm 4,2 km/h (1 Bft) SW 222 ° 0 min 0,000 mm 1,3 UV-I 178 W/m² -0,6 °C 4,8 km/h (1 Bft)
07.11.2016 12:52 0,7 °C 0,7 °C 90 % 1008,9 hPa 0,0 mm 4,6 km/h (1 Bft) SW 215 ° 0 min 0,000 mm 1,3 UV-I 178 W/m² -0,7 °C 6,4 km/h (2 Bft)
07.11.2016 12:53 0,7 °C 0,7 °C 90 % 1008,9 hPa 0,0 mm 3,4 km/h (1 Bft) W-SW 237 ° 0 min 0,000 mm 1,3 UV-I 179 W/m² -0,7 °C 4,8 km/h (1 Bft)
07.11.2016 12:54 0,7 °C 0,7 °C 90 % 1008,9 hPa 0,0 mm 5,3 km/h (1 Bft) W-NW 284 ° 0 min 0,000 mm 1,3 UV-I 181 W/m² -0,7 °C 9,7 km/h (2 Bft)
07.11.2016 12:55 0,7 °C 0,7 °C 90 % 1008,9 hPa 0,0 mm 4,5 km/h (1 Bft) W 266 ° 0 min 0,000 mm 1,3 UV-I 183 W/m² -0,7 °C 6,4 km/h (2 Bft)
07.11.2016 12:56 0,7 °C 0,7 °C 90 % 1008,9 hPa 0,0 mm 3,3 km/h (1 Bft) W-SW 240 ° 0 min 0,000 mm 1,3 UV-I 183 W/m² -0,7 °C 4,8 km/h (1 Bft)
07.11.2016 12:57 0,7 °C 0,7 °C 90 % 1008,9 hPa 0,0 mm 3,2 km/h (1 Bft) W-NW 290 ° 0 min 0,000 mm 1,3 UV-I 181 W/m² -0,7 °C 4,8 km/h (1 Bft)
07.11.2016 12:58 0,8 °C 0,8 °C 90 % 1008,9 hPa 0,0 mm 2,1 km/h (1 Bft) W-NW 290 ° 0 min 0,000 mm 1,3 UV-I 183 W/m² -0,6 °C 3,2 km/h (1 Bft)
07.11.2016 12:59 0,8 °C 0,8 °C 90 % 1008,9 hPa 0,0 mm 2,3 km/h (1 Bft) W 277 ° 0 min 0,000 mm 1,3 UV-I 183 W/m² -0,6 °C 3,2 km/h (1 Bft)
07.11.2016 13:00 0,8 °C 0,8 °C 90 % 1008,9 hPa 0,0 mm 4,6 km/h (1 Bft) W 278 ° 0 min 0,000 mm 1,3 UV-I 185 W/m² -0,6 °C 6,4 km/h (2 Bft)
07.11.2016 13:01 0,8 °C 0,8 °C 90 % 1008,9 hPa 0,0 mm 3,9 km/h (1 Bft) W-SW 244 ° 0 min 0,051 mm 1,3 UV-I 186 W/m² -0,6 °C 4,8 km/h (1 Bft)
07.11.2016 13:02 0,8 °C 0,8 °C 90 % 1008,9 hPa 0,2 mm 3,0 km/h (1 Bft) W 260 ° 0 min 0,000 mm 1,3 UV-I 188 W/m² -0,6 °C 4,8 km/h (1 Bft)
07.11.2016 13:03 0,8 °C 0,8 °C 89 % 1009,0 hPa 0,0 mm 4,2 km/h (1 Bft) W 260 ° 0 min 0,000 mm 1,3 UV-I 195 W/m² -0,8 °C 6,4 km/h (2 Bft)
07.11.2016 13:04 0,8 °C 0,8 °C 90 % 1008,9 hPa 0,0 mm 2,7 km/h (1 Bft) W 260 ° 0 min 0,000 mm 1,3 UV-I 197 W/m² -0,6 °C 4,8 km/h (1 Bft)
07.11.2016 13:05 0,9 °C 0,9 °C 89 % 1008,9 hPa 0,0 mm 2,1 km/h (1 Bft) W 260 ° 0 min 0,000 mm 1,3 UV-I 200 W/m² -0,7 °C 3,2 km/h (1 Bft)
07.11.2016 13:06 0,9 °C 0,9 °C 90 % 1008,9 hPa 0,0 mm 1,3 km/h (1 Bft) W 260 ° 0 min 0,000 mm 1,3 UV-I 202 W/m² -0,6 °C 3,2 km/h (1 Bft)
07.11.2016 13:07 0,9 °C 0,9 °C 90 % 1008,9 hPa 0,0 mm 2,8 km/h (1 Bft) W 281 ° 0 min 0,000 mm 1,3 UV-I 204 W/m² -0,6 °C 4,8 km/h (1 Bft)
07.11.2016 13:08 1,0 °C 1,0 °C 90 % 1008,9 hPa 0,0 mm 3,4 km/h (1 Bft) W 281 ° 0 min 0,000 mm 1,3 UV-I 206 W/m² -0,5 °C 4,8 km/h (1 Bft)
07.11.2016 13:09 1,1 °C 1,1 °C 90 % 1008,9 hPa 0,0 mm 2,9 km/h (1 Bft) W 281 ° 0 min 0,000 mm 1,4 UV-I 213 W/m² -0,4 °C 4,8 km/h (1 Bft)
07.11.2016 13:10 1,1 °C 1,1 °C 89 % 1009,0 hPa 0,0 mm 2,3 km/h (1 Bft) W 263 ° 0 min 0,000 mm 1,4 UV-I 218 W/m² -0,5 °C 3,2 km/h (1 Bft)
07.11.2016 13:11 1,1 °C 1,1 °C 90 % 1008,9 hPa 0,0 mm 2,7 km/h (1 Bft) W 263 ° 0 min 0,000 mm 1,4 UV-I 221 W/m² -0,4 °C 4,8 km/h (1 Bft)
07.11.2016 13:12 1,1 °C 1,1 °C 89 % 1008,9 hPa 0,0 mm 2,0 km/h (1 Bft) W 263 ° 0 min 0,000 mm 1,4 UV-I 223 W/m² -0,5 °C 3,2 km/h (1 Bft)
07.11.2016 13:13 1,1 °C 1,1 °C 89 % 1008,9 hPa 0,2 mm 0,8 km/h (0 Bft) W 263 ° 1 min 0,000 mm 1,4 UV-I 227 W/m² -0,5 °C 1,6 km/h (1 Bft)
07.11.2016 13:14 1,1 °C 1,1 °C 89 % 1008,9 hPa 0,0 mm 0,0 km/h (0 Bft) W 263 ° 1 min 0,000 mm 1,4 UV-I 229 W/m² -0,5 °C 0,0 km/h (0 Bft)
07.11.2016 13:15 1,1 °C 1,1 °C 90 % 1008,9 hPa 0,0 mm 1,6 km/h (1 Bft) W 263 ° 1 min 0,000 mm 1,4 UV-I 227 W/m² -0,4 °C 3,2 km/h (1 Bft)
07.11.2016 13:16 1,2 °C 1,2 °C 90 % 1008,9 hPa 0,0 mm 4,8 km/h (1 Bft) W-SW 254 ° 1 min 0,000 mm 1,4 UV-I 227 W/m² -0,3 °C 6,4 km/h (2 Bft)
07.11.2016 13:17 1,2 °C 1,2 °C 90 % 1008,9 hPa 0,0 mm 5,6 km/h (1 Bft) W 274 ° 1 min 0,000 mm 1,4 UV-I 227 W/m² -0,3 °C 6,4 km/h (2 Bft)
07.11.2016 13:18 1,2 °C 1,2 °C 88 % 1008,9 hPa 0,0 mm 3,6 km/h (1 Bft) W 275 ° 1 min 0,000 mm 1,4 UV-I 225 W/m² -0,6 °C 6,4 km/h (2 Bft)
07.11.2016 13:19 1,2 °C 1,2 °C 88 % 1008,8 hPa 0,0 mm 3,3 km/h (1 Bft) W-NW 287 ° 1 min 0,000 mm 1,4 UV-I 230 W/m² -0,6 °C 4,8 km/h (1 Bft)
07.11.2016 13:20 1,3 °C 1,3 °C 89 % 1008,9 hPa 0,0 mm 1,7 km/h (1 Bft) W-NW 287 ° 1 min 0,000 mm 1,4 UV-I 232 W/m² -0,3 °C 4,8 km/h (1 Bft)
07.11.2016 13:21 1,3 °C 1,3 °C 88 % 1008,8 hPa 0,0 mm 6,7 km/h (2 Bft) W 269 ° 1 min 0,000 mm 1,4 UV-I 255 W/m² -0,5 °C 9,7 km/h (2 Bft)
07.11.2016 13:22 1,3 °C 1,3 °C 88 % 1008,9 hPa 0,2 mm 6,5 km/h (2 Bft) SW 227 ° 1 min 0,000 mm 1,6 UV-I 348 W/m² -0,5 °C 9,7 km/h (2 Bft)
07.11.2016 13:23 1,3 °C 1,3 °C 88 % 1008,8 hPa 0,0 mm 4,4 km/h (1 Bft) W 263 ° 1 min 0,000 mm 1,4 UV-I 348 W/m² -0,5 °C 6,4 km/h (2 Bft)
07.11.2016 13:24 1,3 °C 1,3 °C 87 % 1008,8 hPa 0,0 mm 3,2 km/h (1 Bft) W-SW 246 ° 1 min 0,000 mm 1,5 UV-I 246 W/m² -0,6 °C 6,4 km/h (2 Bft)
07.11.2016 13:25 1,4 °C 1,4 °C 87 % 1008,8 hPa 0,0 mm 4,2 km/h (1 Bft) W-SW 247 ° 1 min 0,000 mm 1,7 UV-I 246 W/m² -0,5 °C 4,8 km/h (1 Bft)
07.11.2016 13:26 1,3 °C 1,4 °C 87 % 1008,8 hPa 0,0 mm 2,9 km/h (1 Bft) W-SW 248 ° 1 min 0,000 mm 1,4 UV-I 269 W/m² -0,6 °C 4,8 km/h (1 Bft)
07.11.2016 13:27 1,3 °C 1,4 °C 86 % 1008,8 hPa 0,0 mm 4,4 km/h (1 Bft) W 268 ° 1 min 0,000 mm 1,7 UV-I 269 W/m² -0,8 °C 6,4 km/h (2 Bft)
07.11.2016 13:28 1,4 °C 1,4 °C 87 % 1008,8 hPa 0,0 mm 3,9 km/h (1 Bft) W-NW 292 ° 1 min 0,000 mm 1,8 UV-I 475 W/m² -0,5 °C 6,4 km/h (2 Bft)
07.11.2016 13:29 1,4 °C 1,4 °C 86 % 1008,8 hPa 0,0 mm 4,2 km/h (1 Bft) W 268 ° 1 min 0,000 mm 1,8 UV-I 462 W/m² -0,7 °C 6,4 km/h (2 Bft)
07.11.2016 13:30 1,4 °C 1,4 °C 86 % 1008,8 hPa 0,2 mm 6,5 km/h (2 Bft) W-NW 283 ° 1 min 0,000 mm 1,8 UV-I 475 W/m² -0,7 °C 11,3 km/h (2 Bft)
07.11.2016 13:31 1,5 °C 1,5 °C 86 % 1008,8 hPa 0,0 mm 4,3 km/h (1 Bft) NW 315 ° 1 min 0,000 mm 1,8 UV-I 480 W/m² -0,6 °C 4,8 km/h (1 Bft)
07.11.2016 13:32 1,5 °C 1,6 °C 86 % 1008,8 hPa 0,0 mm 3,9 km/h (1 Bft) NW 306 ° 1 min 0,000 mm 1,8 UV-I 471 W/m² -0,6 °C 6,4 km/h (2 Bft)
07.11.2016 13:33 1,5 °C 1,5 °C 85 % 1008,8 hPa 0,0 mm 4,6 km/h (1 Bft) NW 307 ° 1 min 0,000 mm 1,6 UV-I 367 W/m² -0,7 °C 6,4 km/h (2 Bft)
07.11.2016 13:34 1,6 °C 1,6 °C 86 % 1008,8 hPa 0,0 mm 4,8 km/h (1 Bft) W 259 ° 1 min 0,000 mm 1,4 UV-I 295 W/m² -0,5 °C 8,0 km/h (2 Bft)
07.11.2016 13:35 1,6 °C 1,6 °C 86 % 1008,8 hPa 0,0 mm 5,7 km/h (1 Bft) W-NW 290 ° 1 min 0,000 mm 1,3 UV-I 214 W/m² -0,5 °C 9,7 km/h (2 Bft)
07.11.2016 13:36 1,6 °C 1,6 °C 85 % 1008,8 hPa 0,0 mm 6,0 km/h (2 Bft) NW 320 ° 0 min 0,000 mm 1,3 UV-I 185 W/m² -0,6 °C 8,0 km/h (2 Bft)
07.11.2016 13:37 1,6 °C 1,6 °C 85 % 1008,8 hPa 0,2 mm 3,6 km/h (1 Bft) N-NW 338 ° 0 min 0,000 mm 1,3 UV-I 183 W/m² -0,6 °C 6,4 km/h (2 Bft)
07.11.2016 13:38 1,6 °C 1,6 °C 85 % 1008,8 hPa 0,0 mm 4,9 km/h (1 Bft) NW 304 ° 0 min 0,000 mm 1,3 UV-I 172 W/m² -0,6 °C 8,0 km/h (2 Bft)
07.11.2016 13:39 1,4 °C 1,6 °C 85 % 1008,8 hPa 0,0 mm 3,4 km/h (1 Bft) NW 304 ° 0 min 0,000 mm 1,3 UV-I 172 W/m² -0,8 °C 4,8 km/h (1 Bft)
07.11.2016 13:40 1,4 °C 1,5 °C 86 % 1008,7 hPa 0,0 mm 4,2 km/h (1 Bft) NW 321 ° 0 min 0,000 mm 1,3 UV-I 183 W/m² -0,7 °C 6,4 km/h (2 Bft)
07.11.2016 13:41 1,4 °C 1,5 °C 86 % 1008,7 hPa 0,0 mm 2,3 km/h (1 Bft) NW 321 ° 1 min 0,000 mm 1,3 UV-I 253 W/m² -0,7 °C 3,2 km/h (1 Bft)
07.11.2016 13:42 1,4 °C 1,5 °C 86 % 1008,7 hPa 0,0 mm 3,8 km/h (1 Bft) W-NW 288 ° 1 min 0,000 mm 1,5 UV-I 253 W/m² -0,7 °C 6,4 km/h (2 Bft)
07.11.2016 13:43 1,4 °C 1,4 °C 85 % 1008,7 hPa 0,0 mm 4,4 km/h (1 Bft) W-NW 300 ° 1 min 0,000 mm 1,6 UV-I 253 W/m² -0,8 °C 6,4 km/h (2 Bft)
07.11.2016 13:44 1,4 °C 1,4 °C 86 % 1008,7 hPa 0,2 mm 2,8 km/h (1 Bft) W 267 ° 1 min 0,000 mm 1,7 UV-I 403 W/m² -0,7 °C 4,8 km/h (1 Bft)
07.11.2016 13:45 1,5 °C 1,5 °C 85 % 1008,7 hPa 0,0 mm 7,4 km/h (2 Bft) W 271 ° 1 min 0,000 mm 1,7 UV-I 415 W/m² -0,7 °C 12,9 km/h (3 Bft)
07.11.2016 13:46 1,5 °C 1,5 °C 84 % 1008,7 hPa 0,0 mm 6,4 km/h (2 Bft) W-NW 296 ° 1 min 0,000 mm 1,5 UV-I 360 W/m² -0,9 °C 9,7 km/h (2 Bft)
07.11.2016 13:47 1,6 °C 1,6 °C 85 % 1008,7 hPa 0,0 mm 4,9 km/h (1 Bft) W-NW 290 ° 1 min 0,000 mm 1,4 UV-I 360 W/m² -0,6 °C 6,4 km/h (2 Bft)
07.11.2016 13:48 1,6 °C 1,6 °C 85 % 1008,7 hPa 0,0 mm 4,4 km/h (1 Bft) W 272 ° 1 min 0,000 mm 1,4 UV-I 244 W/m² -0,6 °C 6,4 km/h (2 Bft)
07.11.2016 13:49 1,6 °C 1,6 °C 85 % 1008,7 hPa 0,0 mm 3,2 km/h (1 Bft) W-NW 288 ° 1 min 0,000 mm 1,4 UV-I 272 W/m² -0,6 °C 4,8 km/h (1 Bft)
07.11.2016 13:50 1,7 °C 1,7 °C 85 % 1008,6 hPa 0,0 mm 4,2 km/h (1 Bft) W 269 ° 1 min 0,000 mm 1,4 UV-I 271 W/m² -0,5 °C 6,4 km/h (2 Bft)
07.11.2016 13:51 1,7 °C 1,7 °C 85 % 1008,7 hPa 0,2 mm 3,1 km/h (1 Bft) W-NW 290 ° 1 min 0,000 mm 1,4 UV-I 251 W/m² -0,5 °C 4,8 km/h (1 Bft)
07.11.2016 13:52 1,7 °C 1,7 °C 85 % 1008,7 hPa 0,0 mm 4,4 km/h (1 Bft) NW 306 ° 1 min 0,000 mm 1,4 UV-I 246 W/m² -0,5 °C 6,4 km/h (2 Bft)
07.11.2016 13:53 1,7 °C 1,7 °C 85 % 1008,7 hPa 0,0 mm 3,2 km/h (1 Bft) W-NW 290 ° 1 min 0,000 mm 1,4 UV-I 246 W/m² -0,5 °C 4,8 km/h (1 Bft)
07.11.2016 13:54 1,7 °C 1,7 °C 85 % 1008,7 hPa 0,0 mm 2,3 km/h (1 Bft) W-NW 290 ° 1 min 0,000 mm 1,3 UV-I 223 W/m² -0,5 °C 3,2 km/h (1 Bft)
07.11.2016 13:55 1,6 °C 1,7 °C 85 % 1008,7 hPa 0,0 mm 3,3 km/h (1 Bft) W-NW 294 ° 0 min 0,000 mm 1,3 UV-I 193 W/m² -0,6 °C 4,8 km/h (1 Bft)
07.11.2016 13:56 1,6 °C 1,6 °C 84 % 1008,7 hPa 0,0 mm 4,1 km/h (1 Bft) W 279 ° 0 min 0,000 mm 1,3 UV-I 185 W/m² -0,8 °C 4,8 km/h (1 Bft)
07.11.2016 13:57 1,5 °C 1,6 °C 84 % 1008,8 hPa 0,0 mm 3,4 km/h (1 Bft) W-NW 290 ° 0 min 0,000 mm 1,2 UV-I 176 W/m² -0,9 °C 4,8 km/h (1 Bft)
07.11.2016 13:58 1,5 °C 1,5 °C 85 % 1008,8 hPa 0,2 mm 3,7 km/h (1 Bft) W 281 ° 0 min 0,000 mm 1,2 UV-I 176 W/m² -0,7 °C 6,4 km/h (2 Bft)
07.11.2016 13:59 1,4 °C 1,5 °C 84 % 1008,8 hPa 0,0 mm 3,1 km/h (1 Bft) W-NW 282 ° 0 min 0,000 mm 1,2 UV-I 171 W/m² -1,0 °C 4,8 km/h (1 Bft)
07.11.2016 14:00 1,4 °C 1,4 °C 85 % 1008,8 hPa 0,0 mm 5,0 km/h (1 Bft) W-NW 300 ° 0 min 0,000 mm 1,2 UV-I 155 W/m² -0,8 °C 6,4 km/h (2 Bft)
07.11.2016 14:01 1,3 °C 1,4 °C 85 % 1008,8 hPa 0,0 mm 3,8 km/h (1 Bft) NW 311 ° 0 min 0,102 mm 1,2 UV-I 142 W/m² -0,9 °C 6,4 km/h (2 Bft)
07.11.2016 14:02 1,3 °C 1,3 °C 85 % 1008,8 hPa 0,0 mm 3,4 km/h (1 Bft) NW 321 ° 0 min 0,000 mm 1,1 UV-I 141 W/m² -0,9 °C 4,8 km/h (1 Bft)
07.11.2016 14:03 1,3 °C 1,3 °C 85 % 1008,8 hPa 0,0 mm 3,2 km/h (1 Bft) NW 321 ° 0 min 0,000 mm 1,2 UV-I 149 W/m² -0,9 °C 4,8 km/h (1 Bft)
07.11.2016 14:04 1,3 °C 1,3 °C 85 % 1008,8 hPa 0,0 mm 2,1 km/h (1 Bft) NW 306 ° 0 min 0,000 mm 1,2 UV-I 186 W/m² -0,9 °C 4,8 km/h (1 Bft)
07.11.2016 14:05 1,3 °C 1,3 °C 85 % 1008,8 hPa 0,0 mm 3,0 km/h (1 Bft) NW 304 ° 0 min 0,000 mm 1,2 UV-I 178 W/m² -0,9 °C 4,8 km/h (1 Bft)
07.11.2016 14:06 1,3 °C 1,3 °C 85 % 1008,8 hPa 0,0 mm 2,1 km/h (1 Bft) NW 304 ° 1 min 0,000 mm 1,2 UV-I 220 W/m² -0,9 °C 3,2 km/h (1 Bft)
07.11.2016 14:07 1,3 °C 1,3 °C 85 % 1008,8 hPa 0,0 mm 2,2 km/h (1 Bft) NW 304 ° 0 min 0,000 mm 1,2 UV-I 167 W/m² -0,9 °C 3,2 km/h (1 Bft)
07.11.2016 14:08 1,3 °C 1,3 °C 86 % 1008,8 hPa 0,0 mm 1,7 km/h (1 Bft) NW 304 ° 0 min 0,000 mm 1,1 UV-I 144 W/m² -0,8 °C 3,2 km/h (1 Bft)
07.11.2016 14:09 1,3 °C 1,3 °C 86 % 1008,8 hPa 0,0 mm 3,1 km/h (1 Bft) NW 308 ° 0 min 0,000 mm 1,1 UV-I 142 W/m² -0,8 °C 6,4 km/h (2 Bft)
07.11.2016 14:10 1,3 °C 1,3 °C 85 % 1008,8 hPa 0,2 mm 3,2 km/h (1 Bft) W-NW 288 ° 0 min 0,000 mm 1,1 UV-I 132 W/m² -0,9 °C 4,8 km/h (1 Bft)
07.11.2016 14:11 1,3 °C 1,3 °C 86 % 1008,7 hPa 0,0 mm 4,7 km/h (1 Bft) W-NW 284 ° 0 min 0,000 mm 1,1 UV-I 134 W/m² -0,8 °C 9,7 km/h (2 Bft)
07.11.2016 14:12 1,2 °C 1,3 °C 86 % 1008,7 hPa 0,0 mm 4,0 km/h (1 Bft) NW 306 ° 0 min 0,000 mm 1,1 UV-I 125 W/m² -0,9 °C 6,4 km/h (2 Bft)
07.11.2016 14:13 1,2 °C 1,2 °C 86 % 1008,7 hPa 0,0 mm 2,1 km/h (1 Bft) NW 306 ° 0 min 0,000 mm 1,0 UV-I 116 W/m² -0,9 °C 4,8 km/h (1 Bft)
07.11.2016 14:14 1,2 °C 1,2 °C 86 % 1008,8 hPa 0,0 mm 2,8 km/h (1 Bft) NW 306 ° 0 min 0,000 mm 1,0 UV-I 121 W/m² -0,9 °C 4,8 km/h (1 Bft)
07.11.2016 14:15 1,2 °C 1,2 °C 86 % 1008,8 hPa 0,0 mm 2,7 km/h (1 Bft) NW 306 ° 0 min 0,000 mm 1,0 UV-I 113 W/m² -0,9 °C 4,8 km/h (1 Bft)
07.11.2016 14:16 1,2 °C 1,2 °C 86 % 1008,8 hPa 0,0 mm 2,0 km/h (1 Bft) NW 306 ° 0 min 0,000 mm 1,0 UV-I 105 W/m² -0,9 °C 3,2 km/h (1 Bft)
07.11.2016 14:17 1,2 °C 1,2 °C 86 % 1008,8 hPa 0,0 mm 2,3 km/h (1 Bft) NW 305 ° 0 min 0,000 mm 1,0 UV-I 105 W/m² -0,9 °C 3,2 km/h (1 Bft)
07.11.2016 14:18 1,2 °C 1,2 °C 86 % 1008,8 hPa 0,0 mm 4,0 km/h (1 Bft) W 279 ° 0 min 0,000 mm 1,0 UV-I 113 W/m² -0,9 °C 6,4 km/h (2 Bft)
07.11.2016 14:19 1,2 °C 1,2 °C 86 % 1008,8 hPa 0,0 mm 4,6 km/h (1 Bft) W 275 ° 0 min 0,000 mm 1,0 UV-I 128 W/m² -0,9 °C 6,4 km/h (2 Bft)
07.11.2016 14:20 1,1 °C 1,2 °C 86 % 1008,8 hPa 0,0 mm 2,9 km/h (1 Bft) W 275 ° 0 min 0,000 mm 1,0 UV-I 148 W/m² -1,0 °C 3,2 km/h (1 Bft)
07.11.2016 14:21 1,1 °C 1,2 °C 86 % 1008,8 hPa 0,0 mm 2,6 km/h (1 Bft) W 275 ° 0 min 0,000 mm 1,0 UV-I 155 W/m² -1,0 °C 3,2 km/h (1 Bft)
07.11.2016 14:22 1,0 °C 1,1 °C 86 % 1008,8 hPa 0,0 mm 3,2 km/h (1 Bft) W 275 ° 0 min 0,000 mm 1,0 UV-I 153 W/m² -1,1 °C 4,8 km/h (1 Bft)
07.11.2016 14:23 1,0 °C 1,0 °C 87 % 1008,8 hPa 0,0 mm 2,5 km/h (1 Bft) W 275 ° 0 min 0,000 mm 1,0 UV-I 156 W/m² -0,9 °C 3,2 km/h (1 Bft)
07.11.2016 14:24 1,0 °C 1,1 °C 87 % 1008,9 hPa 0,0 mm 2,5 km/h (1 Bft) W 275 ° 0 min 0,000 mm 1,0 UV-I 162 W/m² -0,9 °C 3,2 km/h (1 Bft)
07.11.2016 14:25 1,1 °C 1,1 °C 87 % 1008,9 hPa 0,0 mm 3,4 km/h (1 Bft) W 275 ° 0 min 0,000 mm 1,0 UV-I 160 W/m² -0,8 °C 4,8 km/h (1 Bft)
07.11.2016 14:26 0,9 °C 1,1 °C 86 % 1008,9 hPa 0,2 mm 2,4 km/h (1 Bft) W 275 ° 0 min 0,000 mm 1,0 UV-I 151 W/m² -1,2 °C 4,8 km/h (1 Bft)
07.11.2016 14:27 0,9 °C 0,9 °C 87 % 1008,9 hPa 0,0 mm 1,9 km/h (1 Bft) W 275 ° 1 min 0,000 mm 1,0 UV-I 172 W/m² -1,0 °C 3,2 km/h (1 Bft)
07.11.2016 14:28 0,9 °C 0,9 °C 88 % 1008,9 hPa 0,0 mm 1,4 km/h (1 Bft) W 275 ° 1 min 0,000 mm 1,0 UV-I 181 W/m² -0,9 °C 1,6 km/h (1 Bft)
07.11.2016 14:29 0,8 °C 0,9 °C 88 % 1008,9 hPa 0,0 mm 0,9 km/h (0 Bft) W 275 ° 1 min 0,000 mm 1,0 UV-I 183 W/m² -1,0 °C 1,6 km/h (1 Bft)
07.11.2016 14:30 0,9 °C 0,9 °C 88 % 1009,0 hPa 0,0 mm 3,6 km/h (1 Bft) W-SW 244 ° 0 min 0,000 mm 1,0 UV-I 167 W/m² -0,9 °C 6,4 km/h (2 Bft)
07.11.2016 14:31 0,9 °C 0,9 °C 88 % 1008,9 hPa 0,0 mm 3,0 km/h (1 Bft) W-SW 250 ° 0 min 0,000 mm 1,0 UV-I 156 W/m² -0,9 °C 4,8 km/h (1 Bft)
07.11.2016 14:32 0,9 °C 0,9 °C 88 % 1008,9 hPa 0,0 mm 2,7 km/h (1 Bft) W-SW 250 ° 0 min 0,000 mm 1,0 UV-I 141 W/m² -0,9 °C 3,2 km/h (1 Bft)
07.11.2016 14:33 1,0 °C 1,0 °C 88 % 1008,9 hPa 0,0 mm 2,4 km/h (1 Bft) W-NW 294 ° 0 min 0,000 mm 0,9 UV-I 125 W/m² -0,8 °C 4,8 km/h (1 Bft)
07.11.2016 14:34 1,1 °C 1,1 °C 88 % 1008,9 hPa 0,0 mm 3,0 km/h (1 Bft) W-NW 296 ° 0 min 0,000 mm 0,9 UV-I 114 W/m² -0,7 °C 4,8 km/h (1 Bft)
07.11.2016 14:35 1,1 °C 1,1 °C 88 % 1009,0 hPa 0,0 mm 2,0 km/h (1 Bft) W-NW 296 ° 0 min 0,000 mm 0,9 UV-I 105 W/m² -0,7 °C 3,2 km/h (1 Bft)
07.11.2016 14:36 1,1 °C 1,1 °C 88 % 1009,0 hPa 0,0 mm 2,2 km/h (1 Bft) W-NW 296 ° 0 min 0,000 mm 0,8 UV-I 98 W/m² -0,7 °C 3,2 km/h (1 Bft)
07.11.2016 14:37 1,1 °C 1,2 °C 88 % 1009,0 hPa 0,0 mm 1,8 km/h (1 Bft) W-NW 296 ° 0 min 0,000 mm 0,8 UV-I 90 W/m² -0,7 °C 3,2 km/h (1 Bft)
07.11.2016 14:38 1,1 °C 1,1 °C 87 % 1008,9 hPa 0,0 mm 1,6 km/h (1 Bft) W-NW 296 ° 0 min 0,000 mm 0,8 UV-I 86 W/m² -0,8 °C 3,2 km/h (1 Bft)
07.11.2016 14:39 1,1 °C 1,1 °C 88 % 1008,9 hPa 0,0 mm 1,7 km/h (1 Bft) W-NW 296 ° 0 min 0,000 mm 0,8 UV-I 84 W/m² -0,7 °C 3,2 km/h (1 Bft)
07.11.2016 14:40 1,0 °C 1,1 °C 87 % 1008,9 hPa 0,0 mm 0,7 km/h (0 Bft) W-NW 296 ° 0 min 0,000 mm 0,8 UV-I 83 W/m² -0,9 °C 1,6 km/h (1 Bft)
07.11.2016 14:41 1,0 °C 1,0 °C 88 % 1009,0 hPa 0,0 mm 1,2 km/h (1 Bft) W-NW 296 ° 0 min 0,000 mm 0,8 UV-I 79 W/m² -0,8 °C 1,6 km/h (1 Bft)
07.11.2016 14:42 0,9 °C 1,0 °C 88 % 1008,9 hPa 0,0 mm 1,5 km/h (1 Bft) W-NW 296 ° 0 min 0,000 mm 0,8 UV-I 77 W/m² -0,9 °C 1,6 km/h (1 Bft)
07.11.2016 14:43 0,9 °C 0,9 °C 88 % 1009,0 hPa 0,0 mm 1,5 km/h (1 Bft) W-NW 296 ° 0 min 0,000 mm 0,7 UV-I 77 W/m² -0,9 °C 3,2 km/h (1 Bft)
07.11.2016 14:44 0,8 °C 0,9 °C 88 % 1009,0 hPa 0,0 mm 1,1 km/h (1 Bft) W-NW 296 ° 0 min 0,000 mm 0,7 UV-I 77 W/m² -1,0 °C 1,6 km/h (1 Bft)
07.11.2016 14:45 0,8 °C 0,8 °C 88 % 1009,0 hPa 0,0 mm 1,4 km/h (1 Bft) W-NW 296 ° 0 min 0,000 mm 0,7 UV-I 77 W/m² -1,0 °C 1,6 km/h (1 Bft)
07.11.2016 14:46 0,8 °C 0,8 °C 88 % 1009,1 hPa 0,2 mm 1,2 km/h (1 Bft) W-NW 296 ° 0 min 0,000 mm 0,7 UV-I 77 W/m² -1,0 °C 3,2 km/h (1 Bft)
07.11.2016 14:47 0,8 °C 0,8 °C 88 % 1009,0 hPa 0,0 mm 2,4 km/h (1 Bft) W-NW 296 ° 0 min 0,000 mm 0,7 UV-I 76 W/m² -1,0 °C 3,2 km/h (1 Bft)
07.11.2016 14:48 0,8 °C 0,8 °C 88 % 1009,1 hPa 0,0 mm 0,3 km/h (0 Bft) W-NW 296 ° 0 min 0,000 mm 0,7 UV-I 74 W/m² -1,0 °C 1,6 km/h (1 Bft)
07.11.2016 14:49 0,8 °C 0,8 °C 88 % 1009,1 hPa 0,0 mm 0,7 km/h (0 Bft) W-NW 296 ° 0 min 0,000 mm 0,7 UV-I 74 W/m² -1,0 °C 1,6 km/h (1 Bft)
07.11.2016 14:50 0,8 °C 0,8 °C 89 % 1009,1 hPa 0,0 mm 1,5 km/h (1 Bft) W-NW 296 ° 0 min 0,000 mm 0,6 UV-I 76 W/m² -0,8 °C 1,6 km/h (1 Bft)
07.11.2016 14:51 0,8 °C 0,8 °C 89 % 1009,1 hPa 0,0 mm 1,5 km/h (1 Bft) W-NW 296 ° 0 min 0,000 mm 0,6 UV-I 77 W/m² -0,8 °C 3,2 km/h (1 Bft)
07.11.2016 14:52 0,9 °C 0,9 °C 89 % 1009,1 hPa 0,0 mm 0,9 km/h (0 Bft) W-NW 296 ° 0 min 0,000 mm 0,6 UV-I 81 W/m² -0,7 °C 1,6 km/h (1 Bft)
07.11.2016 14:53 0,9 °C 0,9 °C 90 % 1009,1 hPa 0,0 mm 0,9 km/h (0 Bft) W-NW 296 ° 0 min 0,000 mm 0,6 UV-I 83 W/m² -0,6 °C 1,6 km/h (1 Bft)
07.11.2016 14:54 0,9 °C 0,9 °C 89 % 1009,1 hPa 0,0 mm 0,9 km/h (0 Bft) W-NW 296 ° 0 min 0,000 mm 0,6 UV-I 83 W/m² -0,7 °C 3,2 km/h (1 Bft)
07.11.2016 14:55 0,9 °C 0,9 °C 89 % 1009,1 hPa 0,0 mm 1,8 km/h (1 Bft) SW 233 ° 0 min 0,000 mm 0,6 UV-I 86 W/m² -0,7 °C 3,2 km/h (1 Bft)
07.11.2016 14:56 0,9 °C 0,9 °C 89 % 1009,2 hPa 0,0 mm 0,6 km/h (0 Bft) SW 233 ° 0 min 0,000 mm 0,6 UV-I 88 W/m² -0,7 °C 1,6 km/h (1 Bft)
07.11.2016 14:57 0,9 °C 0,9 °C 89 % 1009,2 hPa 0,0 mm 1,3 km/h (1 Bft) SW 233 ° 0 min 0,000 mm 0,5 UV-I 88 W/m² -0,7 °C 1,6 km/h (1 Bft)
07.11.2016 14:58 0,9 °C 1,0 °C 89 % 1009,3 hPa 0,0 mm 0,5 km/h (0 Bft) SW 233 ° 0 min 0,000 mm 0,5 UV-I 86 W/m² -0,7 °C 1,6 km/h (1 Bft)
07.11.2016 14:59 0,9 °C 1,0 °C 89 % 1009,3 hPa 0,0 mm 1,6 km/h (1 Bft) SW 233 ° 0 min 0,000 mm 0,5 UV-I 84 W/m² -0,7 °C 3,2 km/h (1 Bft)
07.11.2016 15:00 0,9 °C 0,9 °C 90 % 1009,3 hPa 0,0 mm 2,4 km/h (1 Bft) SW 233 ° 0 min 0,000 mm 0,5 UV-I 91 W/m² -0,6 °C 3,2 km/h (1 Bft)
07.11.2016 15:01 0,9 °C 0,9 °C 90 % 1009,3 hPa 0,0 mm 2,1 km/h (1 Bft) SW 233 ° 0 min 0,051 mm 0,5 UV-I 97 W/m² -0,6 °C 3,2 km/h (1 Bft)
07.11.2016 15:02 0,9 °C 0,9 °C 90 % 1009,3 hPa 0,0 mm 1,7 km/h (1 Bft) SW 233 ° 0 min 0,000 mm 0,5 UV-I 100 W/m² -0,6 °C 3,2 km/h (1 Bft)
07.11.2016 15:03 0,9 °C 0,9 °C 90 % 1009,3 hPa 0,0 mm 1,7 km/h (1 Bft) SW 233 ° 0 min 0,000 mm 0,6 UV-I 104 W/m² -0,6 °C 3,2 km/h (1 Bft)
07.11.2016 15:04 0,9 °C 0,9 °C 91 % 1009,3 hPa 0,0 mm 0,8 km/h (0 Bft) SW 233 ° 0 min 0,000 mm 0,6 UV-I 104 W/m² -0,4 °C 1,6 km/h (1 Bft)
07.11.2016 15:05 0,9 °C 0,9 °C 90 % 1009,3 hPa 0,0 mm 0,8 km/h (0 Bft) SW 233 ° 0 min 0,000 mm 0,6 UV-I 102 W/m² -0,6 °C 1,6 km/h (1 Bft)
07.11.2016 15:06 0,9 °C 1,0 °C 91 % 1009,3 hPa 0,0 mm 0,8 km/h (0 Bft) SW 233 ° 0 min 0,000 mm 0,6 UV-I 98 W/m² -0,4 °C 1,6 km/h (1 Bft)
07.11.2016 15:07 1,0 °C 1,0 °C 91 % 1009,3 hPa 0,0 mm 0,0 km/h (0 Bft) SW 233 ° 0 min 0,000 mm 0,5 UV-I 97 W/m² -0,3 °C 0,0 km/h (0 Bft)
07.11.2016 15:08 0,9 °C 1,0 °C 91 % 1009,3 hPa 0,0 mm 0,1 km/h (0 Bft) SW 233 ° 0 min 0,000 mm 0,5 UV-I 93 W/m² -0,4 °C 1,6 km/h (1 Bft)
07.11.2016 15:09 1,0 °C 1,0 °C 91 % 1009,3 hPa 0,0 mm 0,8 km/h (0 Bft) SW 233 ° 0 min 0,000 mm 0,5 UV-I 90 W/m² -0,3 °C 1,6 km/h (1 Bft)
07.11.2016 15:10 1,0 °C 1,0 °C 91 % 1009,2 hPa 0,0 mm 0,5 km/h (0 Bft) SW 233 ° 0 min 0,000 mm 0,5 UV-I 86 W/m² -0,3 °C 1,6 km/h (1 Bft)
07.11.2016 15:11 1,0 °C 1,0 °C 91 % 1009,2 hPa 0,0 mm 0,0 km/h (0 Bft) SW 233 ° 0 min 0,000 mm 0,5 UV-I 86 W/m² -0,3 °C 0,0 km/h (0 Bft)
07.11.2016 15:12 1,0 °C 1,0 °C 91 % 1009,3 hPa 0,0 mm 0,6 km/h (0 Bft) SW 233 ° 0 min 0,000 mm 0,5 UV-I 88 W/m² -0,3 °C 1,6 km/h (1 Bft)
07.11.2016 15:13 1,0 °C 1,0 °C 91 % 1009,3 hPa 0,0 mm 0,3 km/h (0 Bft) SW 233 ° 0 min 0,000 mm 0,5 UV-I 90 W/m² -0,3 °C 1,6 km/h (1 Bft)
07.11.2016 15:14 1,1 °C 1,1 °C 91 % 1009,2 hPa 0,0 mm 0,3 km/h (0 Bft) SW 233 ° 0 min 0,000 mm 0,5 UV-I 91 W/m² -0,2 °C 1,6 km/h (1 Bft)
07.11.2016 15:15 1,0 °C 1,1 °C 91 % 1009,3 hPa 0,2 mm 0,1 km/h (0 Bft) SW 233 ° 0 min 0,000 mm 0,5 UV-I 93 W/m² -0,3 °C 1,6 km/h (1 Bft)
07.11.2016 15:16 1,1 °C 1,1 °C 90 % 1009,2 hPa 0,0 mm 0,0 km/h (0 Bft) SW 233 ° 0 min 0,000 mm 0,5 UV-I 93 W/m² -0,4 °C 0,0 km/h (0 Bft)
07.11.2016 15:17 1,1 °C 1,1 °C 91 % 1009,3 hPa 0,0 mm 0,0 km/h (0 Bft) SW 233 ° 0 min 0,000 mm 0,5 UV-I 93 W/m² -0,2 °C 0,0 km/h (0 Bft)
07.11.2016 15:18 1,1 °C 1,1 °C 91 % 1009,2 hPa 0,0 mm 0,0 km/h (0 Bft) SW 233 ° 0 min 0,000 mm 0,5 UV-I 90 W/m² -0,2 °C 0,0 km/h (0 Bft)
07.11.2016 15:19 1,1 °C 1,1 °C 91 % 1009,2 hPa 0,0 mm 0,0 km/h (0 Bft) SW 233 ° 0 min 0,000 mm 0,5 UV-I 88 W/m² -0,2 °C 0,0 km/h (0 Bft)
07.11.2016 15:20 1,1 °C 1,1 °C 91 % 1009,3 hPa 0,0 mm 0,2 km/h (0 Bft) SW 233 ° 0 min 0,000 mm 0,5 UV-I 88 W/m² -0,2 °C 1,6 km/h (1 Bft)
07.11.2016 15:21 1,1 °C 1,1 °C 90 % 1009,2 hPa 0,0 mm 0,4 km/h (0 Bft) SW 233 ° 0 min 0,000 mm 0,5 UV-I 86 W/m² -0,4 °C 1,6 km/h (1 Bft)
07.11.2016 15:22 1,1 °C 1,1 °C 90 % 1009,2 hPa 0,0 mm 0,1 km/h (0 Bft) SW 233 ° 0 min 0,000 mm 0,5 UV-I 86 W/m² -0,4 °C 1,6 km/h (1 Bft)
07.11.2016 15:23 1,1 °C 1,1 °C 90 % 1009,2 hPa 0,0 mm 0,1 km/h (0 Bft) SW 233 ° 0 min 0,000 mm 0,5 UV-I 81 W/m² -0,4 °C 1,6 km/h (1 Bft)
07.11.2016 15:24 1,0 °C 1,1 °C 90 % 1009,2 hPa 0,0 mm 0,8 km/h (0 Bft) SW 233 ° 0 min 0,000 mm 0,0 UV-I 79 W/m² -0,5 °C 1,6 km/h (1 Bft)
07.11.2016 15:25 1,0 °C 1,0 °C 90 % 1009,3 hPa 0,0 mm 0,0 km/h (0 Bft) SW 233 ° 0 min 0,000 mm 0,0 UV-I 77 W/m² -0,5 °C 0,0 km/h (0 Bft)
07.11.2016 15:26 1,0 °C 1,0 °C 90 % 1009,3 hPa 0,0 mm 0,0 km/h (0 Bft) SW 233 ° 0 min 0,000 mm 0,0 UV-I 76 W/m² -0,5 °C 0,0 km/h (0 Bft)
07.11.2016 15:27 1,0 °C 1,0 °C 91 % 1009,3 hPa 0,0 mm 0,1 km/h (0 Bft) SW 233 ° 0 min 0,000 mm 0,0 UV-I 76 W/m² -0,3 °C 1,6 km/h (1 Bft)
07.11.2016 15:28 1,0 °C 1,1 °C 91 % 1009,3 hPa 0,0 mm 0,7 km/h (0 Bft) SW 233 ° 0 min 0,000 mm 0,0 UV-I 76 W/m² -0,3 °C 1,6 km/h (1 Bft)
07.11.2016 15:29 1,0 °C 1,1 °C 90 % 1009,3 hPa 0,0 mm 0,9 km/h (0 Bft) SW 233 ° 0 min 0,000 mm 0,0 UV-I 76 W/m² -0,5 °C 1,6 km/h (1 Bft)
07.11.2016 15:30 1,0 °C 1,0 °C 90 % 1009,3 hPa 0,0 mm 1,2 km/h (1 Bft) SW 233 ° 0 min 0,000 mm 0,0 UV-I 74 W/m² -0,5 °C 1,6 km/h (1 Bft)
07.11.2016 15:31 1,0 °C 1,1 °C 90 % 1009,2 hPa 0,0 mm 1,3 km/h (1 Bft) SW 233 ° 0 min 0,000 mm 0,0 UV-I 74 W/m² -0,5 °C 1,6 km/h (1 Bft)
07.11.2016 15:32 1,0 °C 1,1 °C 90 % 1009,3 hPa 0,0 mm 1,5 km/h (1 Bft) SW 233 ° 0 min 0,000 mm 0,0 UV-I 74 W/m² -0,5 °C 1,6 km/h (1 Bft)
07.11.2016 15:33 1,0 °C 1,0 °C 90 % 1009,3 hPa 0,0 mm 1,3 km/h (1 Bft) SW 233 ° 0 min 0,000 mm 0,0 UV-I 72 W/m² -0,5 °C 1,6 km/h (1 Bft)
07.11.2016 15:34 1,0 °C 1,0 °C 90 % 1009,3 hPa 0,0 mm 0,9 km/h (0 Bft) SW 233 ° 0 min 0,000 mm 0,0 UV-I 70 W/m² -0,5 °C 1,6 km/h (1 Bft)
07.11.2016 15:35 1,0 °C 1,0 °C 90 % 1009,3 hPa 0,0 mm 0,3 km/h (0 Bft) SW 233 ° 0 min 0,000 mm 0,0 UV-I 67 W/m² -0,5 °C 1,6 km/h (1 Bft)
07.11.2016 15:36 1,0 °C 1,0 °C 91 % 1009,3 hPa 0,0 mm 0,0 km/h (0 Bft) SW 233 ° 0 min 0,000 mm 0,0 UV-I 67 W/m² -0,3 °C 0,0 km/h (0 Bft)
07.11.2016 15:37 0,9 °C 1,0 °C 90 % 1009,3 hPa 0,0 mm 0,0 km/h (0 Bft) SW 233 ° 0 min 0,000 mm 0,0 UV-I 67 W/m² -0,6 °C 0,0 km/h (0 Bft)
07.11.2016 15:38 0,9 °C 1,0 °C 91 % 1009,3 hPa 0,0 mm 0,0 km/h (0 Bft) SW 233 ° 0 min 0,000 mm 0,0 UV-I 67 W/m² -0,4 °C 0,0 km/h (0 Bft)
07.11.2016 15:39 0,9 °C 0,9 °C 90 % 1009,3 hPa 0,0 mm 0,0 km/h (0 Bft) SW 233 ° 0 min 0,000 mm 0,0 UV-I 67 W/m² -0,6 °C 0,0 km/h (0 Bft)
07.11.2016 15:40 0,9 °C 0,9 °C 90 % 1009,3 hPa 0,0 mm 0,0 km/h (0 Bft) SW 233 ° 0 min 0,000 mm 0,0 UV-I 67 W/m² -0,6 °C 0,0 km/h (0 Bft)
07.11.2016 15:41 0,9 °C 0,9 °C 90 % 1009,2 hPa 0,0 mm 0,0 km/h (0 Bft) SW 233 ° 0 min 0,000 mm 0,0 UV-I 67 W/m² -0,6 °C 0,0 km/h (0 Bft)
07.11.2016 15:42 0,9 °C 0,9 °C 90 % 1009,2 hPa 0,0 mm 0,0 km/h (0 Bft) SW 233 ° 0 min 0,000 mm 0,0 UV-I 65 W/m² -0,6 °C 0,0 km/h (0 Bft)
07.11.2016 15:43 0,9 °C 0,9 °C 90 % 1009,2 hPa 0,2 mm 0,0 km/h (0 Bft) SW 233 ° 0 min 0,000 mm 0,0 UV-I 65 W/m² -0,6 °C 0,0 km/h (0 Bft)
07.11.2016 15:44 0,9 °C 0,9 °C 90 % 1009,2 hPa 0,0 mm 0,0 km/h (0 Bft) SW 233 ° 0 min 0,000 mm 0,0 UV-I 63 W/m² -0,6 °C 0,0 km/h (0 Bft)
07.11.2016 15:45 0,9 °C 0,9 °C 90 % 1009,2 hPa 0,0 mm 0,0 km/h (0 Bft) SW 233 ° 0 min 0,000 mm 0,0 UV-I 62 W/m² -0,6 °C 0,0 km/h (0 Bft)
07.11.2016 15:46 0,9 °C 0,9 °C 91 % 1009,2 hPa 0,0 mm 0,3 km/h (0 Bft) SW 233 ° 0 min 0,000 mm 0,0 UV-I 60 W/m² -0,4 °C 1,6 km/h (1 Bft)
07.11.2016 15:47 0,8 °C 0,9 °C 90 % 1009,2 hPa 0,0 mm 0,3 km/h (0 Bft) SW 233 ° 0 min 0,000 mm 0,0 UV-I 56 W/m² -0,6 °C 1,6 km/h (1 Bft)
07.11.2016 15:48 0,8 °C 0,9 °C 91 % 1009,2 hPa 0,0 mm 0,3 km/h (0 Bft) SW 233 ° 0 min 0,000 mm 0,0 UV-I 54 W/m² -0,5 °C 1,6 km/h (1 Bft)
07.11.2016 15:49 0,8 °C 0,8 °C 91 % 1009,2 hPa 0,0 mm 0,5 km/h (0 Bft) SW 233 ° 0 min 0,000 mm 0,0 UV-I 54 W/m² -0,5 °C 1,6 km/h (1 Bft)
07.11.2016 15:50 0,8 °C 0,8 °C 90 % 1009,3 hPa 0,0 mm 0,0 km/h (0 Bft) SW 233 ° 0 min 0,000 mm 0,0 UV-I 51 W/m² -0,6 °C 0,0 km/h (0 Bft)
07.11.2016 15:51 0,8 °C 0,8 °C 90 % 1009,3 hPa 0,0 mm 0,0 km/h (0 Bft) SW 233 ° 0 min 0,000 mm 0,0 UV-I 49 W/m² -0,6 °C 0,0 km/h (0 Bft)
07.11.2016 15:52 0,8 °C 0,8 °C 90 % 1009,4 hPa 0,0 mm 0,0 km/h (0 Bft) SW 233 ° 0 min 0,000 mm 0,0 UV-I 47 W/m² -0,6 °C 0,0 km/h (0 Bft)
07.11.2016 15:53 0,8 °C 0,8 °C 90 % 1009,4 hPa 0,0 mm 0,0 km/h (0 Bft) SW 233 ° 0 min 0,000 mm 0,0 UV-I 44 W/m² -0,6 °C 0,0 km/h (0 Bft)
07.11.2016 15:54 0,8 °C 0,8 °C 90 % 1009,4 hPa 0,0 mm 0,5 km/h (0 Bft) SW 233 ° 0 min 0,000 mm 0,0 UV-I 44 W/m² -0,6 °C 1,6 km/h (1 Bft)
07.11.2016 15:55 0,8 °C 0,8 °C 90 % 1009,4 hPa 0,0 mm 1,1 km/h (1 Bft) SW 233 ° 0 min 0,000 mm 0,0 UV-I 42 W/m² -0,6 °C 1,6 km/h (1 Bft)
07.11.2016 15:56 0,8 °C 0,8 °C 91 % 1009,4 hPa 0,0 mm 1,3 km/h (1 Bft) SW 233 ° 0 min 0,000 mm 0,0 UV-I 42 W/m² -0,5 °C 1,6 km/h (1 Bft)
07.11.2016 15:57 0,8 °C 0,8 °C 91 % 1009,4 hPa 0,0 mm 1,4 km/h (1 Bft) SW 233 ° 0 min 0,000 mm 0,0 UV-I 42 W/m² -0,5 °C 1,6 km/h (1 Bft)
07.11.2016 15:58 0,8 °C 0,8 °C 91 % 1009,4 hPa 0,0 mm 1,4 km/h (1 Bft) SW 233 ° 0 min 0,000 mm 0,0 UV-I 39 W/m² -0,5 °C 3,2 km/h (1 Bft)
07.11.2016 15:59 0,8 °C 0,8 °C 92 % 1009,4 hPa 0,0 mm 1,2 km/h (1 Bft) SW 233 ° 0 min 0,000 mm 0,0 UV-I 37 W/m² -0,3 °C 1,6 km/h (1 Bft)
07.11.2016 16:00 0,8 °C 0,8 °C 92 % 1009,4 hPa 0,0 mm 1,2 km/h (1 Bft) SW 233 ° 0 min 0,025 mm 0,0 UV-I 37 W/m² -0,3 °C 1,6 km/h (1 Bft)
07.11.2016 16:01 0,8 °C 0,8 °C 92 % 1009,4 hPa 0,0 mm 1,1 km/h (1 Bft) SW 233 ° 0 min 0,000 mm 0,0 UV-I 35 W/m² -0,3 °C 1,6 km/h (1 Bft)
07.11.2016 16:02 0,8 °C 0,8 °C 92 % 1009,4 hPa 0,0 mm 0,9 km/h (0 Bft) SW 233 ° 0 min 0,000 mm 0,0 UV-I 33 W/m² -0,3 °C 1,6 km/h (1 Bft)
07.11.2016 16:03 0,8 °C 0,8 °C 92 % 1009,4 hPa 0,0 mm 0,2 km/h (0 Bft) SW 233 ° 0 min 0,000 mm 0,0 UV-I 32 W/m² -0,3 °C 1,6 km/h (1 Bft)
07.11.2016 16:04 0,7 °C 0,8 °C 92 % 1009,4 hPa 0,0 mm 0,8 km/h (0 Bft) SW 233 ° 0 min 0,000 mm 0,0 UV-I 32 W/m² -0,4 °C 1,6 km/h (1 Bft)
07.11.2016 16:05 0,7 °C 0,7 °C 92 % 1009,4 hPa 0,0 mm 0,3 km/h (0 Bft) SW 233 ° 0 min 0,000 mm 0,0 UV-I 30 W/m² -0,4 °C 1,6 km/h (1 Bft)
07.11.2016 16:06 0,7 °C 0,7 °C 92 % 1009,4 hPa 0,0 mm 0,9 km/h (0 Bft) SW 233 ° 0 min 0,000 mm 0,0 UV-I 30 W/m² -0,4 °C 1,6 km/h (1 Bft)
07.11.2016 16:07 0,7 °C 0,7 °C 92 % 1009,4 hPa 0,0 mm 1,0 km/h (0 Bft) SW 233 ° 0 min 0,000 mm 0,0 UV-I 30 W/m² -0,4 °C 1,6 km/h (1 Bft)
07.11.2016 16:08 0,7 °C 0,7 °C 92 % 1009,4 hPa 0,0 mm 1,4 km/h (1 Bft) SW 233 ° 0 min 0,000 mm 0,0 UV-I 28 W/m² -0,4 °C 1,6 km/h (1 Bft)
07.11.2016 16:09 0,7 °C 0,7 °C 92 % 1009,5 hPa 0,0 mm 1,3 km/h (1 Bft) SW 233 ° 0 min 0,000 mm 0,0 UV-I 26 W/m² -0,4 °C 1,6 km/h (1 Bft)
07.11.2016 16:10 0,7 °C 0,7 °C 92 % 1009,4 hPa 0,0 mm 1,3 km/h (1 Bft) SW 233 ° 0 min 0,000 mm 0,0 UV-I 23 W/m² -0,4 °C 1,6 km/h (1 Bft)
07.11.2016 16:11 0,7 °C 0,8 °C 92 % 1009,5 hPa 0,0 mm 1,0 km/h (0 Bft) SW 233 ° 0 min 0,000 mm 0,0 UV-I 21 W/m² -0,4 °C 1,6 km/h (1 Bft)
07.11.2016 16:12 0,7 °C 0,7 °C 92 % 1009,4 hPa 0,0 mm 1,1 km/h (1 Bft) SW 233 ° 0 min 0,000 mm 0,0 UV-I 21 W/m² -0,4 °C 1,6 km/h (1 Bft)
07.11.2016 16:13 0,7 °C 0,8 °C 92 % 1009,4 hPa 0,0 mm 1,0 km/h (0 Bft) SW 233 ° 0 min 0,000 mm 0,0 UV-I 19 W/m² -0,4 °C 1,6 km/h (1 Bft)
07.11.2016 16:14 0,7 °C 0,8 °C 92 % 1009,4 hPa 0,0 mm 1,3 km/h (1 Bft) SW 233 ° 0 min 0,000 mm 0,0 UV-I 18 W/m² -0,4 °C 1,6 km/h (1 Bft)
07.11.2016 16:15 0,7 °C 0,8 °C 92 % 1009,4 hPa 0,0 mm 1,2 km/h (1 Bft) SW 233 ° 0 min 0,000 mm 0,0 UV-I 16 W/m² -0,4 °C 1,6 km/h (1 Bft)
07.11.2016 16:16 0,8 °C 0,8 °C 93 % 1009,4 hPa 0,0 mm 1,0 km/h (0 Bft) SW 233 ° 0 min 0,000 mm 0,0 UV-I 14 W/m² -0,2 °C 1,6 km/h (1 Bft)
07.11.2016 16:17 0,7 °C 0,8 °C 93 % 1009,5 hPa 0,0 mm 0,9 km/h (0 Bft) SW 233 ° 0 min 0,000 mm 0,0 UV-I 12 W/m² -0,3 °C 1,6 km/h (1 Bft)
07.11.2016 16:18 0,7 °C 0,7 °C 93 % 1009,4 hPa 0,0 mm 1,1 km/h (1 Bft) SW 233 ° 0 min 0,000 mm 0,0 UV-I 12 W/m² -0,3 °C 1,6 km/h (1 Bft)
07.11.2016 16:19 0,7 °C 0,7 °C 93 % 1009,4 hPa 0,0 mm 1,0 km/h (0 Bft) SW 233 ° 0 min 0,000 mm 0,0 UV-I 11 W/m² -0,3 °C 1,6 km/h (1 Bft)
07.11.2016 16:20 0,7 °C 0,7 °C 93 % 1009,4 hPa 0,0 mm 0,3 km/h (0 Bft) SW 233 ° 0 min 0,000 mm 0,0 UV-I 11 W/m² -0,3 °C 1,6 km/h (1 Bft)
07.11.2016 16:21 0,7 °C 0,7 °C 93 % 1009,5 hPa 0,0 mm 1,1 km/h (1 Bft) SW 233 ° 0 min 0,000 mm 0,0 UV-I 9 W/m² -0,3 °C 3,2 km/h (1 Bft)
07.11.2016 16:22 0,7 °C 0,7 °C 93 % 1009,5 hPa 0,0 mm 0,7 km/h (0 Bft) SW 233 ° 0 min 0,000 mm 0,0 UV-I 9 W/m² -0,3 °C 1,6 km/h (1 Bft)
07.11.2016 16:23 0,7 °C 0,7 °C 93 % 1009,4 hPa 0,0 mm 1,5 km/h (1 Bft) SW 233 ° 0 min 0,000 mm 0,0 UV-I 9 W/m² -0,3 °C 1,6 km/h (1 Bft)
07.11.2016 16:24 0,7 °C 0,7 °C 93 % 1009,4 hPa 0,0 mm 2,1 km/h (1 Bft) SW 233 ° 0 min 0,000 mm 0,0 UV-I 7 W/m² -0,3 °C 3,2 km/h (1 Bft)
07.11.2016 16:25 0,7 °C 0,7 °C 93 % 1009,5 hPa 0,0 mm 2,1 km/h (1 Bft) SW 233 ° 0 min 0,000 mm 0,0 UV-I 7 W/m² -0,3 °C 3,2 km/h (1 Bft)
07.11.2016 16:26 0,7 °C 0,7 °C 93 % 1009,4 hPa 0,0 mm 1,7 km/h (1 Bft) SW 233 ° 0 min 0,000 mm 0,0 UV-I 7 W/m² -0,3 °C 3,2 km/h (1 Bft)
07.11.2016 16:27 0,6 °C 0,7 °C 93 % 1009,5 hPa 0,0 mm 1,6 km/h (1 Bft) SW 233 ° 0 min 0,000 mm 0,0 UV-I 7 W/m² -0,4 °C 1,6 km/h (1 Bft)
07.11.2016 16:28 0,6 °C 0,6 °C 93 % 1009,5 hPa 0,0 mm 1,7 km/h (1 Bft) SW 233 ° 0 min 0,000 mm 0,0 UV-I 7 W/m² -0,4 °C 3,2 km/h (1 Bft)
07.11.2016 16:29 0,6 °C 0,7 °C 93 % 1009,5 hPa 0,0 mm 1,3 km/h (1 Bft) SW 233 ° 0 min 0,000 mm 0,0 UV-I 5 W/m² -0,4 °C 1,6 km/h (1 Bft)
07.11.2016 16:30 0,6 °C 0,6 °C 93 % 1009,5 hPa 0,0 mm 0,9 km/h (0 Bft) SW 233 ° 0 min 0,000 mm 0,0 UV-I 5 W/m² -0,4 °C 1,6 km/h (1 Bft)
07.11.2016 16:31 0,6 °C 0,6 °C 93 % 1009,5 hPa 0,0 mm 2,2 km/h (1 Bft) SW 233 ° 0 min 0,000 mm 0,0 UV-I 5 W/m² -0,4 °C 3,2 km/h (1 Bft)
07.11.2016 16:32 0,6 °C 0,6 °C 94 % 1009,5 hPa 0,0 mm 1,9 km/h (1 Bft) SW 233 ° 0 min 0,000 mm 0,0 UV-I 5 W/m² -0,3 °C 3,2 km/h (1 Bft)
07.11.2016 16:33 0,6 °C 0,7 °C 94 % 1009,5 hPa 0,0 mm 2,3 km/h (1 Bft) SW 233 ° 0 min 0,000 mm 0,0 UV-I 0 W/m² -0,3 °C 3,2 km/h (1 Bft)
07.11.2016 16:34 0,7 °C 0,7 °C 94 % 1009,5 hPa 0,0 mm 2,1 km/h (1 Bft) SW 233 ° 0 min 0,000 mm 0,0 UV-I 0 W/m² -0,2 °C 3,2 km/h (1 Bft)
07.11.2016 16:35 0,6 °C 0,7 °C 94 % 1009,5 hPa 0,0 mm 2,0 km/h (1 Bft) SW 233 ° 0 min 0,000 mm 0,0 UV-I 0 W/m² -0,3 °C 3,2 km/h (1 Bft)
07.11.2016 16:36 0,6 °C 0,6 °C 94 % 1009,5 hPa 0,0 mm 0,7 km/h (0 Bft) SW 233 ° 0 min 0,000 mm 0,0 UV-I 0 W/m² -0,3 °C 1,6 km/h (1 Bft)
07.11.2016 16:37 0,6 °C 0,6 °C 94 % 1009,5 hPa 0,0 mm 0,6 km/h (0 Bft) SW 233 ° 0 min 0,000 mm 0,0 UV-I 0 W/m² -0,3 °C 1,6 km/h (1 Bft)
07.11.2016 16:38 0,6 °C 0,6 °C 94 % 1009,5 hPa 0,0 mm 0,3 km/h (0 Bft) SW 233 ° 0 min 0,000 mm 0,0 UV-I 0 W/m² -0,3 °C 1,6 km/h (1 Bft)
07.11.2016 16:39 0,6 °C 0,6 °C 94 % 1009,5 hPa 0,0 mm 1,5 km/h (1 Bft) SW 233 ° 0 min 0,000 mm 0,0 UV-I 0 W/m² -0,3 °C 3,2 km/h (1 Bft)
07.11.2016 16:40 0,6 °C 0,6 °C 94 % 1009,6 hPa 0,0 mm 1,5 km/h (1 Bft) SW 233 ° 0 min 0,000 mm 0,0 UV-I 0 W/m² -0,3 °C 1,6 km/h (1 Bft)
07.11.2016 16:41 0,6 °C 0,6 °C 93 % 1009,6 hPa 0,0 mm 0,5 km/h (0 Bft) SW 233 ° 0 min 0,000 mm 0,0 UV-I 0 W/m² -0,4 °C 1,6 km/h (1 Bft)
07.11.2016 16:42 0,6 °C 0,6 °C 93 % 1009,7 hPa 0,0 mm 0,5 km/h (0 Bft) SW 233 ° 0 min 0,000 mm 0,0 UV-I 0 W/m² -0,4 °C 1,6 km/h (1 Bft)
07.11.2016 16:43 0,6 °C 0,6 °C 93 % 1009,7 hPa 0,0 mm 1,3 km/h (1 Bft) SW 233 ° 0 min 0,000 mm 0,0 UV-I 0 W/m² -0,4 °C 1,6 km/h (1 Bft)
07.11.2016 16:44 0,6 °C 0,6 °C 93 % 1009,7 hPa 0,0 mm 0,8 km/h (0 Bft) SW 233 ° 0 min 0,000 mm 0,0 UV-I 0 W/m² -0,4 °C 3,2 km/h (1 Bft)
07.11.2016 16:45 0,6 °C 0,6 °C 93 % 1009,7 hPa 0,0 mm 1,4 km/h (1 Bft) SW 233 ° 0 min 0,000 mm 0,0 UV-I 0 W/m² -0,4 °C 3,2 km/h (1 Bft)
07.11.2016 16:46 0,6 °C 0,6 °C 93 % 1009,7 hPa 0,0 mm 2,1 km/h (1 Bft) SW 233 ° 0 min 0,000 mm 0,0 UV-I 0 W/m² -0,4 °C 3,2 km/h (1 Bft)
07.11.2016 16:47 0,7 °C 0,7 °C 93 % 1009,7 hPa 0,0 mm 3,4 km/h (1 Bft) W-SW 253 ° 0 min 0,000 mm 0,0 UV-I 0 W/m² -0,3 °C 4,8 km/h (1 Bft)
07.11.2016 16:48 0,7 °C 0,7 °C 93 % 1009,8 hPa 0,0 mm 3,6 km/h (1 Bft) W 265 ° 0 min 0,000 mm 0,0 UV-I 0 W/m² -0,3 °C 4,8 km/h (1 Bft)
07.11.2016 16:49 0,7 °C 0,7 °C 93 % 1009,8 hPa 0,0 mm 3,7 km/h (1 Bft) SW 229 ° 0 min 0,000 mm 0,0 UV-I 0 W/m² -0,3 °C 6,4 km/h (2 Bft)
07.11.2016 16:50 0,7 °C 0,7 °C 93 % 1009,7 hPa 0,0 mm 5,2 km/h (1 Bft) W 269 ° 0 min 0,000 mm 0,0 UV-I 0 W/m² -0,3 °C 6,4 km/h (2 Bft)
07.11.2016 16:51 0,7 °C 0,7 °C 93 % 1009,7 hPa 0,0 mm 4,1 km/h (1 Bft) W 259 ° 0 min 0,000 mm 0,0 UV-I 0 W/m² -0,3 °C 6,4 km/h (2 Bft)
07.11.2016 16:52 0,7 °C 0,7 °C 93 % 1009,7 hPa 0,0 mm 4,4 km/h (1 Bft) W 269 ° 0 min 0,000 mm 0,0 UV-I 0 W/m² -0,3 °C 6,4 km/h (2 Bft)
07.11.2016 16:53 0,7 °C 0,7 °C 93 % 1009,7 hPa 0,0 mm 4,2 km/h (1 Bft) W 273 ° 0 min 0,000 mm 0,0 UV-I 0 W/m² -0,3 °C 6,4 km/h (2 Bft)
07.11.2016 16:54 0,7 °C 0,7 °C 92 % 1009,7 hPa 0,0 mm 3,3 km/h (1 Bft) W-SW 241 ° 0 min 0,000 mm 0,0 UV-I 0 W/m² -0,4 °C 4,8 km/h (1 Bft)
07.11.2016 16:55 0,7 °C 0,7 °C 92 % 1009,7 hPa 0,0 mm 3,4 km/h (1 Bft) W 265 ° 0 min 0,000 mm 0,0 UV-I 0 W/m² -0,4 °C 4,8 km/h (1 Bft)
07.11.2016 16:56 0,7 °C 0,7 °C 91 % 1009,8 hPa 0,0 mm 3,6 km/h (1 Bft) W 265 ° 0 min 0,000 mm 0,0 UV-I 0 W/m² -0,6 °C 4,8 km/h (1 Bft)
07.11.2016 16:57 0,7 °C 0,7 °C 91 % 1009,7 hPa 0,0 mm 1,4 km/h (1 Bft) W 265 ° 0 min 0,000 mm 0,0 UV-I 0 W/m² -0,6 °C 1,6 km/h (1 Bft)
07.11.2016 16:58 0,7 °C 0,7 °C 91 % 1009,8 hPa 0,0 mm 2,8 km/h (1 Bft) W-NW 290 ° 0 min 0,000 mm 0,0 UV-I 0 W/m² -0,6 °C 4,8 km/h (1 Bft)
07.11.2016 16:59 0,7 °C 0,7 °C 91 % 1009,7 hPa 0,0 mm 2,3 km/h (1 Bft) W-NW 290 ° 0 min 0,000 mm 0,0 UV-I 0 W/m² -0,6 °C 3,2 km/h (1 Bft)
07.11.2016 17:00 0,7 °C 0,7 °C 91 % 1009,8 hPa 0,0 mm 2,0 km/h (1 Bft) W-NW 290 ° 0 min 0,000 mm 0,0 UV-I 0 W/m² -0,6 °C 3,2 km/h (1 Bft)
07.11.2016 17:01 0,7 °C 0,7 °C 91 % 1009,7 hPa 0,0 mm 0,9 km/h (0 Bft) W-NW 290 ° 0 min 0,000 mm 0,0 UV-I 0 W/m² -0,6 °C 1,6 km/h (1 Bft)
07.11.2016 17:02 0,6 °C 0,7 °C 91 % 1009,8 hPa 0,0 mm 0,2 km/h (0 Bft) W-NW 290 ° 0 min 0,000 mm 0,0 UV-I 0 W/m² -0,7 °C 1,6 km/h (1 Bft)
07.11.2016 17:03 0,6 °C 0,6 °C 91 % 1009,8 hPa 0,0 mm 1,5 km/h (1 Bft) W-NW 290 ° 0 min 0,000 mm 0,0 UV-I 0 W/m² -0,7 °C 1,6 km/h (1 Bft)
07.11.2016 17:04 0,6 °C 0,6 °C 91 % 1009,8 hPa 0,0 mm 0,6 km/h (0 Bft) W-NW 290 ° 0 min 0,000 mm 0,0 UV-I 0 W/m² -0,7 °C 1,6 km/h (1 Bft)
07.11.2016 17:05 0,6 °C 0,6 °C 91 % 1009,7 hPa 0,0 mm 2,0 km/h (1 Bft) SW 226 ° 0 min 0,000 mm 0,0 UV-I 0 W/m² -0,7 °C 4,8 km/h (1 Bft)
07.11.2016 17:06 0,6 °C 0,6 °C 91 % 1009,8 hPa 0,2 mm 1,7 km/h (1 Bft) S-SW 197 ° 0 min 0,000 mm 0,0 UV-I 0 W/m² -0,7 °C 3,2 km/h (1 Bft)
07.11.2016 17:07 0,6 °C 0,6 °C 91 % 1009,8 hPa 0,0 mm 2,8 km/h (1 Bft) W-SW 241 ° 0 min 0,000 mm 0,0 UV-I 0 W/m² -0,7 °C 4,8 km/h (1 Bft)
07.11.2016 17:08 0,6 °C 0,6 °C 91 % 1009,8 hPa 0,0 mm 3,6 km/h (1 Bft) W-SW 241 ° 0 min 0,000 mm 0,0 UV-I 0 W/m² -0,7 °C 4,8 km/h (1 Bft)
07.11.2016 17:09 0,6 °C 0,6 °C 91 % 1009,8 hPa 0,0 mm 3,6 km/h (1 Bft) W-SW 245 ° 0 min 0,000 mm 0,0 UV-I 0 W/m² -0,7 °C 6,4 km/h (2 Bft)
07.11.2016 17:10 0,6 °C 0,6 °C 91 % 1009,8 hPa 0,0 mm 3,3 km/h (1 Bft) W-SW 252 ° 0 min 0,000 mm 0,0 UV-I 0 W/m² -0,7 °C 8,0 km/h (2 Bft)
07.11.2016 17:11 0,6 °C 0,6 °C 91 % 1009,8 hPa 0,0 mm 3,2 km/h (1 Bft) W-NW 290 ° 0 min 0,000 mm 0,0 UV-I 0 W/m² -0,7 °C 4,8 km/h (1 Bft)
07.11.2016 17:12 0,5 °C 0,6 °C 90 % 1009,8 hPa 0,0 mm 3,9 km/h (1 Bft) W 261 ° 0 min 0,000 mm 0,0 UV-I 0 W/m² -0,9 °C 6,4 km/h (2 Bft)
07.11.2016 17:13 0,5 °C 0,6 °C 90 % 1009,8 hPa 0,0 mm 3,0 km/h (1 Bft) W 261 ° 0 min 0,000 mm 0,0 UV-I 0 W/m² -0,9 °C 4,8 km/h (1 Bft)
07.11.2016 17:14 0,5 °C 0,5 °C 91 % 1009,8 hPa 0,0 mm 2,1 km/h (1 Bft) W 260 ° 0 min 0,000 mm 0,0 UV-I 0 W/m² -0,8 °C 3,2 km/h (1 Bft)
07.11.2016 17:15 0,4 °C 0,5 °C 91 % 1009,8 hPa 0,0 mm 1,1 km/h (1 Bft) W 260 ° 0 min 0,000 mm 0,0 UV-I 0 W/m² -0,9 °C 3,2 km/h (1 Bft)
07.11.2016 17:16 0,4 °C 0,4 °C 91 % 1009,8 hPa 0,0 mm 1,9 km/h (1 Bft) W 260 ° 0 min 0,000 mm 0,0 UV-I 0 W/m² -0,9 °C 3,2 km/h (1 Bft)
07.11.2016 17:17 0,4 °C 0,4 °C 91 % 1009,8 hPa 0,0 mm 2,3 km/h (1 Bft) W 260 ° 0 min 0,000 mm 0,0 UV-I 0 W/m² -0,9 °C 3,2 km/h (1 Bft)
07.11.2016 17:18 0,4 °C 0,4 °C 91 % 1009,8 hPa 0,0 mm 1,5 km/h (1 Bft) W 260 ° 0 min 0,000 mm 0,0 UV-I 0 W/m² -0,9 °C 3,2 km/h (1 Bft)
07.11.2016 17:19 0,4 °C 0,4 °C 91 % 1009,8 hPa 0,0 mm 1,7 km/h (1 Bft) W 272 ° 0 min 0,000 mm 0,0 UV-I 0 W/m² -0,9 °C 3,2 km/h (1 Bft)
07.11.2016 17:20 0,4 °C 0,4 °C 91 % 1009,8 hPa 0,0 mm 2,3 km/h (1 Bft) W 272 ° 0 min 0,000 mm 0,0 UV-I 0 W/m² -0,9 °C 3,2 km/h (1 Bft)
07.11.2016 17:21 0,4 °C 0,4 °C 91 % 1009,8 hPa 0,0 mm 1,4 km/h (1 Bft) W 272 ° 0 min 0,000 mm 0,0 UV-I 0 W/m² -0,9 °C 3,2 km/h (1 Bft)
07.11.2016 17:22 0,4 °C 0,4 °C 91 % 1009,8 hPa 0,0 mm 0,7 km/h (0 Bft) W 272 ° 0 min 0,000 mm 0,0 UV-I 0 W/m² -0,9 °C 1,6 km/h (1 Bft)
07.11.2016 17:23 0,3 °C 0,4 °C 91 % 1009,9 hPa 0,0 mm 1,6 km/h (1 Bft) W 272 ° 0 min 0,000 mm 0,0 UV-I 0 W/m² -1,0 °C 3,2 km/h (1 Bft)
07.11.2016 17:24 0,3 °C 0,3 °C 91 % 1009,8 hPa 0,0 mm 0,5 km/h (0 Bft) W 272 ° 0 min 0,000 mm 0,0 UV-I 0 W/m² -1,0 °C 1,6 km/h (1 Bft)
07.11.2016 17:25 0,3 °C 0,3 °C 91 % 1009,8 hPa 0,0 mm 0,8 km/h (0 Bft) W 272 ° 0 min 0,000 mm 0,0 UV-I 0 W/m² -1,0 °C 1,6 km/h (1 Bft)
07.11.2016 17:26 0,2 °C 0,3 °C 91 % 1009,8 hPa 0,0 mm 0,5 km/h (0 Bft) W 272 ° 0 min 0,000 mm 0,0 UV-I 0 W/m² -1,1 °C 1,6 km/h (1 Bft)
07.11.2016 17:27 0,2 °C 0,3 °C 91 % 1009,9 hPa 0,0 mm 0,6 km/h (0 Bft) W 272 ° 0 min 0,000 mm 0,0 UV-I 0 W/m² -1,1 °C 1,6 km/h (1 Bft)
07.11.2016 17:28 0,2 °C 0,2 °C 92 % 1009,9 hPa 0,0 mm 0,5 km/h (0 Bft) W 272 ° 0 min 0,000 mm 0,0 UV-I 0 W/m² -0,9 °C 1,6 km/h (1 Bft)
07.11.2016 17:29 0,2 °C 0,2 °C 91 % 1009,9 hPa 0,0 mm 0,5 km/h (0 Bft) W 272 ° 0 min 0,000 mm 0,0 UV-I 0 W/m² -1,1 °C 1,6 km/h (1 Bft)
07.11.2016 17:30 0,2 °C 0,2 °C 92 % 1009,9 hPa 0,0 mm 0,7 km/h (0 Bft) W 272 ° 0 min 0,000 mm 0,0 UV-I 0 W/m² -0,9 °C 1,6 km/h (1 Bft)
07.11.2016 17:31 0,1 °C 0,2 °C 92 % 1010,0 hPa 0,0 mm 2,3 km/h (1 Bft) W-NW 293 ° 0 min 0,000 mm 0,0 UV-I 0 W/m² -1,0 °C 4,8 km/h (1 Bft)
07.11.2016 17:32 0,1 °C 0,1 °C 92 % 1010,0 hPa 0,0 mm 1,7 km/h (1 Bft) W-NW 293 ° 0 min 0,000 mm 0,0 UV-I 0 W/m² -1,0 °C 3,2 km/h (1 Bft)
07.11.2016 17:33 0,1 °C 0,2 °C 92 % 1010,0 hPa 0,0 mm 1,0 km/h (0 Bft) W-NW 293 ° 0 min 0,000 mm 0,0 UV-I 0 W/m² -1,0 °C 1,6 km/h (1 Bft)
07.11.2016 17:34 0,1 °C 0,1 °C 92 % 1010,0 hPa 0,0 mm 0,0 km/h (0 Bft) W-NW 293 ° 0 min 0,000 mm 0,0 UV-I 0 W/m² -1,0 °C 0,0 km/h (0 Bft)
07.11.2016 17:35 0,1 °C 0,1 °C 92 % 1010,0 hPa 0,0 mm 0,5 km/h (0 Bft) W-NW 293 ° 0 min 0,000 mm 0,0 UV-I 0 W/m² -1,0 °C 1,6 km/h (1 Bft)
07.11.2016 17:36 0,1 °C 0,1 °C 92 % 1010,0 hPa 0,0 mm 0,1 km/h (0 Bft) W-NW 293 ° 0 min 0,000 mm 0,0 UV-I 0 W/m² -1,0 °C 1,6 km/h (1 Bft)
07.11.2016 17:37 0,1 °C 0,1 °C 92 % 1010,0 hPa 0,0 mm 0,6 km/h (0 Bft) W-NW 293 ° 0 min 0,000 mm 0,0 UV-I 0 W/m² -1,0 °C 1,6 km/h (1 Bft)
07.11.2016 17:38 0,1 °C 0,1 °C 92 % 1010,1 hPa 0,0 mm 0,8 km/h (0 Bft) W-NW 293 ° 0 min 0,000 mm 0,0 UV-I 0 W/m² -1,0 °C 1,6 km/h (1 Bft)
07.11.2016 17:39 0,1 °C 0,1 °C 92 % 1010,1 hPa 0,0 mm 0,0 km/h (0 Bft) W-NW 293 ° 0 min 0,000 mm 0,0 UV-I 0 W/m² -1,0 °C 0,0 km/h (0 Bft)
07.11.2016 17:40 0,1 °C 0,1 °C 92 % 1010,1 hPa 0,0 mm 0,1 km/h (0 Bft) W-NW 293 ° 0 min 0,000 mm 0,0 UV-I 0 W/m² -1,0 °C 1,6 km/h (1 Bft)
07.11.2016 17:41 0,1 °C 0,1 °C 92 % 1010,1 hPa 0,0 mm 0,0 km/h (0 Bft) W-NW 293 ° 0 min 0,000 mm 0,0 UV-I 0 W/m² -1,0 °C 0,0 km/h (0 Bft)
07.11.2016 17:42 0,1 °C 0,2 °C 92 % 1010,1 hPa 0,0 mm 0,0 km/h (0 Bft) W-NW 293 ° 0 min 0,000 mm 0,0 UV-I 0 W/m² -1,0 °C 0,0 km/h (0 Bft)
07.11.2016 17:43 0,1 °C 0,2 °C 92 % 1010,2 hPa 0,0 mm 0,0 km/h (0 Bft) W-NW 293 ° 0 min 0,000 mm 0,0 UV-I 0 W/m² -1,0 °C 0,0 km/h (0 Bft)
07.11.2016 17:44 0,2 °C 0,2 °C 92 % 1010,2 hPa 0,0 mm 0,0 km/h (0 Bft) W-NW 293 ° 0 min 0,000 mm 0,0 UV-I 0 W/m² -0,9 °C 0,0 km/h (0 Bft)
07.11.2016 17:45 0,1 °C 0,2 °C 92 % 1010,2 hPa 0,0 mm 0,0 km/h (0 Bft) W-NW 293 ° 0 min 0,000 mm 0,0 UV-I 0 W/m² -1,0 °C 0,0 km/h (0 Bft)
07.11.2016 17:46 0,1 °C 0,2 °C 92 % 1010,2 hPa 0,0 mm 0,0 km/h (0 Bft) W-NW 293 ° 0 min 0,000 mm 0,0 UV-I 0 W/m² -1,0 °C 0,0 km/h (0 Bft)
07.11.2016 17:47 0,2 °C 0,2 °C 93 % 1010,2 hPa 0,0 mm 0,1 km/h (0 Bft) W-NW 293 ° 0 min 0,000 mm 0,0 UV-I 0 W/m² -0,8 °C 1,6 km/h (1 Bft)
07.11.2016 17:48 0,2 °C 0,2 °C 93 % 1010,2 hPa 0,0 mm 0,0 km/h (0 Bft) W-NW 293 ° 0 min 0,000 mm 0,0 UV-I 0 W/m² -0,8 °C 0,0 km/h (0 Bft)
07.11.2016 17:49 0,2 °C 0,2 °C 93 % 1010,2 hPa 0,0 mm 0,0 km/h (0 Bft) W-NW 293 ° 0 min 0,000 mm 0,0 UV-I 0 W/m² -0,8 °C 0,0 km/h (0 Bft)
07.11.2016 17:50 0,2 °C 0,2 °C 93 % 1010,2 hPa 0,0 mm 0,0 km/h (0 Bft) W-NW 293 ° 0 min 0,000 mm 0,0 UV-I 0 W/m² -0,8 °C 0,0 km/h (0 Bft)
07.11.2016 17:51 0,1 °C 0,2 °C 93 % 1010,3 hPa 0,0 mm 0,0 km/h (0 Bft) W-NW 293 ° 0 min 0,000 mm 0,0 UV-I 0 W/m² -0,9 °C 0,0 km/h (0 Bft)
07.11.2016 17:52 0,1 °C 0,1 °C 93 % 1010,3 hPa 0,0 mm 0,0 km/h (0 Bft) W-NW 293 ° 0 min 0,000 mm 0,0 UV-I 0 W/m² -0,9 °C 0,0 km/h (0 Bft)
07.11.2016 17:53 0,1 °C 0,1 °C 93 % 1010,3 hPa 0,0 mm 0,0 km/h (0 Bft) W-NW 293 ° 0 min 0,000 mm 0,0 UV-I 0 W/m² -0,9 °C 0,0 km/h (0 Bft)
07.11.2016 17:54 0,1 °C 0,1 °C 93 % 1010,4 hPa 0,0 mm 0,0 km/h (0 Bft) W-NW 293 ° 0 min 0,000 mm 0,0 UV-I 0 W/m² -0,9 °C 0,0 km/h (0 Bft)
07.11.2016 17:55 0,1 °C 0,1 °C 93 % 1010,4 hPa 0,0 mm 0,0 km/h (0 Bft) W-NW 293 ° 0 min 0,000 mm 0,0 UV-I 0 W/m² -0,9 °C 0,0 km/h (0 Bft)
07.11.2016 17:56 0,1 °C 0,1 °C 93 % 1010,3 hPa 0,0 mm 0,0 km/h (0 Bft) W-NW 293 ° 0 min 0,000 mm 0,0 UV-I 0 W/m² -0,9 °C 0,0 km/h (0 Bft)
07.11.2016 17:57 0,1 °C 0,1 °C 93 % 1010,4 hPa 0,0 mm 0,0 km/h (0 Bft) W-NW 293 ° 0 min 0,000 mm 0,0 UV-I 0 W/m² -0,9 °C 0,0 km/h (0 Bft)
07.11.2016 17:58 0,0 °C 0,1 °C 93 % 1010,4 hPa 0,0 mm 0,0 km/h (0 Bft) W-NW 293 ° 0 min 0,000 mm 0,0 UV-I 0 W/m² -1,0 °C 0,0 km/h (0 Bft)
07.11.2016 17:59 0,0 °C 0,0 °C 93 % 1010,4 hPa 0,0 mm 0,0 km/h (0 Bft) W-NW 293 ° 0 min 0,000 mm 0,0 UV-I 0 W/m² -1,0 °C 0,0 km/h (0 Bft)
07.11.2016 18:00 0,0 °C 0,0 °C 93 % 1010,4 hPa 0,0 mm 0,0 km/h (0 Bft) W-NW 293 ° 0 min 0,000 mm 0,0 UV-I 0 W/m² -1,0 °C 0,0 km/h (0 Bft)
07.11.2016 18:01 0,0 °C 0,0 °C 93 % 1010,4 hPa 0,0 mm 0,0 km/h (0 Bft) W-NW 293 ° 0 min 0,000 mm 0,0 UV-I 0 W/m² -1,0 °C 0,0 km/h (0 Bft)
07.11.2016 18:02 0,0 °C 0,0 °C 93 % 1010,4 hPa 0,0 mm 0,0 km/h (0 Bft) W-NW 293 ° 0 min 0,000 mm 0,0 UV-I 0 W/m² -1,0 °C 0,0 km/h (0 Bft)
07.11.2016 18:03 0,0 °C 0,0 °C 93 % 1010,4 hPa 0,0 mm 0,1 km/h (0 Bft) W-NW 293 ° 0 min 0,000 mm 0,0 UV-I 0 W/m² -1,0 °C 1,6 km/h (1 Bft)
07.11.2016 18:04 0,0 °C 0,0 °C 93 % 1010,4 hPa 0,0 mm 0,6 km/h (0 Bft) W-NW 293 ° 0 min 0,000 mm 0,0 UV-I 0 W/m² -1,0 °C 1,6 km/h (1 Bft)
07.11.2016 18:05 0,0 °C 0,0 °C 93 % 1010,4 hPa 0,0 mm 0,2 km/h (0 Bft) W-NW 293 ° 0 min 0,000 mm 0,0 UV-I 0 W/m² -1,0 °C 1,6 km/h (1 Bft)
07.11.2016 18:06 0,0 °C 0,0 °C 93 % 1010,4 hPa 0,0 mm 0,7 km/h (0 Bft) W-NW 293 ° 0 min 0,000 mm 0,0 UV-I 0 W/m² -1,0 °C 1,6 km/h (1 Bft)
07.11.2016 18:07 0,0 °C 0,0 °C 93 % 1010,4 hPa 0,0 mm 0,9 km/h (0 Bft) W-NW 293 ° 0 min 0,000 mm 0,0 UV-I 0 W/m² -1,0 °C 1,6 km/h (1 Bft)
07.11.2016 18:08 0,0 °C 0,1 °C 93 % 1010,4 hPa 0,0 mm 0,1 km/h (0 Bft) W-NW 293 ° 0 min 0,000 mm 0,0 UV-I 0 W/m² -1,0 °C 1,6 km/h (1 Bft)
07.11.2016 18:09 0,0 °C 0,0 °C 93 % 1010,4 hPa 0,0 mm 0,7 km/h (0 Bft) W-NW 293 ° 0 min 0,000 mm 0,0 UV-I 0 W/m² -1,0 °C 3,2 km/h (1 Bft)
07.11.2016 18:10 0,0 °C 0,0 °C 93 % 1010,4 hPa 0,0 mm 0,9 km/h (0 Bft) W-NW 293 ° 0 min 0,000 mm 0,0 UV-I 0 W/m² -1,0 °C 3,2 km/h (1 Bft)
07.11.2016 18:11 -0,1 °C 0,0 °C 93 % 1010,4 hPa 0,0 mm 0,0 km/h (0 Bft) W-NW 293 ° 0 min 0,000 mm 0,0 UV-I 0 W/m² -1,1 °C 0,0 km/h (0 Bft)
07.11.2016 18:12 -0,1 °C 0,0 °C 93 % 1010,4 hPa 0,0 mm 0,1 km/h (0 Bft) W-NW 293 ° 0 min 0,000 mm 0,0 UV-I 0 W/m² -1,1 °C 1,6 km/h (1 Bft)
07.11.2016 18:13 -0,1 °C 0,0 °C 93 % 1010,5 hPa 0,0 mm 0,8 km/h (0 Bft) W-NW 293 ° 0 min 0,000 mm 0,0 UV-I 0 W/m² -1,1 °C 1,6 km/h (1 Bft)
07.11.2016 18:14 -0,1 °C -0,1 °C 93 % 1010,5 hPa 0,0 mm 0,6 km/h (0 Bft) W-NW 293 ° 0 min 0,000 mm 0,0 UV-I 0 W/m² -1,1 °C 1,6 km/h (1 Bft)
07.11.2016 18:15 -0,1 °C 0,0 °C 93 % 1010,4 hPa 0,0 mm 0,3 km/h (0 Bft) W-NW 293 ° 0 min 0,000 mm 0,0 UV-I 0 W/m² -1,1 °C 1,6 km/h (1 Bft)
07.11.2016 18:16 -0,1 °C -0,1 °C 93 % 1010,4 hPa 0,0 mm 0,0 km/h (0 Bft) W-NW 293 ° 0 min 0,000 mm 0,0 UV-I 0 W/m² -1,1 °C 0,0 km/h (0 Bft)
07.11.2016 18:17 -0,1 °C -0,1 °C 93 % 1010,4 hPa 0,0 mm 0,0 km/h (0 Bft) W-NW 293 ° 0 min 0,000 mm 0,0 UV-I 0 W/m² -1,1 °C 0,0 km/h (0 Bft)
07.11.2016 18:18 -0,1 °C -0,1 °C 93 % 1010,5 hPa 0,0 mm 0,0 km/h (0 Bft) W-NW 293 ° 0 min 0,000 mm 0,0 UV-I 0 W/m² -1,1 °C 0,0 km/h (0 Bft)
07.11.2016 18:19 -0,1 °C -0,1 °C 93 % 1010,5 hPa 0,0 mm 0,0 km/h (0 Bft) W-NW 293 ° 0 min 0,000 mm 0,0 UV-I 0 W/m² -1,1 °C 0,0 km/h (0 Bft)
07.11.2016 18:20 -0,1 °C -0,1 °C 92 % 1010,4 hPa 0,0 mm 0,0 km/h (0 Bft) W-NW 293 ° 0 min 0,000 mm 0,0 UV-I 0 W/m² -1,2 °C 0,0 km/h (0 Bft)
07.11.2016 18:21 -0,1 °C -0,1 °C 93 % 1010,5 hPa 0,0 mm 0,0 km/h (0 Bft) W-NW 293 ° 0 min 0,000 mm 0,0 UV-I 0 W/m² -1,1 °C 0,0 km/h (0 Bft)
07.11.2016 18:22 -0,1 °C -0,1 °C 92 % 1010,4 hPa 0,0 mm 0,0 km/h (0 Bft) W-NW 293 ° 0 min 0,000 mm 0,0 UV-I 0 W/m² -1,2 °C 0,0 km/h (0 Bft)
07.11.2016 18:23 -0,1 °C -0,1 °C 92 % 1010,5 hPa 0,0 mm 0,3 km/h (0 Bft) W-NW 293 ° 0 min 0,000 mm 0,0 UV-I 0 W/m² -1,2 °C 1,6 km/h (1 Bft)
07.11.2016 18:24 -0,2 °C -0,1 °C 92 % 1010,5 hPa 0,0 mm 0,3 km/h (0 Bft) W-NW 293 ° 0 min 0,000 mm 0,0 UV-I 0 W/m² -1,3 °C 1,6 km/h (1 Bft)
07.11.2016 18:25 -0,1 °C -0,1 °C 92 % 1010,4 hPa 0,0 mm 0,6 km/h (0 Bft) W-NW 293 ° 0 min 0,000 mm 0,0 UV-I 0 W/m² -1,2 °C 1,6 km/h (1 Bft)
07.11.2016 18:26 -0,2 °C -0,1 °C 92 % 1010,5 hPa 0,0 mm 0,1 km/h (0 Bft) W-NW 293 ° 0 min 0,000 mm 0,0 UV-I 0 W/m² -1,3 °C 1,6 km/h (1 Bft)
07.11.2016 18:27 -0,2 °C -0,1 °C 92 % 1010,5 hPa 0,0 mm 0,0 km/h (0 Bft) W-NW 293 ° 0 min 0,000 mm 0,0 UV-I 0 W/m² -1,3 °C 0,0 km/h (0 Bft)
07.11.2016 18:28 -0,1 °C -0,1 °C 93 % 1010,5 hPa 0,0 mm 0,0 km/h (0 Bft) W-NW 293 ° 0 min 0,000 mm 0,0 UV-I 0 W/m² -1,1 °C 0,0 km/h (0 Bft)
07.11.2016 18:29 -0,2 °C -0,1 °C 93 % 1010,5 hPa 0,0 mm 0,0 km/h (0 Bft) W-NW 293 ° 0 min 0,000 mm 0,0 UV-I 0 W/m² -1,2 °C 0,0 km/h (0 Bft)
07.11.2016 18:30 -0,1 °C -0,1 °C 93 % 1010,5 hPa 0,0 mm 0,0 km/h (0 Bft) W-NW 293 ° 0 min 0,000 mm 0,0 UV-I 0 W/m² -1,1 °C 0,0 km/h (0 Bft)
07.11.2016 18:31 -0,2 °C -0,1 °C 93 % 1010,5 hPa 0,0 mm 0,0 km/h (0 Bft) W-NW 293 ° 0 min 0,000 mm 0,0 UV-I 0 W/m² -1,2 °C 0,0 km/h (0 Bft)
07.11.2016 18:32 -0,2 °C -0,2 °C 93 % 1010,5 hPa 0,0 mm 0,0 km/h (0 Bft) W-NW 293 ° 0 min 0,000 mm 0,0 UV-I 0 W/m² -1,2 °C 0,0 km/h (0 Bft)
07.11.2016 18:33 -0,2 °C -0,2 °C 93 % 1010,5 hPa 0,0 mm 0,0 km/h (0 Bft) W-NW 293 ° 0 min 0,000 mm 0,0 UV-I 0 W/m² -1,2 °C 0,0 km/h (0 Bft)
07.11.2016 18:34 -0,2 °C -0,2 °C 93 % 1010,5 hPa 0,0 mm 0,0 km/h (0 Bft) W-NW 293 ° 0 min 0,000 mm 0,0 UV-I 0 W/m² -1,2 °C 0,0 km/h (0 Bft)
07.11.2016 18:35 -0,2 °C -0,2 °C 93 % 1010,5 hPa 0,0 mm 0,0 km/h (0 Bft) W-NW 293 ° 0 min 0,000 mm 0,0 UV-I 0 W/m² -1,2 °C 0,0 km/h (0 Bft)
07.11.2016 18:36 -0,2 °C -0,2 °C 93 % 1010,5 hPa 0,0 mm 0,0 km/h (0 Bft) W-NW 293 ° 0 min 0,000 mm 0,0 UV-I 0 W/m² -1,2 °C 0,0 km/h (0 Bft)
07.11.2016 18:37 -0,2 °C -0,2 °C 93 % 1010,4 hPa 0,0 mm 0,0 km/h (0 Bft) W-NW 293 ° 0 min 0,000 mm 0,0 UV-I 0 W/m² -1,2 °C 0,0 km/h (0 Bft)
07.11.2016 18:38 -0,2 °C -0,2 °C 93 % 1010,5 hPa 0,0 mm 0,0 km/h (0 Bft) W-NW 293 ° 0 min 0,000 mm 0,0 UV-I 0 W/m² -1,2 °C 0,0 km/h (0 Bft)
07.11.2016 18:39 -0,2 °C -0,2 °C 93 % 1010,5 hPa 0,0 mm 0,0 km/h (0 Bft) W-NW 293 ° 0 min 0,000 mm 0,0 UV-I 0 W/m² -1,2 °C 0,0 km/h (0 Bft)
07.11.2016 18:40 -0,2 °C -0,2 °C 93 % 1010,4 hPa 0,0 mm 0,0 km/h (0 Bft) W-NW 293 ° 0 min 0,000 mm 0,0 UV-I 0 W/m² -1,2 °C 0,0 km/h (0 Bft)
07.11.2016 18:41 -0,2 °C -0,2 °C 93 % 1010,5 hPa 0,0 mm 0,0 km/h (0 Bft) W-NW 293 ° 0 min 0,000 mm 0,0 UV-I 0 W/m² -1,2 °C 0,0 km/h (0 Bft)
07.11.2016 18:42 -0,2 °C -0,2 °C 93 % 1010,4 hPa 0,0 mm 1,2 km/h (1 Bft) W-NW 293 ° 0 min 0,000 mm 0,0 UV-I 0 W/m² -1,2 °C 3,2 km/h (1 Bft)
07.11.2016 18:43 -0,2 °C -0,2 °C 93 % 1010,5 hPa 0,0 mm 0,4 km/h (0 Bft) W-NW 293 ° 0 min 0,000 mm 0,0 UV-I 0 W/m² -1,2 °C 1,6 km/h (1 Bft)
07.11.2016 18:44 -0,3 °C -0,2 °C 93 % 1010,5 hPa 0,0 mm 0,0 km/h (0 Bft) W-NW 292 ° 0 min 0,000 mm 0,0 UV-I 0 W/m² -1,3 °C 0,0 km/h (0 Bft)
07.11.2016 18:45 -0,3 °C -0,3 °C 93 % 1010,5 hPa 0,0 mm 0,0 km/h (0 Bft) W-NW 292 ° 0 min 0,000 mm 0,0 UV-I 0 W/m² -1,3 °C 0,0 km/h (0 Bft)
07.11.2016 18:46 -0,3 °C -0,3 °C 93 % 1010,5 hPa 0,0 mm 1,4 km/h (1 Bft) S-SW 200 ° 0 min 0,000 mm 0,0 UV-I 0 W/m² -1,3 °C 3,2 km/h (1 Bft)
07.11.2016 18:47 -0,3 °C -0,3 °C 93 % 1010,5 hPa 0,0 mm 2,1 km/h (1 Bft) S-SW 200 ° 0 min 0,000 mm 0,0 UV-I 0 W/m² -1,3 °C 3,2 km/h (1 Bft)
07.11.2016 18:48 -0,3 °C -0,3 °C 93 % 1010,4 hPa 0,0 mm 1,5 km/h (1 Bft) S-SW 200 ° 0 min 0,000 mm 0,0 UV-I 0 W/m² -1,3 °C 3,2 km/h (1 Bft)
07.11.2016 18:49 -0,3 °C -0,3 °C 93 % 1010,5 hPa 0,0 mm 0,8 km/h (0 Bft) S-SW 200 ° 0 min 0,000 mm 0,0 UV-I 0 W/m² -1,3 °C 1,6 km/h (1 Bft)
07.11.2016 18:50 -0,3 °C -0,3 °C 93 % 1010,5 hPa 0,0 mm 1,0 km/h (0 Bft) S-SW 200 ° 0 min 0,000 mm 0,0 UV-I 0 W/m² -1,3 °C 1,6 km/h (1 Bft)
07.11.2016 18:51 -0,3 °C -0,3 °C 93 % 1010,5 hPa 0,0 mm 1,3 km/h (1 Bft) S-SW 200 ° 0 min 0,000 mm 0,0 UV-I 0 W/m² -1,3 °C 1,6 km/h (1 Bft)
07.11.2016 18:52 -0,3 °C -0,3 °C 93 % 1010,5 hPa 0,0 mm 1,4 km/h (1 Bft) S-SW 200 ° 0 min 0,000 mm 0,0 UV-I 0 W/m² -1,3 °C 3,2 km/h (1 Bft)
07.11.2016 18:53 -0,3 °C -0,3 °C 93 % 1010,5 hPa 0,0 mm 1,1 km/h (1 Bft) S-SW 200 ° 0 min 0,000 mm 0,0 UV-I 0 W/m² -1,3 °C 1,6 km/h (1 Bft)
07.11.2016 18:54 -0,3 °C -0,3 °C 93 % 1010,5 hPa 0,0 mm 1,3 km/h (1 Bft) S-SW 200 ° 0 min 0,000 mm 0,0 UV-I 0 W/m² -1,3 °C 1,6 km/h (1 Bft)
07.11.2016 18:55 -0,3 °C -0,3 °C 93 % 1010,6 hPa 0,0 mm 0,9 km/h (0 Bft) S-SW 200 ° 0 min 0,000 mm 0,0 UV-I 0 W/m² -1,3 °C 1,6 km/h (1 Bft)
07.11.2016 18:56 -0,4 °C -0,3 °C 93 % 1010,5 hPa 0,0 mm 0,6 km/h (0 Bft) S-SW 200 ° 0 min 0,000 mm 0,0 UV-I 0 W/m² -1,4 °C 1,6 km/h (1 Bft)
07.11.2016 18:57 -0,4 °C -0,4 °C 93 % 1010,6 hPa 0,0 mm 1,3 km/h (1 Bft) S-SW 200 ° 0 min 0,000 mm 0,0 UV-I 0 W/m² -1,4 °C 1,6 km/h (1 Bft)
07.11.2016 18:58 -0,4 °C -0,4 °C 93 % 1010,5 hPa 0,0 mm 1,1 km/h (1 Bft) S-SW 200 ° 0 min 0,000 mm 0,0 UV-I 0 W/m² -1,4 °C 1,6 km/h (1 Bft)
07.11.2016 18:59 -0,4 °C -0,4 °C 93 % 1010,5 hPa 0,0 mm 0,3 km/h (0 Bft) S-SW 200 ° 0 min 0,000 mm 0,0 UV-I 0 W/m² -1,4 °C 1,6 km/h (1 Bft)
07.11.2016 19:00 -0,4 °C -0,4 °C 93 % 1010,5 hPa 0,0 mm 0,8 km/h (0 Bft) S-SW 200 ° 0 min 0,000 mm 0,0 UV-I 0 W/m² -1,4 °C 1,6 km/h (1 Bft)
07.11.2016 19:01 -0,4 °C -0,4 °C 93 % 1010,6 hPa 0,0 mm 0,5 km/h (0 Bft) S-SW 200 ° 0 min 0,000 mm 0,0 UV-I 0 W/m² -1,4 °C 1,6 km/h (1 Bft)
07.11.2016 19:02 -0,4 °C -0,4 °C 93 % 1010,6 hPa 0,0 mm 0,1 km/h (0 Bft) S-SW 200 ° 0 min 0,000 mm 0,0 UV-I 0 W/m² -1,4 °C 1,6 km/h (1 Bft)
07.11.2016 19:03 -0,5 °C -0,4 °C 93 % 1010,6 hPa 0,0 mm 0,0 km/h (0 Bft) S-SW 200 ° 0 min 0,000 mm 0,0 UV-I 0 W/m² -1,5 °C 0,0 km/h (0 Bft)
07.11.2016 19:04 -0,5 °C -0,5 °C 93 % 1010,6 hPa 0,0 mm 0,0 km/h (0 Bft) S-SW 200 ° 0 min 0,000 mm 0,0 UV-I 0 W/m² -1,5 °C 0,0 km/h (0 Bft)
07.11.2016 19:05 -0,6 °C -0,5 °C 92 % 1010,5 hPa 0,0 mm 0,1 km/h (0 Bft) S-SW 200 ° 0 min 0,000 mm 0,0 UV-I 0 W/m² -1,7 °C 1,6 km/h (1 Bft)
07.11.2016 19:06 -0,6 °C -0,5 °C 92 % 1010,5 hPa 0,0 mm 0,1 km/h (0 Bft) S-SW 200 ° 0 min 0,000 mm 0,0 UV-I 0 W/m² -1,7 °C 1,6 km/h (1 Bft)
07.11.2016 19:07 -0,6 °C -0,6 °C 92 % 1010,5 hPa 0,0 mm 0,0 km/h (0 Bft) S-SW 200 ° 0 min 0,000 mm 0,0 UV-I 0 W/m² -1,7 °C 0,0 km/h (0 Bft)
07.11.2016 19:08 -0,6 °C -0,6 °C 93 % 1010,6 hPa 0,0 mm 0,0 km/h (0 Bft) S-SW 200 ° 0 min 0,000 mm 0,0 UV-I 0 W/m² -1,6 °C 0,0 km/h (0 Bft)
07.11.2016 19:09 -0,6 °C -0,6 °C 93 % 1010,6 hPa 0,0 mm 0,0 km/h (0 Bft) S-SW 200 ° 0 min 0,000 mm 0,0 UV-I 0 W/m² -1,6 °C 0,0 km/h (0 Bft)
07.11.2016 19:10 -0,6 °C -0,6 °C 93 % 1010,6 hPa 0,0 mm 0,3 km/h (0 Bft) S-SW 200 ° 0 min 0,000 mm 0,0 UV-I 0 W/m² -1,6 °C 1,6 km/h (1 Bft)
07.11.2016 19:11 -0,6 °C -0,6 °C 93 % 1010,5 hPa 0,0 mm 0,3 km/h (0 Bft) S-SW 200 ° 0 min 0,000 mm 0,0 UV-I 0 W/m² -1,6 °C 1,6 km/h (1 Bft)
07.11.2016 19:12 -0,6 °C -0,6 °C 93 % 1010,5 hPa 0,0 mm 0,4 km/h (0 Bft) S-SW 200 ° 0 min 0,000 mm 0,0 UV-I 0 W/m² -1,6 °C 1,6 km/h (1 Bft)
07.11.2016 19:13 -0,6 °C -0,6 °C 93 % 1010,5 hPa 0,0 mm 0,0 km/h (0 Bft) S-SW 200 ° 0 min 0,000 mm 0,0 UV-I 0 W/m² -1,6 °C 0,0 km/h (0 Bft)
07.11.2016 19:14 -0,6 °C -0,6 °C 93 % 1010,6 hPa 0,0 mm 0,0 km/h (0 Bft) S-SW 200 ° 0 min 0,000 mm 0,0 UV-I 0 W/m² -1,6 °C 0,0 km/h (0 Bft)
07.11.2016 19:15 -0,6 °C -0,6 °C 93 % 1010,6 hPa 0,0 mm 0,0 km/h (0 Bft) S-SW 200 ° 0 min 0,000 mm 0,0 UV-I 0 W/m² -1,6 °C 0,0 km/h (0 Bft)
07.11.2016 19:16 -0,6 °C -0,6 °C 93 % 1010,5 hPa 0,0 mm 0,0 km/h (0 Bft) S-SW 200 ° 0 min 0,000 mm 0,0 UV-I 0 W/m² -1,6 °C 0,0 km/h (0 Bft)
07.11.2016 19:17 -0,6 °C -0,6 °C 93 % 1010,5 hPa 0,0 mm 0,3 km/h (0 Bft) S-SW 200 ° 0 min 0,000 mm 0,0 UV-I 0 W/m² -1,6 °C 1,6 km/h (1 Bft)
07.11.2016 19:18 -0,7 °C -0,6 °C 93 % 1010,6 hPa 0,0 mm 1,5 km/h (1 Bft) S-SW 200 ° 0 min 0,000 mm 0,0 UV-I 0 W/m² -1,7 °C 3,2 km/h (1 Bft)
07.11.2016 19:19 -0,7 °C -0,7 °C 93 % 1010,5 hPa 0,0 mm 1,4 km/h (1 Bft) S-SW 200 ° 0 min 0,000 mm 0,0 UV-I 0 W/m² -1,7 °C 1,6 km/h (1 Bft)
07.11.2016 19:20 -0,7 °C -0,7 °C 93 % 1010,5 hPa 0,0 mm 1,0 km/h (0 Bft) S-SW 200 ° 0 min 0,000 mm 0,0 UV-I 0 W/m² -1,7 °C 3,2 km/h (1 Bft)
07.11.2016 19:21 -0,7 °C -0,7 °C 93 % 1010,6 hPa 0,0 mm 2,4 km/h (1 Bft) S-SW 196 ° 0 min 0,000 mm 0,0 UV-I 0 W/m² -1,7 °C 3,2 km/h (1 Bft)
07.11.2016 19:22 -0,7 °C -0,7 °C 93 % 1010,6 hPa 0,0 mm 2,6 km/h (1 Bft) S-SW 196 ° 0 min 0,000 mm 0,0 UV-I 0 W/m² -1,7 °C 3,2 km/h (1 Bft)
07.11.2016 19:23 -0,7 °C -0,7 °C 93 % 1010,5 hPa 0,0 mm 2,7 km/h (1 Bft) S-SW 196 ° 0 min 0,000 mm 0,0 UV-I 0 W/m² -1,7 °C 3,2 km/h (1 Bft)
07.11.2016 19:24 -0,7 °C -0,7 °C 93 % 1010,6 hPa 0,0 mm 2,0 km/h (1 Bft) S-SW 196 ° 0 min 0,000 mm 0,0 UV-I 0 W/m² -1,7 °C 3,2 km/h (1 Bft)
07.11.2016 19:25 -0,7 °C -0,7 °C 93 % 1010,5 hPa 0,0 mm 2,0 km/h (1 Bft) S-SW 196 ° 0 min 0,000 mm 0,0 UV-I 0 W/m² -1,7 °C 3,2 km/h (1 Bft)
07.11.2016 19:26 -0,7 °C -0,7 °C 93 % 1010,5 hPa 0,0 mm 2,1 km/h (1 Bft) S-SW 196 ° 0 min 0,000 mm 0,0 UV-I 0 W/m² -1,7 °C 3,2 km/h (1 Bft)
07.11.2016 19:27 -0,7 °C -0,7 °C 93 % 1010,5 hPa 0,0 mm 2,3 km/h (1 Bft) S-SW 196 ° 0 min 0,000 mm 0,0 UV-I 0 W/m² -1,7 °C 3,2 km/h (1 Bft)
07.11.2016 19:28 -0,7 °C -0,7 °C 93 % 1010,5 hPa 0,0 mm 2,4 km/h (1 Bft) S-SW 196 ° 0 min 0,000 mm 0,0 UV-I 0 W/m² -1,7 °C 3,2 km/h (1 Bft)
07.11.2016 19:29 -0,7 °C -0,7 °C 93 % 1010,5 hPa 0,0 mm 3,0 km/h (1 Bft) S-SW 194 ° 0 min 0,000 mm 0,0 UV-I 0 W/m² -1,7 °C 4,8 km/h (1 Bft)
07.11.2016 19:30 -0,7 °C -0,7 °C 93 % 1010,5 hPa 0,0 mm 2,9 km/h (1 Bft) S-SW 202 ° 0 min 0,000 mm 0,0 UV-I 0 W/m² -1,7 °C 4,8 km/h (1 Bft)
07.11.2016 19:31 -0,7 °C -0,7 °C 93 % 1010,5 hPa 0,0 mm 1,9 km/h (1 Bft) S-SW 202 ° 0 min 0,000 mm 0,0 UV-I 0 W/m² -1,7 °C 3,2 km/h (1 Bft)
07.11.2016 19:32 -0,7 °C -0,7 °C 93 % 1010,5 hPa 0,0 mm 2,8 km/h (1 Bft) S-SW 202 ° 0 min 0,000 mm 0,0 UV-I 0 W/m² -1,7 °C 3,2 km/h (1 Bft)
07.11.2016 19:33 -0,7 °C -0,7 °C 93 % 1010,5 hPa 0,0 mm 1,7 km/h (1 Bft) S-SW 202 ° 0 min 0,000 mm 0,0 UV-I 0 W/m² -1,7 °C 3,2 km/h (1 Bft)
07.11.2016 19:34 -0,8 °C -0,7 °C 93 % 1010,5 hPa 0,0 mm 1,8 km/h (1 Bft) S-SW 202 ° 0 min 0,000 mm 0,0 UV-I 0 W/m² -1,8 °C 3,2 km/h (1 Bft)
07.11.2016 19:35 -0,8 °C -0,7 °C 93 % 1010,5 hPa 0,0 mm 2,2 km/h (1 Bft) S-SW 202 ° 0 min 0,000 mm 0,0 UV-I 0 W/m² -1,8 °C 3,2 km/h (1 Bft)
07.11.2016 19:36 -0,8 °C -0,7 °C 93 % 1010,6 hPa 0,0 mm 1,8 km/h (1 Bft) S-SW 202 ° 0 min 0,000 mm 0,0 UV-I 0 W/m² -1,8 °C 3,2 km/h (1 Bft)
07.11.2016 19:37 -0,8 °C -0,7 °C 93 % 1010,5 hPa 0,0 mm 1,7 km/h (1 Bft) S-SW 202 ° 0 min 0,000 mm 0,0 UV-I 0 W/m² -1,8 °C 3,2 km/h (1 Bft)
07.11.2016 19:38 -0,8 °C -0,8 °C 93 % 1010,5 hPa 0,0 mm 1,9 km/h (1 Bft) S-SW 202 ° 0 min 0,000 mm 0,0 UV-I 0 W/m² -1,8 °C 3,2 km/h (1 Bft)
07.11.2016 19:39 -0,8 °C -0,8 °C 93 % 1010,5 hPa 0,0 mm 2,1 km/h (1 Bft) S-SW 202 ° 0 min 0,000 mm 0,0 UV-I 0 W/m² -1,8 °C 3,2 km/h (1 Bft)
07.11.2016 19:40 -0,8 °C -0,8 °C 93 % 1010,5 hPa 0,0 mm 3,2 km/h (1 Bft) S-SW 202 ° 0 min 0,000 mm 0,0 UV-I 0 W/m² -1,8 °C 3,2 km/h (1 Bft)
07.11.2016 19:41 -0,8 °C -0,8 °C 93 % 1010,5 hPa 0,0 mm 1,5 km/h (1 Bft) S-SW 202 ° 0 min 0,000 mm 0,0 UV-I 0 W/m² -1,8 °C 3,2 km/h (1 Bft)
07.11.2016 19:42 -0,8 °C -0,8 °C 92 % 1010,6 hPa 0,0 mm 2,5 km/h (1 Bft) S-SW 202 ° 0 min 0,000 mm 0,0 UV-I 0 W/m² -1,9 °C 3,2 km/h (1 Bft)
07.11.2016 19:43 -0,8 °C -0,8 °C 92 % 1010,6 hPa 0,0 mm 2,2 km/h (1 Bft) S-SW 202 ° 0 min 0,000 mm 0,0 UV-I 0 W/m² -1,9 °C 3,2 km/h (1 Bft)
07.11.2016 19:44 -0,8 °C -0,8 °C 92 % 1010,5 hPa 0,0 mm 3,0 km/h (1 Bft) S-SW 202 ° 0 min 0,000 mm 0,0 UV-I 0 W/m² -1,9 °C 4,8 km/h (1 Bft)
07.11.2016 19:45 -0,8 °C -0,8 °C 92 % 1010,5 hPa 0,0 mm 2,0 km/h (1 Bft) S-SW 202 ° 0 min 0,000 mm 0,0 UV-I 0 W/m² -1,9 °C 3,2 km/h (1 Bft)
07.11.2016 19:46 -0,9 °C -0,8 °C 92 % 1010,6 hPa 0,0 mm 1,9 km/h (1 Bft) S-SW 202 ° 0 min 0,000 mm 0,0 UV-I 0 W/m² -2,0 °C 3,2 km/h (1 Bft)
07.11.2016 19:47 -0,9 °C -0,9 °C 92 % 1010,5 hPa 0,0 mm 2,1 km/h (1 Bft) S-SW 202 ° 0 min 0,000 mm 0,0 UV-I 0 W/m² -2,0 °C 3,2 km/h (1 Bft)
07.11.2016 19:48 -0,9 °C -0,9 °C 92 % 1010,5 hPa 0,0 mm 2,5 km/h (1 Bft) S-SW 202 ° 0 min 0,000 mm 0,0 UV-I 0 W/m² -2,0 °C 3,2 km/h (1 Bft)
07.11.2016 19:49 -0,9 °C -0,9 °C 92 % 1010,6 hPa 0,0 mm 2,1 km/h (1 Bft) S-SW 202 ° 0 min 0,000 mm 0,0 UV-I 0 W/m² -2,0 °C 3,2 km/h (1 Bft)
07.11.2016 19:50 -0,9 °C -0,9 °C 92 % 1010,5 hPa 0,0 mm 1,2 km/h (1 Bft) S-SW 202 ° 0 min 0,000 mm 0,0 UV-I 0 W/m² -2,0 °C 3,2 km/h (1 Bft)
07.11.2016 19:51 -0,9 °C -0,9 °C 92 % 1010,6 hPa 0,0 mm 1,1 km/h (1 Bft) S-SW 202 ° 0 min 0,000 mm 0,0 UV-I 0 W/m² -2,0 °C 1,6 km/h (1 Bft)
07.11.2016 19:52 -0,9 °C -0,9 °C 92 % 1010,5 hPa 0,0 mm 1,8 km/h (1 Bft) S-SW 202 ° 0 min 0,000 mm 0,0 UV-I 0 W/m² -2,0 °C 3,2 km/h (1 Bft)
07.11.2016 19:53 -0,9 °C -0,9 °C 92 % 1010,6 hPa 0,0 mm 0,4 km/h (0 Bft) S-SW 202 ° 0 min 0,000 mm 0,0 UV-I 0 W/m² -2,0 °C 1,6 km/h (1 Bft)
07.11.2016 19:54 -0,9 °C -0,9 °C 92 % 1010,6 hPa 0,0 mm 1,2 km/h (1 Bft) S-SW 202 ° 0 min 0,000 mm 0,0 UV-I 0 W/m² -2,0 °C 3,2 km/h (1 Bft)
07.11.2016 19:55 -0,9 °C -0,9 °C 92 % 1010,6 hPa 0,0 mm 0,8 km/h (0 Bft) S-SW 202 ° 0 min 0,000 mm 0,0 UV-I 0 W/m² -2,0 °C 1,6 km/h (1 Bft)
07.11.2016 19:56 -0,9 °C -0,9 °C 92 % 1010,6 hPa 0,0 mm 2,1 km/h (1 Bft) S-SW 202 ° 0 min 0,000 mm 0,0 UV-I 0 W/m² -2,0 °C 3,2 km/h (1 Bft)
07.11.2016 19:57 -0,9 °C -0,9 °C 93 % 1010,6 hPa 0,0 mm 1,5 km/h (1 Bft) S-SW 202 ° 0 min 0,000 mm 0,0 UV-I 0 W/m² -1,9 °C 1,6 km/h (1 Bft)
07.11.2016 19:58 -1,0 °C -0,9 °C 93 % 1010,6 hPa 0,0 mm 2,3 km/h (1 Bft) S-SW 202 ° 0 min 0,000 mm 0,0 UV-I 0 W/m² -2,0 °C 3,2 km/h (1 Bft)
07.11.2016 19:59 -1,0 °C -1,0 °C 93 % 1010,5 hPa 0,0 mm 1,1 km/h (1 Bft) S-SW 202 ° 0 min 0,000 mm 0,0 UV-I 0 W/m² -2,0 °C 1,6 km/h (1 Bft)
07.11.2016 20:00 -1,0 °C -1,0 °C 93 % 1010,6 hPa 0,0 mm 1,5 km/h (1 Bft) S-SW 202 ° 0 min 0,000 mm 0,0 UV-I 0 W/m² -2,0 °C 1,6 km/h (1 Bft)
07.11.2016 20:01 -1,1 °C -1,0 °C 93 % 1010,5 hPa 0,0 mm 1,0 km/h (0 Bft) S-SW 202 ° 0 min 0,000 mm 0,0 UV-I 0 W/m² -2,1 °C 1,6 km/h (1 Bft)
07.11.2016 20:02 -1,1 °C -1,0 °C 93 % 1010,6 hPa 0,0 mm 1,5 km/h (1 Bft) S-SW 202 ° 0 min 0,000 mm 0,0 UV-I 0 W/m² -2,1 °C 3,2 km/h (1 Bft)
07.11.2016 20:03 -1,1 °C -1,1 °C 93 % 1010,6 hPa 0,0 mm 1,5 km/h (1 Bft) S-SW 202 ° 0 min 0,000 mm 0,0 UV-I 0 W/m² -2,1 °C 1,6 km/h (1 Bft)
07.11.2016 20:04 -1,1 °C -1,1 °C 93 % 1010,5 hPa 0,0 mm 0,3 km/h (0 Bft) S-SW 202 ° 0 min 0,000 mm 0,0 UV-I 0 W/m² -2,1 °C 1,6 km/h (1 Bft)
07.11.2016 20:05 -1,1 °C -1,1 °C 93 % 1010,6 hPa 0,0 mm 0,1 km/h (0 Bft) S-SW 202 ° 0 min 0,000 mm 0,0 UV-I 0 W/m² -2,1 °C 1,6 km/h (1 Bft)
07.11.2016 20:06 -1,1 °C -1,1 °C 93 % 1010,5 hPa 0,0 mm 0,0 km/h (0 Bft) S-SW 202 ° 0 min 0,000 mm 0,0 UV-I 0 W/m² -2,1 °C 0,0 km/h (0 Bft)
07.11.2016 20:07 -1,1 °C -1,1 °C 93 % 1010,5 hPa 0,0 mm 0,0 km/h (0 Bft) S-SW 202 ° 0 min 0,000 mm 0,0 UV-I 0 W/m² -2,1 °C 0,0 km/h (0 Bft)
07.11.2016 20:08 -1,1 °C -1,1 °C 93 % 1010,5 hPa 0,0 mm 0,0 km/h (0 Bft) S-SW 202 ° 0 min 0,000 mm 0,0 UV-I 0 W/m² -2,1 °C 0,0 km/h (0 Bft)
07.11.2016 20:09 -1,1 °C -1,1 °C 93 % 1010,5 hPa 0,0 mm 0,0 km/h (0 Bft) S-SW 202 ° 0 min 0,000 mm 0,0 UV-I 0 W/m² -2,1 °C 0,0 km/h (0 Bft)
07.11.2016 20:10 -1,1 °C -1,1 °C 93 % 1010,5 hPa 0,0 mm 0,0 km/h (0 Bft) S-SW 202 ° 0 min 0,000 mm 0,0 UV-I 0 W/m² -2,1 °C 0,0 km/h (0 Bft)
07.11.2016 20:11 -1,1 °C -1,1 °C 93 % 1010,5 hPa 0,0 mm 0,0 km/h (0 Bft) S-SW 202 ° 0 min 0,000 mm 0,0 UV-I 0 W/m² -2,1 °C 0,0 km/h (0 Bft)
07.11.2016 20:12 -1,1 °C -1,1 °C 93 % 1010,5 hPa 0,0 mm 0,0 km/h (0 Bft) S-SW 202 ° 0 min 0,000 mm 0,0 UV-I 0 W/m² -2,1 °C 0,0 km/h (0 Bft)
07.11.2016 20:13 -1,2 °C -1,1 °C 93 % 1010,5 hPa 0,0 mm 0,0 km/h (0 Bft) S-SW 202 ° 0 min 0,000 mm 0,0 UV-I 0 W/m² -2,2 °C 0,0 km/h (0 Bft)
07.11.2016 20:14 -1,2 °C -1,1 °C 93 % 1010,5 hPa 0,0 mm 0,2 km/h (0 Bft) S-SW 202 ° 0 min 0,000 mm 0,0 UV-I 0 W/m² -2,2 °C 1,6 km/h (1 Bft)
07.11.2016 20:15 -1,2 °C -1,2 °C 93 % 1010,5 hPa 0,0 mm 0,1 km/h (0 Bft) S-SW 202 ° 0 min 0,000 mm 0,0 UV-I 0 W/m² -2,2 °C 1,6 km/h (1 Bft)
07.11.2016 20:16 -1,2 °C -1,2 °C 93 % 1010,5 hPa 0,0 mm 0,4 km/h (0 Bft) S-SW 202 ° 0 min 0,000 mm 0,0 UV-I 0 W/m² -2,2 °C 1,6 km/h (1 Bft)
07.11.2016 20:17 -1,2 °C -1,2 °C 93 % 1010,5 hPa 0,0 mm 1,0 km/h (0 Bft) S-SW 202 ° 0 min 0,000 mm 0,0 UV-I 0 W/m² -2,2 °C 1,6 km/h (1 Bft)
07.11.2016 20:18 -1,2 °C -1,2 °C 93 % 1010,5 hPa 0,0 mm 0,1 km/h (0 Bft) S-SW 202 ° 0 min 0,000 mm 0,0 UV-I 0 W/m² -2,2 °C 1,6 km/h (1 Bft)
07.11.2016 20:19 -1,2 °C -1,2 °C 93 % 1010,5 hPa 0,0 mm 0,7 km/h (0 Bft) S-SW 202 ° 0 min 0,000 mm 0,0 UV-I 0 W/m² -2,2 °C 1,6 km/h (1 Bft)
07.11.2016 20:20 -1,2 °C -1,2 °C 93 % 1010,5 hPa 0,0 mm 0,5 km/h (0 Bft) S-SW 202 ° 0 min 0,000 mm 0,0 UV-I 0 W/m² -2,2 °C 1,6 km/h (1 Bft)
07.11.2016 20:21 -1,2 °C -1,2 °C 93 % 1010,5 hPa 0,0 mm 0,0 km/h (0 Bft) S-SW 202 ° 0 min 0,000 mm 0,0 UV-I 0 W/m² -2,2 °C 0,0 km/h (0 Bft)
07.11.2016 20:22 -1,2 °C -1,2 °C 93 % 1010,5 hPa 0,0 mm 0,0 km/h (0 Bft) S-SW 202 ° 0 min 0,000 mm 0,0 UV-I 0 W/m² -2,2 °C 0,0 km/h (0 Bft)
07.11.2016 20:23 -1,3 °C -1,2 °C 93 % 1010,5 hPa 0,0 mm 0,0 km/h (0 Bft) S-SW 202 ° 0 min 0,000 mm 0,0 UV-I 0 W/m² -2,3 °C 0,0 km/h (0 Bft)
07.11.2016 20:24 -1,3 °C -1,2 °C 93 % 1010,5 hPa 0,0 mm 0,1 km/h (0 Bft) S-SW 202 ° 0 min 0,000 mm 0,0 UV-I 0 W/m² -2,3 °C 1,6 km/h (1 Bft)
07.11.2016 20:25 -1,3 °C -1,2 °C 93 % 1010,5 hPa 0,0 mm 0,1 km/h (0 Bft) S-SW 202 ° 0 min 0,000 mm 0,0 UV-I 0 W/m² -2,3 °C 1,6 km/h (1 Bft)
07.11.2016 20:26 -1,3 °C -1,3 °C 93 % 1010,5 hPa 0,0 mm 0,0 km/h (0 Bft) S-SW 202 ° 0 min 0,000 mm 0,0 UV-I 0 W/m² -2,3 °C 0,0 km/h (0 Bft)
07.11.2016 20:27 -1,3 °C -1,3 °C 93 % 1010,5 hPa 0,0 mm 0,0 km/h (0 Bft) S-SW 202 ° 0 min 0,000 mm 0,0 UV-I 0 W/m² -2,3 °C 0,0 km/h (0 Bft)
07.11.2016 20:28 -1,3 °C -1,3 °C 93 % 1010,5 hPa 0,0 mm 0,0 km/h (0 Bft) S-SW 202 ° 0 min 0,000 mm 0,0 UV-I 0 W/m² -2,3 °C 0,0 km/h (0 Bft)
07.11.2016 20:29 -1,3 °C -1,3 °C 93 % 1010,6 hPa 0,0 mm 0,0 km/h (0 Bft) S-SW 202 ° 0 min 0,000 mm 0,0 UV-I 0 W/m² -2,3 °C 0,0 km/h (0 Bft)
07.11.2016 20:30 -1,3 °C -1,3 °C 93 % 1010,6 hPa 0,0 mm 0,0 km/h (0 Bft) S-SW 202 ° 0 min 0,000 mm 0,0 UV-I 0 W/m² -2,3 °C 0,0 km/h (0 Bft)
07.11.2016 20:31 -1,3 °C -1,3 °C 93 % 1010,6 hPa 0,0 mm 0,0 km/h (0 Bft) S-SW 202 ° 0 min 0,000 mm 0,0 UV-I 0 W/m² -2,3 °C 0,0 km/h (0 Bft)
07.11.2016 20:32 -1,3 °C -1,3 °C 93 % 1010,6 hPa 0,0 mm 0,0 km/h (0 Bft) S-SW 202 ° 0 min 0,000 mm 0,0 UV-I 0 W/m² -2,3 °C 0,0 km/h (0 Bft)
07.11.2016 20:33 -1,3 °C -1,3 °C 93 % 1010,6 hPa 0,0 mm 0,0 km/h (0 Bft) S-SW 202 ° 0 min 0,000 mm 0,0 UV-I 0 W/m² -2,3 °C 0,0 km/h (0 Bft)
07.11.2016 20:34 -1,4 °C -1,3 °C 93 % 1010,6 hPa 0,0 mm 0,1 km/h (0 Bft) S-SW 202 ° 0 min 0,000 mm 0,0 UV-I 0 W/m² -2,4 °C 1,6 km/h (1 Bft)
07.11.2016 20:35 -1,4 °C -1,3 °C 93 % 1010,6 hPa 0,0 mm 0,6 km/h (0 Bft) S-SW 202 ° 0 min 0,000 mm 0,0 UV-I 0 W/m² -2,4 °C 1,6 km/h (1 Bft)
07.11.2016 20:36 -1,4 °C -1,3 °C 93 % 1010,7 hPa 0,0 mm 0,0 km/h (0 Bft) S-SW 202 ° 0 min 0,000 mm 0,0 UV-I 0 W/m² -2,4 °C 0,0 km/h (0 Bft)
07.11.2016 20:37 -1,4 °C -1,4 °C 93 % 1010,7 hPa 0,0 mm 0,0 km/h (0 Bft) S-SW 202 ° 0 min 0,000 mm 0,0 UV-I 0 W/m² -2,4 °C 0,0 km/h (0 Bft)
07.11.2016 20:38 -1,4 °C -1,4 °C 93 % 1010,6 hPa 0,0 mm 0,0 km/h (0 Bft) S-SW 202 ° 0 min 0,000 mm 0,0 UV-I 0 W/m² -2,4 °C 0,0 km/h (0 Bft)
07.11.2016 20:39 -1,4 °C -1,4 °C 93 % 1010,7 hPa 0,0 mm 0,1 km/h (0 Bft) S-SW 202 ° 0 min 0,000 mm 0,0 UV-I 0 W/m² -2,4 °C 1,6 km/h (1 Bft)
07.11.2016 20:40 -1,4 °C -1,4 °C 93 % 1010,7 hPa 0,0 mm 2,0 km/h (1 Bft) S-SW 203 ° 0 min 0,000 mm 0,0 UV-I 0 W/m² -2,4 °C 3,2 km/h (1 Bft)
07.11.2016 20:41 -1,4 °C -1,4 °C 93 % 1010,7 hPa 0,0 mm 1,3 km/h (1 Bft) S-SW 203 ° 0 min 0,000 mm 0,0 UV-I 0 W/m² -2,4 °C 3,2 km/h (1 Bft)
07.11.2016 20:42 -1,4 °C -1,4 °C 93 % 1010,6 hPa 0,0 mm 0,3 km/h (0 Bft) S-SW 203 ° 0 min 0,000 mm 0,0 UV-I 0 W/m² -2,4 °C 1,6 km/h (1 Bft)
07.11.2016 20:43 -1,5 °C -1,4 °C 93 % 1010,7 hPa 0,0 mm 0,3 km/h (0 Bft) S-SW 203 ° 0 min 0,000 mm 0,0 UV-I 0 W/m² -2,5 °C 1,6 km/h (1 Bft)
07.11.2016 20:44 -1,5 °C -1,5 °C 93 % 1010,7 hPa 0,0 mm 0,9 km/h (0 Bft) S-SW 203 ° 0 min 0,000 mm 0,0 UV-I 0 W/m² -2,5 °C 1,6 km/h (1 Bft)
07.11.2016 20:45 -1,5 °C -1,5 °C 93 % 1010,7 hPa 0,0 mm 0,1 km/h (0 Bft) S-SW 203 ° 0 min 0,000 mm 0,0 UV-I 0 W/m² -2,5 °C 1,6 km/h (1 Bft)
07.11.2016 20:46 -1,6 °C -1,5 °C 93 % 1010,7 hPa 0,0 mm 0,0 km/h (0 Bft) S-SW 203 ° 0 min 0,000 mm 0,0 UV-I 0 W/m² -2,6 °C 0,0 km/h (0 Bft)
07.11.2016 20:47 -1,6 °C -1,5 °C 93 % 1010,7 hPa 0,0 mm 0,0 km/h (0 Bft) S-SW 203 ° 0 min 0,000 mm 0,0 UV-I 0 W/m² -2,6 °C 0,0 km/h (0 Bft)
07.11.2016 20:48 -1,6 °C -1,6 °C 93 % 1010,8 hPa 0,0 mm 1,0 km/h (0 Bft) S-SW 203 ° 0 min 0,000 mm 0,0 UV-I 0 W/m² -2,6 °C 1,6 km/h (1 Bft)
07.11.2016 20:49 -1,6 °C -1,6 °C 93 % 1010,7 hPa 0,0 mm 1,1 km/h (1 Bft) S-SW 203 ° 0 min 0,000 mm 0,0 UV-I 0 W/m² -2,6 °C 1,6 km/h (1 Bft)
07.11.2016 20:50 -1,6 °C -1,6 °C 93 % 1010,7 hPa 0,0 mm 0,3 km/h (0 Bft) S-SW 203 ° 0 min 0,000 mm 0,0 UV-I 0 W/m² -2,6 °C 1,6 km/h (1 Bft)
07.11.2016 20:51 -1,6 °C -1,6 °C 93 % 1010,7 hPa 0,0 mm 0,0 km/h (0 Bft) S-SW 203 ° 0 min 0,000 mm 0,0 UV-I 0 W/m² -2,6 °C 0,0 km/h (0 Bft)
07.11.2016 20:52 -1,6 °C -1,6 °C 93 % 1010,7 hPa 0,0 mm 0,0 km/h (0 Bft) S-SW 203 ° 0 min 0,000 mm 0,0 UV-I 0 W/m² -2,6 °C 0,0 km/h (0 Bft)
07.11.2016 20:53 -1,6 °C -1,6 °C 93 % 1010,7 hPa 0,0 mm 0,5 km/h (0 Bft) S-SW 203 ° 0 min 0,000 mm 0,0 UV-I 0 W/m² -2,6 °C 1,6 km/h (1 Bft)
07.11.2016 20:54 -1,6 °C -1,6 °C 93 % 1010,7 hPa 0,0 mm 1,8 km/h (1 Bft) S-SW 202 ° 0 min 0,000 mm 0,0 UV-I 0 W/m² -2,6 °C 3,2 km/h (1 Bft)
07.11.2016 20:55 -1,6 °C -1,6 °C 93 % 1010,7 hPa 0,0 mm 2,4 km/h (1 Bft) S-SW 202 ° 0 min 0,000 mm 0,0 UV-I 0 W/m² -2,6 °C 3,2 km/h (1 Bft)
07.11.2016 20:56 -1,6 °C -1,6 °C 93 % 1010,7 hPa 0,0 mm 1,7 km/h (1 Bft) S-SW 202 ° 0 min 0,000 mm 0,0 UV-I 0 W/m² -2,6 °C 3,2 km/h (1 Bft)
07.11.2016 20:57 -1,6 °C -1,6 °C 93 % 1010,7 hPa 0,0 mm 1,2 km/h (1 Bft) S-SW 202 ° 0 min 0,000 mm 0,0 UV-I 0 W/m² -2,6 °C 1,6 km/h (1 Bft)
07.11.2016 20:58 -1,6 °C -1,6 °C 93 % 1010,7 hPa 0,0 mm 1,8 km/h (1 Bft) S-SW 202 ° 0 min 0,000 mm 0,0 UV-I 0 W/m² -2,6 °C 3,2 km/h (1 Bft)
07.11.2016 20:59 -1,6 °C -1,6 °C 94 % 1010,7 hPa 0,0 mm 1,2 km/h (1 Bft) S-SW 202 ° 0 min 0,000 mm 0,0 UV-I 0 W/m² -2,4 °C 1,6 km/h (1 Bft)
07.11.2016 21:00 -1,6 °C -1,6 °C 93 % 1010,7 hPa 0,0 mm 0,9 km/h (0 Bft) S-SW 202 ° 0 min 0,000 mm 0,0 UV-I 0 W/m² -2,6 °C 1,6 km/h (1 Bft)
07.11.2016 21:01 -1,6 °C -1,6 °C 93 % 1010,7 hPa 0,0 mm 0,9 km/h (0 Bft) S-SW 202 ° 0 min 0,000 mm 0,0 UV-I 0 W/m² -2,6 °C 1,6 km/h (1 Bft)
07.11.2016 21:02 -1,6 °C -1,6 °C 94 % 1010,8 hPa 0,0 mm 0,3 km/h (0 Bft) S-SW 202 ° 0 min 0,000 mm 0,0 UV-I 0 W/m² -2,4 °C 1,6 km/h (1 Bft)
07.11.2016 21:03 -1,6 °C -1,6 °C 94 % 1010,8 hPa 0,0 mm 0,6 km/h (0 Bft) S-SW 202 ° 0 min 0,000 mm 0,0 UV-I 0 W/m² -2,4 °C 1,6 km/h (1 Bft)
07.11.2016 21:04 -1,6 °C -1,6 °C 94 % 1010,8 hPa 0,0 mm 0,1 km/h (0 Bft) S-SW 202 ° 0 min 0,000 mm 0,0 UV-I 0 W/m² -2,4 °C 1,6 km/h (1 Bft)
07.11.2016 21:05 -1,6 °C -1,6 °C 94 % 1010,8 hPa 0,0 mm 0,0 km/h (0 Bft) S-SW 202 ° 0 min 0,000 mm 0,0 UV-I 0 W/m² -2,4 °C 0,0 km/h (0 Bft)
07.11.2016 21:06 -1,6 °C -1,6 °C 94 % 1010,8 hPa 0,0 mm 0,0 km/h (0 Bft) S-SW 202 ° 0 min 0,000 mm 0,0 UV-I 0 W/m² -2,4 °C 0,0 km/h (0 Bft)
07.11.2016 21:07 -1,6 °C -1,6 °C 94 % 1010,8 hPa 0,0 mm 0,0 km/h (0 Bft) S-SW 202 ° 0 min 0,000 mm 0,0 UV-I 0 W/m² -2,4 °C 0,0 km/h (0 Bft)
07.11.2016 21:08 -1,6 °C -1,6 °C 94 % 1010,7 hPa 0,0 mm 0,6 km/h (0 Bft) S-SW 202 ° 0 min 0,000 mm 0,0 UV-I 0 W/m² -2,4 °C 1,6 km/h (1 Bft)
07.11.2016 21:09 -1,6 °C -1,6 °C 94 % 1010,7 hPa 0,0 mm 0,6 km/h (0 Bft) S-SW 202 ° 0 min 0,000 mm 0,0 UV-I 0 W/m² -2,4 °C 1,6 km/h (1 Bft)
07.11.2016 21:10 -1,6 °C -1,6 °C 94 % 1010,8 hPa 0,0 mm 0,3 km/h (0 Bft) S-SW 202 ° 0 min 0,000 mm 0,0 UV-I 0 W/m² -2,4 °C 1,6 km/h (1 Bft)
07.11.2016 21:11 -1,6 °C -1,6 °C 94 % 1010,8 hPa 0,0 mm 0,3 km/h (0 Bft) S-SW 202 ° 0 min 0,000 mm 0,0 UV-I 0 W/m² -2,4 °C 1,6 km/h (1 Bft)
07.11.2016 21:12 -1,6 °C -1,6 °C 94 % 1010,8 hPa 0,0 mm 0,0 km/h (0 Bft) S-SW 202 ° 0 min 0,000 mm 0,0 UV-I 0 W/m² -2,4 °C 0,0 km/h (0 Bft)
07.11.2016 21:13 -1,6 °C -1,6 °C 94 % 1010,8 hPa 0,0 mm 0,0 km/h (0 Bft) S-SW 202 ° 0 min 0,000 mm 0,0 UV-I 0 W/m² -2,4 °C 0,0 km/h (0 Bft)
07.11.2016 21:14 -1,7 °C -1,6 °C 94 % 1010,8 hPa 0,0 mm 0,0 km/h (0 Bft) S-SW 202 ° 0 min 0,000 mm 0,0 UV-I 0 W/m² -2,5 °C 0,0 km/h (0 Bft)
07.11.2016 21:15 -1,6 °C -1,6 °C 94 % 1010,8 hPa 0,0 mm 0,0 km/h (0 Bft) S-SW 202 ° 0 min 0,000 mm 0,0 UV-I 0 W/m² -2,4 °C 0,0 km/h (0 Bft)
07.11.2016 21:16 -1,7 °C -1,6 °C 94 % 1010,8 hPa 0,0 mm 0,0 km/h (0 Bft) S-SW 202 ° 0 min 0,000 mm 0,0 UV-I 0 W/m² -2,5 °C 0,0 km/h (0 Bft)
07.11.2016 21:17 -1,6 °C -1,6 °C 94 % 1010,8 hPa 0,0 mm 0,0 km/h (0 Bft) S-SW 202 ° 0 min 0,000 mm 0,0 UV-I 0 W/m² -2,4 °C 0,0 km/h (0 Bft)
07.11.2016 21:18 -1,6 °C -1,6 °C 94 % 1010,8 hPa 0,0 mm 0,1 km/h (0 Bft) S-SW 202 ° 0 min 0,000 mm 0,0 UV-I 0 W/m² -2,4 °C 1,6 km/h (1 Bft)
07.11.2016 21:19 -1,7 °C -1,6 °C 94 % 1010,8 hPa 0,0 mm 0,0 km/h (0 Bft) S-SW 202 ° 0 min 0,000 mm 0,0 UV-I 0 W/m² -2,5 °C 0,0 km/h (0 Bft)
07.11.2016 21:20 -1,7 °C -1,7 °C 94 % 1010,7 hPa 0,0 mm 0,0 km/h (0 Bft) S-SW 202 ° 0 min 0,000 mm 0,0 UV-I 0 W/m² -2,5 °C 0,0 km/h (0 Bft)
07.11.2016 21:21 -1,7 °C -1,7 °C 94 % 1010,8 hPa 0,0 mm 0,0 km/h (0 Bft) S-SW 202 ° 0 min 0,000 mm 0,0 UV-I 0 W/m² -2,5 °C 0,0 km/h (0 Bft)
07.11.2016 21:22 -1,7 °C -1,7 °C 94 % 1010,7 hPa 0,0 mm 0,0 km/h (0 Bft) S-SW 202 ° 0 min 0,000 mm 0,0 UV-I 0 W/m² -2,5 °C 0,0 km/h (0 Bft)
07.11.2016 21:23 -1,7 °C -1,7 °C 94 % 1010,7 hPa 0,0 mm 0,0 km/h (0 Bft) S-SW 202 ° 0 min 0,000 mm 0,0 UV-I 0 W/m² -2,5 °C 0,0 km/h (0 Bft)
07.11.2016 21:24 -1,7 °C -1,7 °C 94 % 1010,7 hPa 0,0 mm 0,0 km/h (0 Bft) S-SW 202 ° 0 min 0,000 mm 0,0 UV-I 0 W/m² -2,5 °C 0,0 km/h (0 Bft)
07.11.2016 21:25 -1,7 °C -1,7 °C 94 % 1010,7 hPa 0,0 mm 0,1 km/h (0 Bft) S-SW 202 ° 0 min 0,000 mm 0,0 UV-I 0 W/m² -2,5 °C 1,6 km/h (1 Bft)
07.11.2016 21:26 -1,8 °C -1,7 °C 94 % 1010,7 hPa 0,0 mm 0,3 km/h (0 Bft) S-SW 202 ° 0 min 0,000 mm 0,0 UV-I 0 W/m² -2,6 °C 1,6 km/h (1 Bft)
07.11.2016 21:27 -1,8 °C -1,7 °C 94 % 1010,7 hPa 0,0 mm 1,1 km/h (1 Bft) S-SW 202 ° 0 min 0,000 mm 0,0 UV-I 0 W/m² -2,6 °C 3,2 km/h (1 Bft)
07.11.2016 21:28 -1,7 °C -1,7 °C 94 % 1010,7 hPa 0,0 mm 1,9 km/h (1 Bft) S-SW 202 ° 0 min 0,000 mm 0,0 UV-I 0 W/m² -2,5 °C 3,2 km/h (1 Bft)
07.11.2016 21:29 -1,7 °C -1,7 °C 94 % 1010,7 hPa 0,0 mm 1,5 km/h (1 Bft) S-SW 202 ° 0 min 0,000 mm 0,0 UV-I 0 W/m² -2,5 °C 3,2 km/h (1 Bft)
07.11.2016 21:30 -1,8 °C -1,7 °C 94 % 1010,7 hPa 0,0 mm 0,5 km/h (0 Bft) S-SW 202 ° 0 min 0,000 mm 0,0 UV-I 0 W/m² -2,6 °C 1,6 km/h (1 Bft)
07.11.2016 21:31 -1,8 °C -1,7 °C 94 % 1010,7 hPa 0,0 mm 0,5 km/h (0 Bft) S-SW 202 ° 0 min 0,000 mm 0,0 UV-I 0 W/m² -2,6 °C 1,6 km/h (1 Bft)
07.11.2016 21:32 -1,8 °C -1,7 °C 94 % 1010,7 hPa 0,0 mm 1,3 km/h (1 Bft) S-SW 202 ° 0 min 0,000 mm 0,0 UV-I 0 W/m² -2,6 °C 1,6 km/h (1 Bft)
07.11.2016 21:33 -1,7 °C -1,7 °C 94 % 1010,8 hPa 0,0 mm 1,5 km/h (1 Bft) S-SW 202 ° 0 min 0,000 mm 0,0 UV-I 0 W/m² -2,5 °C 1,6 km/h (1 Bft)
07.11.2016 21:34 -1,7 °C -1,7 °C 94 % 1010,8 hPa 0,0 mm 1,5 km/h (1 Bft) S-SW 202 ° 0 min 0,000 mm 0,0 UV-I 0 W/m² -2,5 °C 3,2 km/h (1 Bft)
07.11.2016 21:35 -1,7 °C -1,7 °C 94 % 1010,8 hPa 0,0 mm 2,4 km/h (1 Bft) S-SW 202 ° 0 min 0,000 mm 0,0 UV-I 0 W/m² -2,5 °C 3,2 km/h (1 Bft)
07.11.2016 21:36 -1,7 °C -1,7 °C 94 % 1010,8 hPa 0,0 mm 1,4 km/h (1 Bft) S-SW 202 ° 0 min 0,000 mm 0,0 UV-I 0 W/m² -2,5 °C 3,2 km/h (1 Bft)
07.11.2016 21:37 -1,7 °C -1,7 °C 94 % 1010,8 hPa 0,0 mm 0,6 km/h (0 Bft) S-SW 202 ° 0 min 0,000 mm 0,0 UV-I 0 W/m² -2,5 °C 1,6 km/h (1 Bft)
07.11.2016 21:38 -1,7 °C -1,7 °C 94 % 1010,8 hPa 0,0 mm 2,3 km/h (1 Bft) S-SW 202 ° 0 min 0,000 mm 0,0 UV-I 0 W/m² -2,5 °C 4,8 km/h (1 Bft)
07.11.2016 21:39 -1,7 °C -1,7 °C 94 % 1010,8 hPa 0,0 mm 3,8 km/h (1 Bft) S-SW 202 ° 0 min 0,000 mm 0,0 UV-I 0 W/m² -2,5 °C 4,8 km/h (1 Bft)
07.11.2016 21:40 -1,7 °C -1,7 °C 94 % 1010,8 hPa 0,0 mm 3,3 km/h (1 Bft) S-SW 202 ° 0 min 0,000 mm 0,0 UV-I 0 W/m² -2,5 °C 4,8 km/h (1 Bft)
07.11.2016 21:41 -1,7 °C -1,7 °C 94 % 1010,8 hPa 0,0 mm 0,4 km/h (0 Bft) S-SW 202 ° 0 min 0,000 mm 0,0 UV-I 0 W/m² -2,5 °C 1,6 km/h (1 Bft)
07.11.2016 21:42 -1,7 °C -1,7 °C 94 % 1010,8 hPa 0,0 mm 0,1 km/h (0 Bft) S-SW 202 ° 0 min 0,000 mm 0,0 UV-I 0 W/m² -2,5 °C 1,6 km/h (1 Bft)
07.11.2016 21:43 -1,7 °C -1,7 °C 94 % 1010,7 hPa 0,0 mm 0,9 km/h (0 Bft) S-SW 202 ° 0 min 0,000 mm 0,0 UV-I 0 W/m² -2,5 °C 1,6 km/h (1 Bft)
07.11.2016 21:44 -1,7 °C -1,7 °C 94 % 1010,7 hPa 0,0 mm 0,3 km/h (0 Bft) S-SW 202 ° 0 min 0,000 mm 0,0 UV-I 0 W/m² -2,5 °C 1,6 km/h (1 Bft)
07.11.2016 21:45 -1,7 °C -1,7 °C 94 % 1010,7 hPa 0,0 mm 0,5 km/h (0 Bft) S-SW 202 ° 0 min 0,000 mm 0,0 UV-I 0 W/m² -2,5 °C 1,6 km/h (1 Bft)
07.11.2016 21:46 -1,7 °C -1,7 °C 94 % 1010,8 hPa 0,0 mm 0,1 km/h (0 Bft) S-SW 202 ° 0 min 0,000 mm 0,0 UV-I 0 W/m² -2,5 °C 1,6 km/h (1 Bft)
07.11.2016 21:47 -1,7 °C -1,7 °C 94 % 1010,7 hPa 0,0 mm 0,3 km/h (0 Bft) S-SW 202 ° 0 min 0,000 mm 0,0 UV-I 0 W/m² -2,5 °C 1,6 km/h (1 Bft)
07.11.2016 21:48 -1,8 °C -1,7 °C 94 % 1010,8 hPa 0,0 mm 0,4 km/h (0 Bft) S-SW 202 ° 0 min 0,000 mm 0,0 UV-I 0 W/m² -2,6 °C 1,6 km/h (1 Bft)
07.11.2016 21:49 -1,8 °C -1,7 °C 94 % 1010,8 hPa 0,0 mm 0,2 km/h (0 Bft) S-SW 202 ° 0 min 0,000 mm 0,0 UV-I 0 W/m² -2,6 °C 1,6 km/h (1 Bft)
07.11.2016 21:50 -1,8 °C -1,8 °C 94 % 1010,8 hPa 0,0 mm 1,8 km/h (1 Bft) S-SW 202 ° 0 min 0,000 mm 0,0 UV-I 0 W/m² -2,6 °C 3,2 km/h (1 Bft)
07.11.2016 21:51 -1,8 °C -1,8 °C 94 % 1010,8 hPa 0,0 mm 3,0 km/h (1 Bft) S-SW 202 ° 0 min 0,000 mm 0,0 UV-I 0 W/m² -2,6 °C 4,8 km/h (1 Bft)
07.11.2016 21:52 -1,8 °C -1,8 °C 94 % 1010,8 hPa 0,0 mm 3,0 km/h (1 Bft) S-SW 202 ° 0 min 0,000 mm 0,0 UV-I 0 W/m² -2,6 °C 3,2 km/h (1 Bft)
07.11.2016 21:53 -1,8 °C -1,8 °C 94 % 1010,8 hPa 0,0 mm 3,3 km/h (1 Bft) S-SW 202 ° 0 min 0,000 mm 0,0 UV-I 0 W/m² -2,6 °C 4,8 km/h (1 Bft)
07.11.2016 21:54 -1,8 °C -1,8 °C 94 % 1010,8 hPa 0,0 mm 3,4 km/h (1 Bft) S-SW 195 ° 0 min 0,000 mm 0,0 UV-I 0 W/m² -2,6 °C 4,8 km/h (1 Bft)
07.11.2016 21:55 -1,8 °C -1,8 °C 94 % 1010,8 hPa 0,0 mm 3,6 km/h (1 Bft) S-SW 195 ° 0 min 0,000 mm 0,0 UV-I 0 W/m² -2,6 °C 4,8 km/h (1 Bft)
07.11.2016 21:56 -1,8 °C -1,8 °C 94 % 1010,8 hPa 0,0 mm 2,7 km/h (1 Bft) S-SW 195 ° 0 min 0,000 mm 0,0 UV-I 0 W/m² -2,6 °C 4,8 km/h (1 Bft)
07.11.2016 21:57 -1,8 °C -1,8 °C 94 % 1010,8 hPa 0,0 mm 1,8 km/h (1 Bft) S-SW 195 ° 0 min 0,000 mm 0,0 UV-I 0 W/m² -2,6 °C 3,2 km/h (1 Bft)
07.11.2016 21:58 -1,8 °C -1,8 °C 94 % 1010,8 hPa 0,0 mm 0,1 km/h (0 Bft) S-SW 195 ° 0 min 0,000 mm 0,0 UV-I 0 W/m² -2,6 °C 1,6 km/h (1 Bft)
07.11.2016 21:59 -1,8 °C -1,8 °C 94 % 1010,8 hPa 0,0 mm 3,6 km/h (1 Bft) W 265 ° 0 min 0,000 mm 0,0 UV-I 0 W/m² -2,6 °C 4,8 km/h (1 Bft)
07.11.2016 22:00 -1,8 °C -1,8 °C 94 % 1010,8 hPa 0,0 mm 2,2 km/h (1 Bft) W 265 ° 0 min 0,000 mm 0,0 UV-I 0 W/m² -2,6 °C 3,2 km/h (1 Bft)
07.11.2016 22:01 -1,8 °C -1,8 °C 94 % 1010,8 hPa 0,0 mm 0,2 km/h (0 Bft) W 265 ° 0 min 0,000 mm 0,0 UV-I 0 W/m² -2,6 °C 1,6 km/h (1 Bft)
07.11.2016 22:02 -1,8 °C -1,8 °C 94 % 1010,8 hPa 0,0 mm 0,1 km/h (0 Bft) W 265 ° 0 min 0,000 mm 0,0 UV-I 0 W/m² -2,6 °C 1,6 km/h (1 Bft)
07.11.2016 22:03 -1,8 °C -1,8 °C 94 % 1010,9 hPa 0,0 mm 0,3 km/h (0 Bft) W 265 ° 0 min 0,000 mm 0,0 UV-I 0 W/m² -2,6 °C 1,6 km/h (1 Bft)
07.11.2016 22:04 -1,8 °C -1,8 °C 94 % 1010,9 hPa 0,0 mm 0,7 km/h (0 Bft) W 265 ° 0 min 0,000 mm 0,0 UV-I 0 W/m² -2,6 °C 1,6 km/h (1 Bft)
07.11.2016 22:05 -1,8 °C -1,8 °C 94 % 1010,9 hPa 0,0 mm 1,3 km/h (1 Bft) W 265 ° 0 min 0,000 mm 0,0 UV-I 0 W/m² -2,6 °C 3,2 km/h (1 Bft)
07.11.2016 22:06 -1,8 °C -1,8 °C 94 % 1010,9 hPa 0,0 mm 1,5 km/h (1 Bft) W 265 ° 0 min 0,000 mm 0,0 UV-I 0 W/m² -2,6 °C 3,2 km/h (1 Bft)
07.11.2016 22:07 -1,8 °C -1,8 °C 94 % 1010,9 hPa 0,0 mm 0,9 km/h (0 Bft) W 265 ° 0 min 0,000 mm 0,0 UV-I 0 W/m² -2,6 °C 1,6 km/h (1 Bft)
07.11.2016 22:08 -1,8 °C -1,8 °C 94 % 1010,9 hPa 0,0 mm 1,0 km/h (0 Bft) W 265 ° 0 min 0,000 mm 0,0 UV-I 0 W/m² -2,6 °C 1,6 km/h (1 Bft)
07.11.2016 22:09 -1,8 °C -1,8 °C 94 % 1010,8 hPa 0,0 mm 0,1 km/h (0 Bft) W 265 ° 0 min 0,000 mm 0,0 UV-I 0 W/m² -2,6 °C 1,6 km/h (1 Bft)
07.11.2016 22:10 -1,9 °C -1,8 °C 94 % 1010,8 hPa 0,0 mm 1,2 km/h (1 Bft) W 265 ° 0 min 0,000 mm 0,0 UV-I 0 W/m² -2,7 °C 3,2 km/h (1 Bft)
07.11.2016 22:11 -1,8 °C -1,8 °C 94 % 1010,8 hPa 0,0 mm 1,8 km/h (1 Bft) W 265 ° 0 min 0,000 mm 0,0 UV-I 0 W/m² -2,6 °C 3,2 km/h (1 Bft)
07.11.2016 22:12 -1,9 °C -1,8 °C 94 % 1010,8 hPa 0,0 mm 2,0 km/h (1 Bft) W 265 ° 0 min 0,000 mm 0,0 UV-I 0 W/m² -2,7 °C 3,2 km/h (1 Bft)
07.11.2016 22:13 -1,9 °C -1,8 °C 94 % 1010,8 hPa 0,0 mm 2,0 km/h (1 Bft) W 265 ° 0 min 0,000 mm 0,0 UV-I 0 W/m² -2,7 °C 3,2 km/h (1 Bft)
07.11.2016 22:14 -1,8 °C -1,8 °C 94 % 1010,8 hPa 0,0 mm 2,1 km/h (1 Bft) W 265 ° 0 min 0,000 mm 0,0 UV-I 0 W/m² -2,6 °C 3,2 km/h (1 Bft)
07.11.2016 22:15 -1,8 °C -1,8 °C 94 % 1010,8 hPa 0,0 mm 1,5 km/h (1 Bft) W 265 ° 0 min 0,000 mm 0,0 UV-I 0 W/m² -2,6 °C 1,6 km/h (1 Bft)
07.11.2016 22:16 -1,8 °C -1,8 °C 94 % 1010,8 hPa 0,0 mm 1,8 km/h (1 Bft) W 265 ° 0 min 0,000 mm 0,0 UV-I 0 W/m² -2,6 °C 3,2 km/h (1 Bft)
07.11.2016 22:17 -1,8 °C -1,8 °C 94 % 1010,8 hPa 0,0 mm 0,1 km/h (0 Bft) W 265 ° 0 min 0,000 mm 0,0 UV-I 0 W/m² -2,6 °C 1,6 km/h (1 Bft)
07.11.2016 22:18 -1,8 °C -1,8 °C 94 % 1010,8 hPa 0,0 mm 0,0 km/h (0 Bft) W 265 ° 0 min 0,000 mm 0,0 UV-I 0 W/m² -2,6 °C 0,0 km/h (0 Bft)
07.11.2016 22:19 -1,8 °C -1,8 °C 94 % 1010,8 hPa 0,0 mm 1,4 km/h (1 Bft) W 266 ° 0 min 0,000 mm 0,0 UV-I 0 W/m² -2,6 °C 3,2 km/h (1 Bft)
07.11.2016 22:20 -1,9 °C -1,8 °C 94 % 1010,8 hPa 0,0 mm 1,9 km/h (1 Bft) W 266 ° 0 min 0,000 mm 0,0 UV-I 0 W/m² -2,7 °C 3,2 km/h (1 Bft)
07.11.2016 22:21 -1,9 °C -1,8 °C 94 % 1010,8 hPa 0,0 mm 1,0 km/h (0 Bft) W 266 ° 0 min 0,000 mm 0,0 UV-I 0 W/m² -2,7 °C 1,6 km/h (1 Bft)
07.11.2016 22:22 -1,8 °C -1,8 °C 94 % 1010,8 hPa 0,0 mm 0,3 km/h (0 Bft) W 266 ° 0 min 0,000 mm 0,0 UV-I 0 W/m² -2,6 °C 1,6 km/h (1 Bft)
07.11.2016 22:23 -1,8 °C -1,8 °C 94 % 1010,8 hPa 0,0 mm 0,0 km/h (0 Bft) W 266 ° 0 min 0,000 mm 0,0 UV-I 0 W/m² -2,6 °C 0,0 km/h (0 Bft)
07.11.2016 22:24 -1,8 °C -1,8 °C 94 % 1010,8 hPa 0,0 mm 0,0 km/h (0 Bft) W 266 ° 0 min 0,000 mm 0,0 UV-I 0 W/m² -2,6 °C 0,0 km/h (0 Bft)
07.11.2016 22:25 -1,8 °C -1,8 °C 94 % 1010,8 hPa 0,0 mm 0,0 km/h (0 Bft) W 266 ° 0 min 0,000 mm 0,0 UV-I 0 W/m² -2,6 °C 0,0 km/h (0 Bft)
07.11.2016 22:26 -1,9 °C -1,8 °C 94 % 1010,8 hPa 0,0 mm 0,0 km/h (0 Bft) W 266 ° 0 min 0,000 mm 0,0 UV-I 0 W/m² -2,7 °C 0,0 km/h (0 Bft)
07.11.2016 22:27 -1,8 °C -1,8 °C 94 % 1010,8 hPa 0,0 mm 0,3 km/h (0 Bft) W 266 ° 0 min 0,000 mm 0,0 UV-I 0 W/m² -2,6 °C 1,6 km/h (1 Bft)
07.11.2016 22:28 -1,8 °C -1,8 °C 94 % 1010,8 hPa 0,0 mm 0,1 km/h (0 Bft) W 266 ° 0 min 0,000 mm 0,0 UV-I 0 W/m² -2,6 °C 1,6 km/h (1 Bft)
07.11.2016 22:29 -1,9 °C -1,8 °C 94 % 1010,8 hPa 0,0 mm 0,0 km/h (0 Bft) W 266 ° 0 min 0,000 mm 0,0 UV-I 0 W/m² -2,7 °C 0,0 km/h (0 Bft)
07.11.2016 22:30 -1,8 °C -1,8 °C 94 % 1010,8 hPa 0,0 mm 0,1 km/h (0 Bft) W 266 ° 0 min 0,000 mm 0,0 UV-I 0 W/m² -2,6 °C 1,6 km/h (1 Bft)
07.11.2016 22:31 -1,8 °C -1,8 °C 94 % 1010,8 hPa 0,0 mm 0,1 km/h (0 Bft) W 266 ° 0 min 0,000 mm 0,0 UV-I 0 W/m² -2,6 °C 1,6 km/h (1 Bft)
07.11.2016 22:32 -1,9 °C -1,8 °C 94 % 1010,8 hPa 0,0 mm 0,0 km/h (0 Bft) W 266 ° 0 min 0,000 mm 0,0 UV-I 0 W/m² -2,7 °C 0,0 km/h (0 Bft)
07.11.2016 22:33 -1,9 °C -1,8 °C 94 % 1010,7 hPa 0,0 mm 0,0 km/h (0 Bft) W 266 ° 0 min 0,000 mm 0,0 UV-I 0 W/m² -2,7 °C 0,0 km/h (0 Bft)
07.11.2016 22:34 -1,9 °C -1,9 °C 94 % 1010,8 hPa 0,0 mm 0,0 km/h (0 Bft) W 266 ° 0 min 0,000 mm 0,0 UV-I 0 W/m² -2,7 °C 0,0 km/h (0 Bft)
07.11.2016 22:35 -1,9 °C -1,8 °C 94 % 1010,7 hPa 0,0 mm 0,0 km/h (0 Bft) W 266 ° 0 min 0,000 mm 0,0 UV-I 0 W/m² -2,7 °C 0,0 km/h (0 Bft)
07.11.2016 22:36 -1,9 °C -1,9 °C 94 % 1010,7 hPa 0,0 mm 0,0 km/h (0 Bft) W 266 ° 0 min 0,000 mm 0,0 UV-I 0 W/m² -2,7 °C 0,0 km/h (0 Bft)
07.11.2016 22:37 -1,9 °C -1,9 °C 94 % 1010,7 hPa 0,0 mm 0,0 km/h (0 Bft) W 266 ° 0 min 0,000 mm 0,0 UV-I 0 W/m² -2,7 °C 0,0 km/h (0 Bft)
07.11.2016 22:38 -1,9 °C -1,9 °C 94 % 1010,7 hPa 0,0 mm 0,0 km/h (0 Bft) W 266 ° 0 min 0,000 mm 0,0 UV-I 0 W/m² -2,7 °C 0,0 km/h (0 Bft)
07.11.2016 22:39 -1,9 °C -1,9 °C 94 % 1010,7 hPa 0,0 mm 0,0 km/h (0 Bft) W 266 ° 0 min 0,000 mm 0,0 UV-I 0 W/m² -2,7 °C 0,0 km/h (0 Bft)
07.11.2016 22:40 -1,9 °C -1,9 °C 94 % 1010,7 hPa 0,0 mm 0,0 km/h (0 Bft) W 266 ° 0 min 0,000 mm 0,0 UV-I 0 W/m² -2,7 °C 0,0 km/h (0 Bft)
07.11.2016 22:41 -1,9 °C -1,9 °C 94 % 1010,7 hPa 0,0 mm 0,0 km/h (0 Bft) W 266 ° 0 min 0,000 mm 0,0 UV-I 0 W/m² -2,7 °C 0,0 km/h (0 Bft)
07.11.2016 22:42 -1,9 °C -1,9 °C 94 % 1010,7 hPa 0,0 mm 0,0 km/h (0 Bft) W 266 ° 0 min 0,000 mm 0,0 UV-I 0 W/m² -2,7 °C 0,0 km/h (0 Bft)
07.11.2016 22:43 -1,9 °C -1,9 °C 94 % 1010,7 hPa 0,0 mm 0,0 km/h (0 Bft) W 266 ° 0 min 0,000 mm 0,0 UV-I 0 W/m² -2,7 °C 0,0 km/h (0 Bft)
07.11.2016 22:44 -1,9 °C -1,9 °C 94 % 1010,7 hPa 0,0 mm 0,0 km/h (0 Bft) W 266 ° 0 min 0,000 mm 0,0 UV-I 0 W/m² -2,7 °C 0,0 km/h (0 Bft)
07.11.2016 22:45 -1,9 °C -1,9 °C 94 % 1010,6 hPa 0,0 mm 0,0 km/h (0 Bft) W 266 ° 0 min 0,000 mm 0,0 UV-I 0 W/m² -2,7 °C 0,0 km/h (0 Bft)
07.11.2016 22:46 -1,9 °C -1,9 °C 94 % 1010,6 hPa 0,0 mm 0,0 km/h (0 Bft) W 266 ° 0 min 0,000 mm 0,0 UV-I 0 W/m² -2,7 °C 0,0 km/h (0 Bft)
07.11.2016 22:47 -1,9 °C -1,9 °C 94 % 1010,6 hPa 0,0 mm 0,0 km/h (0 Bft) W 266 ° 0 min 0,000 mm 0,0 UV-I 0 W/m² -2,7 °C 0,0 km/h (0 Bft)
07.11.2016 22:48 -1,9 °C -1,8 °C 94 % 1010,6 hPa 0,0 mm 0,0 km/h (0 Bft) W 266 ° 0 min 0,000 mm 0,0 UV-I 0 W/m² -2,7 °C 0,0 km/h (0 Bft)
07.11.2016 22:49 -1,9 °C -1,9 °C 95 % 1010,6 hPa 0,0 mm 0,0 km/h (0 Bft) W 266 ° 0 min 0,000 mm 0,0 UV-I 0 W/m² -2,6 °C 0,0 km/h (0 Bft)
07.11.2016 22:50 -1,9 °C -1,8 °C 95 % 1010,6 hPa 0,0 mm 0,0 km/h (0 Bft) W 266 ° 0 min 0,000 mm 0,0 UV-I 0 W/m² -2,6 °C 0,0 km/h (0 Bft)
07.11.2016 22:51 -1,8 °C -1,8 °C 95 % 1010,6 hPa 0,0 mm 0,0 km/h (0 Bft) W 266 ° 0 min 0,000 mm 0,0 UV-I 0 W/m² -2,5 °C 0,0 km/h (0 Bft)
07.11.2016 22:52 -1,8 °C -1,8 °C 95 % 1010,6 hPa 0,0 mm 0,0 km/h (0 Bft) W 266 ° 0 min 0,000 mm 0,0 UV-I 0 W/m² -2,5 °C 0,0 km/h (0 Bft)
07.11.2016 22:53 -1,8 °C -1,8 °C 95 % 1010,5 hPa 0,0 mm 0,0 km/h (0 Bft) W 266 ° 0 min 0,000 mm 0,0 UV-I 0 W/m² -2,5 °C 0,0 km/h (0 Bft)
07.11.2016 22:54 -1,8 °C -1,8 °C 95 % 1010,5 hPa 0,0 mm 0,0 km/h (0 Bft) W 266 ° 0 min 0,000 mm 0,0 UV-I 0 W/m² -2,5 °C 0,0 km/h (0 Bft)
07.11.2016 22:55 -1,8 °C -1,8 °C 95 % 1010,5 hPa 0,0 mm 0,0 km/h (0 Bft) W 266 ° 0 min 0,000 mm 0,0 UV-I 0 W/m² -2,5 °C 0,0 km/h (0 Bft)
07.11.2016 22:56 -1,8 °C -1,8 °C 95 % 1010,6 hPa 0,0 mm 0,0 km/h (0 Bft) W 266 ° 0 min 0,000 mm 0,0 UV-I 0 W/m² -2,5 °C 0,0 km/h (0 Bft)
07.11.2016 22:57 -1,8 °C -1,8 °C 95 % 1010,5 hPa 0,0 mm 0,0 km/h (0 Bft) W 266 ° 0 min 0,000 mm 0,0 UV-I 0 W/m² -2,5 °C 0,0 km/h (0 Bft)
07.11.2016 22:58 -1,8 °C -1,8 °C 95 % 1010,5 hPa 0,0 mm 0,0 km/h (0 Bft) W 266 ° 0 min 0,000 mm 0,0 UV-I 0 W/m² -2,5 °C 0,0 km/h (0 Bft)
07.11.2016 22:59 -1,8 °C -1,8 °C 95 % 1010,5 hPa 0,0 mm 0,0 km/h (0 Bft) W 266 ° 0 min 0,000 mm 0,0 UV-I 0 W/m² -2,5 °C 0,0 km/h (0 Bft)
07.11.2016 23:00 -1,8 °C -1,8 °C 95 % 1010,5 hPa 0,0 mm 0,0 km/h (0 Bft) W 266 ° 0 min 0,000 mm 0,0 UV-I 0 W/m² -2,5 °C 0,0 km/h (0 Bft)
07.11.2016 23:01 -1,8 °C -1,8 °C 95 % 1010,5 hPa 0,0 mm 0,0 km/h (0 Bft) W 266 ° 0 min 0,000 mm 0,0 UV-I 0 W/m² -2,5 °C 0,0 km/h (0 Bft)
07.11.2016 23:02 -1,8 °C -1,8 °C 95 % 1010,5 hPa 0,0 mm 0,0 km/h (0 Bft) W 266 ° 0 min 0,000 mm 0,0 UV-I 0 W/m² -2,5 °C 0,0 km/h (0 Bft)
07.11.2016 23:03 -1,8 °C -1,8 °C 95 % 1010,5 hPa 0,0 mm 0,0 km/h (0 Bft) W 266 ° 0 min 0,000 mm 0,0 UV-I 0 W/m² -2,5 °C 0,0 km/h (0 Bft)
07.11.2016 23:04 -1,8 °C -1,8 °C 95 % 1010,5 hPa 0,0 mm 0,0 km/h (0 Bft) W 266 ° 0 min 0,000 mm 0,0 UV-I 0 W/m² -2,5 °C 0,0 km/h (0 Bft)
07.11.2016 23:05 -1,8 °C -1,8 °C 95 % 1010,5 hPa 0,0 mm 0,0 km/h (0 Bft) W 266 ° 0 min 0,000 mm 0,0 UV-I 0 W/m² -2,5 °C 0,0 km/h (0 Bft)
07.11.2016 23:06 -1,8 °C -1,8 °C 95 % 1010,5 hPa 0,0 mm 0,0 km/h (0 Bft) W 266 ° 0 min 0,000 mm 0,0 UV-I 0 W/m² -2,5 °C 0,0 km/h (0 Bft)
07.11.2016 23:07 -1,8 °C -1,8 °C 95 % 1010,5 hPa 0,0 mm 0,0 km/h (0 Bft) W 266 ° 0 min 0,000 mm 0,0 UV-I 0 W/m² -2,5 °C 0,0 km/h (0 Bft)
07.11.2016 23:08 -1,8 °C -1,8 °C 95 % 1010,5 hPa 0,0 mm 0,0 km/h (0 Bft) W 266 ° 0 min 0,000 mm 0,0 UV-I 0 W/m² -2,5 °C 0,0 km/h (0 Bft)
07.11.2016 23:09 -1,8 °C -1,8 °C 95 % 1010,5 hPa 0,0 mm 0,0 km/h (0 Bft) W 266 ° 0 min 0,000 mm 0,0 UV-I 0 W/m² -2,5 °C 0,0 km/h (0 Bft)
07.11.2016 23:10 -1,8 °C -1,8 °C 95 % 1010,5 hPa 0,0 mm 0,0 km/h (0 Bft) W 266 ° 0 min 0,000 mm 0,0 UV-I 0 W/m² -2,5 °C 0,0 km/h (0 Bft)
07.11.2016 23:11 -1,8 °C -1,8 °C 95 % 1010,5 hPa 0,0 mm 0,0 km/h (0 Bft) W 266 ° 0 min 0,000 mm 0,0 UV-I 0 W/m² -2,5 °C 0,0 km/h (0 Bft)
07.11.2016 23:12 -1,8 °C -1,8 °C 95 % 1010,5 hPa 0,0 mm 0,0 km/h (0 Bft) W 266 ° 0 min 0,000 mm 0,0 UV-I 0 W/m² -2,5 °C 0,0 km/h (0 Bft)
07.11.2016 23:13 -1,7 °C -1,7 °C 95 % 1010,5 hPa 0,0 mm 0,0 km/h (0 Bft) W 266 ° 0 min 0,000 mm 0,0 UV-I 0 W/m² -2,4 °C 0,0 km/h (0 Bft)
07.11.2016 23:14 -1,8 °C -1,7 °C 95 % 1010,5 hPa 0,0 mm 0,0 km/h (0 Bft) W 266 ° 0 min 0,000 mm 0,0 UV-I 0 W/m² -2,5 °C 0,0 km/h (0 Bft)
07.11.2016 23:15 -1,8 °C -1,8 °C 95 % 1010,5 hPa 0,0 mm 0,0 km/h (0 Bft) W 266 ° 0 min 0,000 mm 0,0 UV-I 0 W/m² -2,5 °C 0,0 km/h (0 Bft)
07.11.2016 23:16 -1,8 °C -1,8 °C 95 % 1010,5 hPa 0,0 mm 0,0 km/h (0 Bft) W 266 ° 0 min 0,000 mm 0,0 UV-I 0 W/m² -2,5 °C 0,0 km/h (0 Bft)
07.11.2016 23:17 -1,8 °C -1,7 °C 95 % 1010,5 hPa 0,0 mm 0,0 km/h (0 Bft) W 266 ° 0 min 0,000 mm 0,0 UV-I 0 W/m² -2,5 °C 0,0 km/h (0 Bft)
07.11.2016 23:18 -1,7 °C -1,7 °C 95 % 1010,5 hPa 0,0 mm 0,0 km/h (0 Bft) W 266 ° 0 min 0,000 mm 0,0 UV-I 0 W/m² -2,4 °C 0,0 km/h (0 Bft)
07.11.2016 23:19 -1,8 °C -1,7 °C 95 % 1010,4 hPa 0,0 mm 0,0 km/h (0 Bft) W 266 ° 0 min 0,000 mm 0,0 UV-I 0 W/m² -2,5 °C 0,0 km/h (0 Bft)
07.11.2016 23:20 -1,7 °C -1,7 °C 95 % 1010,5 hPa 0,0 mm 0,0 km/h (0 Bft) W 266 ° 0 min 0,000 mm 0,0 UV-I 0 W/m² -2,4 °C 0,0 km/h (0 Bft)
07.11.2016 23:21 -1,7 °C -1,7 °C 95 % 1010,5 hPa 0,0 mm 0,0 km/h (0 Bft) W 266 ° 0 min 0,000 mm 0,0 UV-I 0 W/m² -2,4 °C 0,0 km/h (0 Bft)
07.11.2016 23:22 -1,7 °C -1,7 °C 95 % 1010,5 hPa 0,0 mm 0,0 km/h (0 Bft) W 266 ° 0 min 0,000 mm 0,0 UV-I 0 W/m² -2,4 °C 0,0 km/h (0 Bft)
07.11.2016 23:23 -1,7 °C -1,7 °C 95 % 1010,5 hPa 0,0 mm 0,0 km/h (0 Bft) W 266 ° 0 min 0,000 mm 0,0 UV-I 0 W/m² -2,4 °C 0,0 km/h (0 Bft)
07.11.2016 23:24 -1,7 °C -1,7 °C 95 % 1010,5 hPa 0,0 mm 0,0 km/h (0 Bft) W 266 ° 0 min 0,000 mm 0,0 UV-I 0 W/m² -2,4 °C 0,0 km/h (0 Bft)
07.11.2016 23:25 -1,7 °C -1,7 °C 95 % 1010,5 hPa 0,0 mm 0,0 km/h (0 Bft) W 266 ° 0 min 0,000 mm 0,0 UV-I 0 W/m² -2,4 °C 0,0 km/h (0 Bft)
07.11.2016 23:26 -1,7 °C -1,7 °C 95 % 1010,5 hPa 0,0 mm 0,0 km/h (0 Bft) W 266 ° 0 min 0,000 mm 0,0 UV-I 0 W/m² -2,4 °C 0,0 km/h (0 Bft)
07.11.2016 23:27 -1,7 °C -1,7 °C 95 % 1010,5 hPa 0,0 mm 0,0 km/h (0 Bft) W 266 ° 0 min 0,000 mm 0,0 UV-I 0 W/m² -2,4 °C 0,0 km/h (0 Bft)
07.11.2016 23:28 -1,7 °C -1,7 °C 95 % 1010,5 hPa 0,0 mm 0,0 km/h (0 Bft) W 266 ° 0 min 0,000 mm 0,0 UV-I 0 W/m² -2,4 °C 0,0 km/h (0 Bft)
07.11.2016 23:29 -1,7 °C -1,7 °C 95 % 1010,5 hPa 0,0 mm 0,0 km/h (0 Bft) W 266 ° 0 min 0,000 mm 0,0 UV-I 0 W/m² -2,4 °C 0,0 km/h (0 Bft)
07.11.2016 23:30 -1,7 °C -1,7 °C 95 % 1010,5 hPa 0,0 mm 0,0 km/h (0 Bft) W 266 ° 0 min 0,000 mm 0,0 UV-I 0 W/m² -2,4 °C 0,0 km/h (0 Bft)
07.11.2016 23:31 -1,7 °C -1,7 °C 95 % 1010,5 hPa 0,0 mm 0,0 km/h (0 Bft) W 266 ° 0 min 0,000 mm 0,0 UV-I 0 W/m² -2,4 °C 0,0 km/h (0 Bft)
07.11.2016 23:32 -1,7 °C -1,6 °C 95 % 1010,5 hPa 0,0 mm 0,0 km/h (0 Bft) W 266 ° 0 min 0,000 mm 0,0 UV-I 0 W/m² -2,4 °C 0,0 km/h (0 Bft)
07.11.2016 23:33 -1,7 °C -1,6 °C 95 % 1010,5 hPa 0,0 mm 0,0 km/h (0 Bft) W 266 ° 0 min 0,000 mm 0,0 UV-I 0 W/m² -2,4 °C 0,0 km/h (0 Bft)
07.11.2016 23:34 -1,6 °C -1,6 °C 95 % 1010,5 hPa 0,0 mm 0,0 km/h (0 Bft) W 266 ° 0 min 0,000 mm 0,0 UV-I 0 W/m² -2,3 °C 0,0 km/h (0 Bft)
07.11.2016 23:35 -1,6 °C -1,6 °C 95 % 1010,5 hPa 0,0 mm 0,0 km/h (0 Bft) W 266 ° 0 min 0,000 mm 0,0 UV-I 0 W/m² -2,3 °C 0,0 km/h (0 Bft)
07.11.2016 23:36 -1,7 °C -1,6 °C 95 % 1010,5 hPa 0,0 mm 0,0 km/h (0 Bft) W 266 ° 0 min 0,000 mm 0,0 UV-I 0 W/m² -2,4 °C 0,0 km/h (0 Bft)
07.11.2016 23:37 -1,6 °C -1,6 °C 95 % 1010,4 hPa 0,0 mm 0,0 km/h (0 Bft) W 266 ° 0 min 0,000 mm 0,0 UV-I 0 W/m² -2,3 °C 0,0 km/h (0 Bft)
07.11.2016 23:38 -1,6 °C -1,6 °C 95 % 1010,5 hPa 0,0 mm 0,0 km/h (0 Bft) W 266 ° 0 min 0,000 mm 0,0 UV-I 0 W/m² -2,3 °C 0,0 km/h (0 Bft)
07.11.2016 23:39 -1,6 °C -1,6 °C 95 % 1010,5 hPa 0,0 mm 0,0 km/h (0 Bft) W 266 ° 0 min 0,000 mm 0,0 UV-I 0 W/m² -2,3 °C 0,0 km/h (0 Bft)
07.11.2016 23:40 -1,6 °C -1,6 °C 95 % 1010,5 hPa 0,0 mm 0,0 km/h (0 Bft) W 266 ° 0 min 0,000 mm 0,0 UV-I 0 W/m² -2,3 °C 0,0 km/h (0 Bft)
07.11.2016 23:41 -1,6 °C -1,6 °C 95 % 1010,5 hPa 0,0 mm 0,0 km/h (0 Bft) W 266 ° 0 min 0,000 mm 0,0 UV-I 0 W/m² -2,3 °C 0,0 km/h (0 Bft)
07.11.2016 23:42 -1,6 °C -1,6 °C 95 % 1010,5 hPa 0,0 mm 0,0 km/h (0 Bft) W 266 ° 0 min 0,000 mm 0,0 UV-I 0 W/m² -2,3 °C 0,0 km/h (0 Bft)
07.11.2016 23:43 -1,6 °C -1,5 °C 95 % 1010,5 hPa 0,0 mm 0,0 km/h (0 Bft) W 266 ° 0 min 0,000 mm 0,0 UV-I 0 W/m² -2,3 °C 0,0 km/h (0 Bft)
07.11.2016 23:44 -1,5 °C -1,5 °C 95 % 1010,5 hPa 0,0 mm 0,0 km/h (0 Bft) W 266 ° 0 min 0,000 mm 0,0 UV-I 0 W/m² -2,2 °C 0,0 km/h (0 Bft)
07.11.2016 23:45 -1,5 °C -1,5 °C 95 % 1010,5 hPa 0,0 mm 0,0 km/h (0 Bft) W 266 ° 0 min 0,000 mm 0,0 UV-I 0 W/m² -2,2 °C 0,0 km/h (0 Bft)
07.11.2016 23:46 -1,5 °C -1,5 °C 95 % 1010,5 hPa 0,0 mm 0,0 km/h (0 Bft) W 266 ° 0 min 0,000 mm 0,0 UV-I 0 W/m² -2,2 °C 0,0 km/h (0 Bft)
07.11.2016 23:47 -1,5 °C -1,5 °C 95 % 1010,5 hPa 0,0 mm 0,0 km/h (0 Bft) W 266 ° 0 min 0,000 mm 0,0 UV-I 0 W/m² -2,2 °C 0,0 km/h (0 Bft)
07.11.2016 23:48 -1,5 °C -1,5 °C 95 % 1010,5 hPa 0,0 mm 0,0 km/h (0 Bft) W 266 ° 0 min 0,000 mm 0,0 UV-I 0 W/m² -2,2 °C 0,0 km/h (0 Bft)
07.11.2016 23:49 -1,5 °C -1,5 °C 95 % 1010,5 hPa 0,0 mm 0,0 km/h (0 Bft) W 266 ° 0 min 0,000 mm 0,0 UV-I 0 W/m² -2,2 °C 0,0 km/h (0 Bft)
07.11.2016 23:50 -1,5 °C -1,5 °C 95 % 1010,5 hPa 0,0 mm 0,0 km/h (0 Bft) W 266 ° 0 min 0,000 mm 0,0 UV-I 0 W/m² -2,2 °C 0,0 km/h (0 Bft)
07.11.2016 23:51 -1,5 °C -1,5 °C 95 % 1010,5 hPa 0,0 mm 0,0 km/h (0 Bft) W 266 ° 0 min 0,000 mm 0,0 UV-I 0 W/m² -2,2 °C 0,0 km/h (0 Bft)
07.11.2016 23:52 -1,5 °C -1,4 °C 95 % 1010,5 hPa 0,0 mm 0,0 km/h (0 Bft) W 266 ° 0 min 0,000 mm 0,0 UV-I 0 W/m² -2,2 °C 0,0 km/h (0 Bft)
07.11.2016 23:53 -1,5 °C -1,4 °C 95 % 1010,5 hPa 0,0 mm 0,0 km/h (0 Bft) W 266 ° 0 min 0,000 mm 0,0 UV-I 0 W/m² -2,2 °C 0,0 km/h (0 Bft)
07.11.2016 23:54 -1,4 °C -1,4 °C 95 % 1010,5 hPa 0,0 mm 0,0 km/h (0 Bft) W 266 ° 0 min 0,000 mm 0,0 UV-I 0 W/m² -2,1 °C 0,0 km/h (0 Bft)
07.11.2016 23:55 -1,4 °C -1,4 °C 95 % 1010,4 hPa 0,0 mm 0,0 km/h (0 Bft) W 266 ° 0 min 0,000 mm 0,0 UV-I 0 W/m² -2,1 °C 0,0 km/h (0 Bft)
07.11.2016 23:56 -1,4 °C -1,4 °C 95 % 1010,4 hPa 0,0 mm 0,0 km/h (0 Bft) W 266 ° 0 min 0,000 mm 0,0 UV-I 0 W/m² -2,1 °C 0,0 km/h (0 Bft)
07.11.2016 23:57 -1,4 °C -1,4 °C 95 % 1010,4 hPa 0,0 mm 0,0 km/h (0 Bft) W 266 ° 0 min 0,000 mm 0,0 UV-I 0 W/m² -2,1 °C 0,0 km/h (0 Bft)
07.11.2016 23:58 -1,4 °C -1,4 °C 95 % 1010,4 hPa 0,0 mm 0,0 km/h (0 Bft) W 266 ° 0 min 0,000 mm 0,0 UV-I 0 W/m² -2,1 °C 0,0 km/h (0 Bft)
07.11.2016 23:59 -1,4 °C -1,4 °C 95 % 1010,4 hPa 0,0 mm 0,0 km/h (0 Bft) W 266 ° 0 min 0,000 mm 0,0 UV-I 0 W/m² -2,1 °C 0,0 km/h (0 Bft)
_ Min-Zeit 22:50 22:49 13:59 00:01 - 23:59 - - - - - - 22:48 23:59
Minimum _ -1,9 °C -1,9 °C 84 % 1004,3 hPa - 0,0 km/h (0 Bft) - - - - - - -2,7 °C 0,0 km/h (0 Bft)
_ Max-Zeit 13:54 13:55 07:55 22:08 17:06 08:24 - - 14:29 14:01 13:32 13:31 16:34 08:24
Maximum _ 1,7 °C 1,7 °C 96 % 1010,9 hPa 0,2 mm 12,5 km/h
W-NW (3 Bft)
- - 1 min 0,102 mm 1,8 UV-I 480 W/m² -0,2 °C 19,3 km/h
W-SW (3 Bft)
Durchschnitt _ 0,1 °C 0,1 °C 93 % 1008,1 hPa #5,8 mm 2,0 km/h (1 Bft) W - #48 min. #0,381 mm 1,0 UV-I 44 W/m² -1,0 °C 3,3 km/h (1 Bft)